<?xml version='1.0' encoding='UTF-8'?><gpx version="1.1" creator="JPX - https://github.com/jenetics/jpx" xmlns="http://www.topografix.com/GPX/1/1"><trk><trkseg><trkpt lat="45.05198976127244" lon="9.597810548895877"><ele>59.00000000000001</ele><time>2026-04-07T08:31:00.545Z</time></trkpt><trkpt lat="45.05199089715696" lon="9.597689055294655"><ele>59.0</ele><time>2026-04-07T08:31:03.448Z</time></trkpt><trkpt lat="45.0519927768163" lon="9.597593533041394"><ele>59.0</ele><time>2026-04-07T08:31:06.303Z</time></trkpt><trkpt lat="45.0519784899289" lon="9.597488311010972"><ele>59.0</ele><time>2026-04-07T08:31:09.158Z</time></trkpt><trkpt lat="45.05196544543018" lon="9.597382949280453"><ele>59.00000000000001</ele><time>2026-04-07T08:31:12.011Z</time></trkpt><trkpt lat="45.05197378660293" lon="9.597289378311757"><ele>59.0</ele><time>2026-04-07T08:31:15.988Z</time></trkpt><trkpt lat="45.05196710424785" lon="9.59717087434715"><ele>59.00000000000001</ele><time>2026-04-07T08:31:19.991Z</time></trkpt><trkpt lat="45.052003713185584" lon="9.597082440372734"><ele>59.0</ele><time>2026-04-07T08:31:23.993Z</time></trkpt><trkpt lat="45.05207761570313" lon="9.597061261031062"><ele>59.0</ele><time>2026-04-07T08:31:28.995Z</time></trkpt><trkpt lat="45.052145958385246" lon="9.597059793171457"><ele>59.0</ele><time>2026-04-07T08:31:32.997Z</time></trkpt><trkpt lat="45.05221186980354" lon="9.59706121997769"><ele>59.00000000000001</ele><time>2026-04-07T08:31:36.998Z</time></trkpt><trkpt lat="45.05229389943011" lon="9.597041887891134"><ele>59.0</ele><time>2026-04-07T08:31:40.998Z</time></trkpt><trkpt lat="45.0523194526654" lon="9.596922562918904"><ele>59.16666666666667</ele><time>2026-04-07T08:31:43.999Z</time></trkpt><trkpt lat="45.0522960329939" lon="9.596825783344459"><ele>59.333333333333336</ele><time>2026-04-07T08:31:45.999Z</time></trkpt><trkpt lat="45.05228141265039" lon="9.596735219915143"><ele>59.5</ele><time>2026-04-07T08:31:47.999Z</time></trkpt><trkpt lat="45.05226197664034" lon="9.596647305804522"><ele>59.66666666666667</ele><time>2026-04-07T08:31:50Z</time></trkpt><trkpt lat="45.052241043600624" lon="9.596521201693019"><ele>59.833333333333336</ele><time>2026-04-07T08:31:53Z</time></trkpt><trkpt lat="45.05222037701079" lon="9.596427864484173"><ele>60.0</ele><time>2026-04-07T08:31:55Z</time></trkpt><trkpt lat="45.052205212274956" lon="9.596300176899895"><ele>60.0</ele><time>2026-04-07T08:31:58Z</time></trkpt><trkpt lat="45.052183064866426" lon="9.596204113953178"><ele>60.0</ele><time>2026-04-07T08:32:00Z</time></trkpt><trkpt lat="45.05216378348318" lon="9.596090475025225"><ele>60.0</ele><time>2026-04-07T08:32:03Z</time></trkpt><trkpt lat="45.05214514597799" lon="9.595959699743604"><ele>60.0</ele><time>2026-04-07T08:32:06.001Z</time></trkpt><trkpt lat="45.0521333805178" lon="9.595847025878447"><ele>60.0</ele><time>2026-04-07T08:32:10.001Z</time></trkpt><trkpt lat="45.052122055740014" lon="9.595742293848886"><ele>60.0</ele><time>2026-04-07T08:32:14.001Z</time></trkpt><trkpt lat="45.052121760577485" lon="9.595603139532223"><ele>60.0</ele><time>2026-04-07T08:32:17.001Z</time></trkpt><trkpt lat="45.05213350220044" lon="9.595488027239128"><ele>60.0</ele><time>2026-04-07T08:32:19.001Z</time></trkpt><trkpt lat="45.05213153445976" lon="9.595370721452793"><ele>60.0</ele><time>2026-04-07T08:32:21.001Z</time></trkpt><trkpt lat="45.05213419433023" lon="9.595249539658939"><ele>60.0</ele><time>2026-04-07T08:32:23.001Z</time></trkpt><trkpt lat="45.05213563814955" lon="9.595129086211985"><ele>60.0</ele><time>2026-04-07T08:32:25.001Z</time></trkpt><trkpt lat="45.05213781742658" lon="9.595008042703657"><ele>60.0</ele><time>2026-04-07T08:32:27.001Z</time></trkpt><trkpt lat="45.05213536627418" lon="9.594884500149503"><ele>60.0</ele><time>2026-04-07T08:32:29.001Z</time></trkpt><trkpt lat="45.05213501901607" lon="9.594761075215194"><ele>60.0</ele><time>2026-04-07T08:32:31.001Z</time></trkpt><trkpt lat="45.05214016749777" lon="9.594631811654681"><ele>60.0</ele><time>2026-04-07T08:32:33.001Z</time></trkpt><trkpt lat="45.052143395454166" lon="9.594499854475652"><ele>60.0</ele><time>2026-04-07T08:32:35.001Z</time></trkpt><trkpt lat="45.05214468073364" lon="9.594371749900015"><ele>60.0</ele><time>2026-04-07T08:32:37.001Z</time></trkpt><trkpt lat="45.052147381641" lon="9.59423894756624"><ele>59.8</ele><time>2026-04-07T08:32:39.001Z</time></trkpt><trkpt lat="45.05214880847037" lon="9.594110005880701"><ele>59.6</ele><time>2026-04-07T08:32:41.001Z</time></trkpt><trkpt lat="45.05215240827785" lon="9.593982372751269"><ele>59.400000000000006</ele><time>2026-04-07T08:32:43.001Z</time></trkpt><trkpt lat="45.05215295351723" lon="9.593846727968488"><ele>59.2</ele><time>2026-04-07T08:32:45.001Z</time></trkpt><trkpt lat="45.05215545832582" lon="9.593712251900305"><ele>59.0</ele><time>2026-04-07T08:32:47.001Z</time></trkpt><trkpt lat="45.05215736682806" lon="9.593572548764932"><ele>59.0</ele><time>2026-04-07T08:32:49.001Z</time></trkpt><trkpt lat="45.05215970279469" lon="9.593442223397984"><ele>59.00000000000001</ele><time>2026-04-07T08:32:51.001Z</time></trkpt><trkpt lat="45.05216068457102" lon="9.593308523582023"><ele>59.00000000000001</ele><time>2026-04-07T08:32:53.001Z</time></trkpt><trkpt lat="45.05216308165473" lon="9.59317144407469"><ele>59.0</ele><time>2026-04-07T08:32:55.001Z</time></trkpt><trkpt lat="45.05216582914879" lon="9.593042611595145"><ele>59.0</ele><time>2026-04-07T08:32:57.001Z</time></trkpt><trkpt lat="45.052164506601976" lon="9.592915253515454"><ele>59.2</ele><time>2026-04-07T08:32:59.001Z</time></trkpt><trkpt lat="45.052164899661186" lon="9.592775129514134"><ele>59.400000000000006</ele><time>2026-04-07T08:33:01.001Z</time></trkpt><trkpt lat="45.05216215497185" lon="9.592646851829599"><ele>59.6</ele><time>2026-04-07T08:33:03.001Z</time></trkpt><trkpt lat="45.05215493898852" lon="9.592513649731426"><ele>59.8</ele><time>2026-04-07T08:33:05.001Z</time></trkpt><trkpt lat="45.05214724229211" lon="9.59237946421898"><ele>60.0</ele><time>2026-04-07T08:33:07.001Z</time></trkpt><trkpt lat="45.0521383376603" lon="9.592252062203988"><ele>60.0</ele><time>2026-04-07T08:33:09.001Z</time></trkpt><trkpt lat="45.05212496856111" lon="9.592121931706465"><ele>60.0</ele><time>2026-04-07T08:33:11.001Z</time></trkpt><trkpt lat="45.05210855134833" lon="9.592002544713592"><ele>60.0</ele><time>2026-04-07T08:33:13.001Z</time></trkpt><trkpt lat="45.05209450885641" lon="9.591877502406485"><ele>60.0</ele><time>2026-04-07T08:33:15.001Z</time></trkpt><trkpt lat="45.05208778863833" lon="9.591740217177927"><ele>60.0</ele><time>2026-04-07T08:33:17.001Z</time></trkpt><trkpt lat="45.052073338942485" lon="9.591608863183849"><ele>60.4</ele><time>2026-04-07T08:33:19.001Z</time></trkpt><trkpt lat="45.05206122814474" lon="9.591477721817014"><ele>60.8</ele><time>2026-04-07T08:33:21.001Z</time></trkpt><trkpt lat="45.05204778299509" lon="9.591337092005473"><ele>61.2</ele><time>2026-04-07T08:33:23.001Z</time></trkpt><trkpt lat="45.05203546087848" lon="9.591200735856505"><ele>61.6</ele><time>2026-04-07T08:33:25.001Z</time></trkpt><trkpt lat="45.05202472979377" lon="9.591065662225157"><ele>62.0</ele><time>2026-04-07T08:33:27.001Z</time></trkpt><trkpt lat="45.05200583607921" lon="9.590933217971877"><ele>62.0</ele><time>2026-04-07T08:33:29.001Z</time></trkpt><trkpt lat="45.051993019380525" lon="9.590799996235264"><ele>62.0</ele><time>2026-04-07T08:33:31.001Z</time></trkpt><trkpt lat="45.05197707943826" lon="9.590660656688522"><ele>62.0</ele><time>2026-04-07T08:33:33.001Z</time></trkpt><trkpt lat="45.05196491287289" lon="9.59052666725468"><ele>62.0</ele><time>2026-04-07T08:33:35.001Z</time></trkpt><trkpt lat="45.05194637994529" lon="9.590401505292212"><ele>62.0</ele><time>2026-04-07T08:33:37.001Z</time></trkpt><trkpt lat="45.05193574700412" lon="9.590262985556931"><ele>62.400000000000006</ele><time>2026-04-07T08:33:39.001Z</time></trkpt><trkpt lat="45.05193177097681" lon="9.590135932460269"><ele>62.800000000000004</ele><time>2026-04-07T08:33:41.001Z</time></trkpt><trkpt lat="45.0519141331233" lon="9.590005787586534"><ele>63.2</ele><time>2026-04-07T08:33:43.001Z</time></trkpt><trkpt lat="45.05190242757582" lon="9.589875837096502"><ele>63.6</ele><time>2026-04-07T08:33:45.001Z</time></trkpt><trkpt lat="45.051880910980834" lon="9.589751866027273"><ele>64.0</ele><time>2026-04-07T08:33:47.001Z</time></trkpt><trkpt lat="45.0518698104221" lon="9.58961096644145"><ele>63.49999999999999</ele><time>2026-04-07T08:33:49.001Z</time></trkpt><trkpt lat="45.051849172823324" lon="9.589484294058584"><ele>63.0</ele><time>2026-04-07T08:33:51.001Z</time></trkpt><trkpt lat="45.0518420988434" lon="9.589380606833766"><ele>62.5</ele><time>2026-04-07T08:33:53.001Z</time></trkpt><trkpt lat="45.05183080029405" lon="9.589263245298708"><ele>62.0</ele><time>2026-04-07T08:33:58.001Z</time></trkpt><trkpt lat="45.05179951849593" lon="9.589165427973835"><ele>61.49999999999999</ele><time>2026-04-07T08:34:00.001Z</time></trkpt><trkpt lat="45.05176102266088" lon="9.589050549602627"><ele>61.0</ele><time>2026-04-07T08:34:02.001Z</time></trkpt><trkpt lat="45.05171776285095" lon="9.588934599961664"><ele>61.0</ele><time>2026-04-07T08:34:04.001Z</time></trkpt><trkpt lat="45.05168582152591" lon="9.588815347811662"><ele>60.99999999999999</ele><time>2026-04-07T08:34:06.001Z</time></trkpt><trkpt lat="45.05163941704695" lon="9.588702493639229"><ele>60.99999999999999</ele><time>2026-04-07T08:34:08.001Z</time></trkpt><trkpt lat="45.051583436232235" lon="9.588597215071232"><ele>61.0</ele><time>2026-04-07T08:34:10.001Z</time></trkpt><trkpt lat="45.051518474197714" lon="9.5884986821655"><ele>61.0</ele><time>2026-04-07T08:34:12.001Z</time></trkpt><trkpt lat="45.051452946656724" lon="9.588403246351302"><ele>61.4</ele><time>2026-04-07T08:34:14.001Z</time></trkpt><trkpt lat="45.05138298147384" lon="9.58831362121488"><ele>61.8</ele><time>2026-04-07T08:34:16.001Z</time></trkpt><trkpt lat="45.05131921926791" lon="9.58821696320389"><ele>62.199999999999996</ele><time>2026-04-07T08:34:18.001Z</time></trkpt><trkpt lat="45.05124203175694" lon="9.58812727602557"><ele>62.599999999999994</ele><time>2026-04-07T08:34:20.001Z</time></trkpt><trkpt lat="45.05117283060198" lon="9.588026942747994"><ele>63.0</ele><time>2026-04-07T08:34:22.001Z</time></trkpt><trkpt lat="45.05110276032589" lon="9.587934396672653"><ele>62.8</ele><time>2026-04-07T08:34:24.001Z</time></trkpt><trkpt lat="45.051039990675974" lon="9.58783494688018"><ele>62.599999999999994</ele><time>2026-04-07T08:34:26.001Z</time></trkpt><trkpt lat="45.0509696593899" lon="9.587737843030924"><ele>62.400000000000006</ele><time>2026-04-07T08:34:28.001Z</time></trkpt><trkpt lat="45.05090135161742" lon="9.587640867877022"><ele>62.2</ele><time>2026-04-07T08:34:30.001Z</time></trkpt><trkpt lat="45.05083217658026" lon="9.58755167188148"><ele>62.0</ele><time>2026-04-07T08:34:32.001Z</time></trkpt><trkpt lat="45.05076150183089" lon="9.58745782861288"><ele>62.0</ele><time>2026-04-07T08:34:34.001Z</time></trkpt><trkpt lat="45.05068699287128" lon="9.587364130080468"><ele>62.0</ele><time>2026-04-07T08:34:36.001Z</time></trkpt><trkpt lat="45.05061611406134" lon="9.587269489670089"><ele>62.0</ele><time>2026-04-07T08:34:38.001Z</time></trkpt><trkpt lat="45.05054803521758" lon="9.587176399383312"><ele>62.0</ele><time>2026-04-07T08:34:40.001Z</time></trkpt><trkpt lat="45.050478097631746" lon="9.587086412536651"><ele>62.0</ele><time>2026-04-07T08:34:42.001Z</time></trkpt><trkpt lat="45.050409200588454" lon="9.586992332091658"><ele>61.6</ele><time>2026-04-07T08:34:44.001Z</time></trkpt><trkpt lat="45.050332953436794" lon="9.58689965380612"><ele>61.2</ele><time>2026-04-07T08:34:46.001Z</time></trkpt><trkpt lat="45.05026247557559" lon="9.58680130408802"><ele>60.8</ele><time>2026-04-07T08:34:48.001Z</time></trkpt><trkpt lat="45.050188335214415" lon="9.586702490057384"><ele>60.4</ele><time>2026-04-07T08:34:50.001Z</time></trkpt><trkpt lat="45.05011517386326" lon="9.586601249324177"><ele>60.0</ele><time>2026-04-07T08:34:52.001Z</time></trkpt><trkpt lat="45.05003858952636" lon="9.586504359118251"><ele>60.0</ele><time>2026-04-07T08:34:54.001Z</time></trkpt><trkpt lat="45.04996150054897" lon="9.586401577430221"><ele>60.0</ele><time>2026-04-07T08:34:56.001Z</time></trkpt><trkpt lat="45.04988681526673" lon="9.586298603919532"><ele>60.0</ele><time>2026-04-07T08:34:58.001Z</time></trkpt><trkpt lat="45.04981043200939" lon="9.586202014500538"><ele>60.0</ele><time>2026-04-07T08:35:00.002Z</time></trkpt><trkpt lat="45.049732088426886" lon="9.586110200889507"><ele>60.0</ele><time>2026-04-07T08:35:02.002Z</time></trkpt><trkpt lat="45.049662657345394" lon="9.586003047180379"><ele>60.4</ele><time>2026-04-07T08:35:04.002Z</time></trkpt><trkpt lat="45.04960154626055" lon="9.585892752835528"><ele>60.8</ele><time>2026-04-07T08:35:06.002Z</time></trkpt><trkpt lat="45.04954610576601" lon="9.5857607493096"><ele>61.2</ele><time>2026-04-07T08:35:08.002Z</time></trkpt><trkpt lat="45.04948471699152" lon="9.5856307607985"><ele>61.6</ele><time>2026-04-07T08:35:10.002Z</time></trkpt><trkpt lat="45.04943047605174" lon="9.585497069177954"><ele>62.0</ele><time>2026-04-07T08:35:12.002Z</time></trkpt><trkpt lat="45.049377180897125" lon="9.585368864239461"><ele>62.2</ele><time>2026-04-07T08:35:14.002Z</time></trkpt><trkpt lat="45.04932753413915" lon="9.585240347987085"><ele>62.400000000000006</ele><time>2026-04-07T08:35:16.002Z</time></trkpt><trkpt lat="45.049272541331206" lon="9.585116490552275"><ele>62.599999999999994</ele><time>2026-04-07T08:35:18.002Z</time></trkpt><trkpt lat="45.049215277247264" lon="9.584994197514781"><ele>62.8</ele><time>2026-04-07T08:35:20.002Z</time></trkpt><trkpt lat="45.04916106233163" lon="9.584871513086396"><ele>63.0</ele><time>2026-04-07T08:35:22.002Z</time></trkpt><trkpt lat="45.04910770297962" lon="9.584746530046887"><ele>63.0</ele><time>2026-04-07T08:35:24.002Z</time></trkpt><trkpt lat="45.049057500730164" lon="9.584627763299817"><ele>63.0</ele><time>2026-04-07T08:35:26.002Z</time></trkpt><trkpt lat="45.04900266023354" lon="9.584512322830122"><ele>63.0</ele><time>2026-04-07T08:35:28.002Z</time></trkpt><trkpt lat="45.04894779786794" lon="9.58439399711743"><ele>63.0</ele><time>2026-04-07T08:35:30.002Z</time></trkpt><trkpt lat="45.048901001962136" lon="9.584267351876104"><ele>63.0</ele><time>2026-04-07T08:35:32.002Z</time></trkpt><trkpt lat="45.048847163520676" lon="9.584140289733933"><ele>62.8</ele><time>2026-04-07T08:35:34.002Z</time></trkpt><trkpt lat="45.04879606088352" lon="9.584015251061233"><ele>62.599999999999994</ele><time>2026-04-07T08:35:36.002Z</time></trkpt><trkpt lat="45.048746275364344" lon="9.583886396696569"><ele>62.400000000000006</ele><time>2026-04-07T08:35:38.002Z</time></trkpt><trkpt lat="45.04869413620227" lon="9.583760300007466"><ele>62.2</ele><time>2026-04-07T08:35:40.002Z</time></trkpt><trkpt lat="45.04864364879615" lon="9.58364013438195"><ele>62.0</ele><time>2026-04-07T08:35:42.002Z</time></trkpt><trkpt lat="45.048589013059726" lon="9.583510227092214"><ele>62.0</ele><time>2026-04-07T08:35:44.002Z</time></trkpt><trkpt lat="45.04854158217542" lon="9.58338153491491"><ele>62.0</ele><time>2026-04-07T08:35:46.002Z</time></trkpt><trkpt lat="45.04849159564704" lon="9.583253496698896"><ele>62.0</ele><time>2026-04-07T08:35:48.002Z</time></trkpt><trkpt lat="45.04843690502921" lon="9.583129340614592"><ele>62.0</ele><time>2026-04-07T08:35:50.002Z</time></trkpt><trkpt lat="45.048385043570306" lon="9.583002111219441"><ele>62.0</ele><time>2026-04-07T08:35:52.002Z</time></trkpt><trkpt lat="45.048336185173234" lon="9.582875765000107"><ele>62.2</ele><time>2026-04-07T08:35:54.002Z</time></trkpt><trkpt lat="45.04828249313841" lon="9.58274919728359"><ele>62.400000000000006</ele><time>2026-04-07T08:35:56.002Z</time></trkpt><trkpt lat="45.04822985657319" lon="9.582620993732231"><ele>62.599999999999994</ele><time>2026-04-07T08:35:58.002Z</time></trkpt><trkpt lat="45.04818077968259" lon="9.582495265233282"><ele>62.8</ele><time>2026-04-07T08:36:00.002Z</time></trkpt><trkpt lat="45.04813741118058" lon="9.582379196817207"><ele>63.0</ele><time>2026-04-07T08:36:02.002Z</time></trkpt><trkpt lat="45.04808604482407" lon="9.582257669404173"><ele>63.0</ele><time>2026-04-07T08:36:04.002Z</time></trkpt><trkpt lat="45.04802873166509" lon="9.582132675792394"><ele>63.0</ele><time>2026-04-07T08:36:06.002Z</time></trkpt><trkpt lat="45.047975167140216" lon="9.5820180095741"><ele>63.0</ele><time>2026-04-07T08:36:08.002Z</time></trkpt><trkpt lat="45.04791918878936" lon="9.58189070476001"><ele>63.0</ele><time>2026-04-07T08:36:10.002Z</time></trkpt><trkpt lat="45.04786275531109" lon="9.581762298602087"><ele>63.0</ele><time>2026-04-07T08:36:12.002Z</time></trkpt><trkpt lat="45.047808403099744" lon="9.581635350303769"><ele>63.0</ele><time>2026-04-07T08:36:14.002Z</time></trkpt><trkpt lat="45.04775852138481" lon="9.581516064272027"><ele>63.0</ele><time>2026-04-07T08:36:16.002Z</time></trkpt><trkpt lat="45.04770890707703" lon="9.581390562958626"><ele>63.0</ele><time>2026-04-07T08:36:18.002Z</time></trkpt><trkpt lat="45.04765590419192" lon="9.581264103718791"><ele>63.0</ele><time>2026-04-07T08:36:20.002Z</time></trkpt><trkpt lat="45.04760333937501" lon="9.581136699110184"><ele>63.0</ele><time>2026-04-07T08:36:22.002Z</time></trkpt><trkpt lat="45.047551500846886" lon="9.581014652970792"><ele>63.0</ele><time>2026-04-07T08:36:24.002Z</time></trkpt><trkpt lat="45.04749852871654" lon="9.580892839447493"><ele>63.0</ele><time>2026-04-07T08:36:26.002Z</time></trkpt><trkpt lat="45.04743973030082" lon="9.580765850041765"><ele>63.0</ele><time>2026-04-07T08:36:28.002Z</time></trkpt><trkpt lat="45.04737616632739" lon="9.580639442808703"><ele>63.0</ele><time>2026-04-07T08:36:30.002Z</time></trkpt><trkpt lat="45.047316903301194" lon="9.580517389544882"><ele>63.0</ele><time>2026-04-07T08:36:32.002Z</time></trkpt><trkpt lat="45.04726106427999" lon="9.58038616577365"><ele>62.8</ele><time>2026-04-07T08:36:34.002Z</time></trkpt><trkpt lat="45.04721668746453" lon="9.580251424350843"><ele>62.599999999999994</ele><time>2026-04-07T08:36:36.002Z</time></trkpt><trkpt lat="45.04717114079427" lon="9.580116452211513"><ele>62.400000000000006</ele><time>2026-04-07T08:36:38.002Z</time></trkpt><trkpt lat="45.04711990610705" lon="9.579982821833848"><ele>62.2</ele><time>2026-04-07T08:36:40.001Z</time></trkpt><trkpt lat="45.047060353813315" lon="9.579868433870473"><ele>62.0</ele><time>2026-04-07T08:36:42.001Z</time></trkpt><trkpt lat="45.04700590970352" lon="9.579742858112047"><ele>62.0</ele><time>2026-04-07T08:36:44.001Z</time></trkpt><trkpt lat="45.046952284002856" lon="9.579616097832783"><ele>62.0</ele><time>2026-04-07T08:36:46.001Z</time></trkpt><trkpt lat="45.046903000405" lon="9.579485484273587"><ele>62.0</ele><time>2026-04-07T08:36:48.001Z</time></trkpt><trkpt lat="45.046849350568365" lon="9.579357024667774"><ele>62.0</ele><time>2026-04-07T08:36:50.001Z</time></trkpt><trkpt lat="45.04680029420303" lon="9.579224446667284"><ele>62.0</ele><time>2026-04-07T08:36:52.001Z</time></trkpt><trkpt lat="45.04675132328407" lon="9.579094985167327"><ele>62.0</ele><time>2026-04-07T08:36:54.001Z</time></trkpt><trkpt lat="45.046705418508864" lon="9.578959640398754"><ele>62.0</ele><time>2026-04-07T08:36:56.001Z</time></trkpt><trkpt lat="45.046663954078866" lon="9.578821819347008"><ele>62.0</ele><time>2026-04-07T08:36:58.001Z</time></trkpt><trkpt lat="45.046622490706284" lon="9.578681412075824"><ele>62.0</ele><time>2026-04-07T08:37:00.001Z</time></trkpt><trkpt lat="45.046577292982256" lon="9.578541305829322"><ele>62.0</ele><time>2026-04-07T08:37:02.001Z</time></trkpt><trkpt lat="45.046534168725145" lon="9.578406347838541"><ele>62.0</ele><time>2026-04-07T08:37:04.001Z</time></trkpt><trkpt lat="45.04648791187501" lon="9.57826919924259"><ele>62.0</ele><time>2026-04-07T08:37:06.001Z</time></trkpt><trkpt lat="45.04644414763795" lon="9.578138244329827"><ele>62.0</ele><time>2026-04-07T08:37:08.001Z</time></trkpt><trkpt lat="45.04640319639972" lon="9.578010158698888"><ele>62.0</ele><time>2026-04-07T08:37:10.001Z</time></trkpt><trkpt lat="45.046363840328006" lon="9.577879974377755"><ele>62.0</ele><time>2026-04-07T08:37:12.001Z</time></trkpt><trkpt lat="45.04632120032152" lon="9.577757710614902"><ele>61.8</ele><time>2026-04-07T08:37:14.001Z</time></trkpt><trkpt lat="45.04627336715995" lon="9.577640532084496"><ele>61.6</ele><time>2026-04-07T08:37:16.001Z</time></trkpt><trkpt lat="45.04623354866309" lon="9.577507894696552"><ele>61.39999999999999</ele><time>2026-04-07T08:37:18.001Z</time></trkpt><trkpt lat="45.04619179003859" lon="9.577374682194765"><ele>61.199999999999996</ele><time>2026-04-07T08:37:20.001Z</time></trkpt><trkpt lat="45.04614698084472" lon="9.577234384610682"><ele>61.0</ele><time>2026-04-07T08:37:22.001Z</time></trkpt><trkpt lat="45.046096697014654" lon="9.577104184654617"><ele>61.199999999999996</ele><time>2026-04-07T08:37:24.001Z</time></trkpt><trkpt lat="45.04605591224432" lon="9.576970436622618"><ele>61.39999999999999</ele><time>2026-04-07T08:37:26.001Z</time></trkpt><trkpt lat="45.046011607970804" lon="9.576834141054649"><ele>61.6</ele><time>2026-04-07T08:37:28.001Z</time></trkpt><trkpt lat="45.04597466778687" lon="9.57670079078035"><ele>61.8</ele><time>2026-04-07T08:37:30.001Z</time></trkpt><trkpt lat="45.04593165736428" lon="9.576562865537968"><ele>62.0</ele><time>2026-04-07T08:37:32.001Z</time></trkpt><trkpt lat="45.04588594342575" lon="9.576422554575569"><ele>62.0</ele><time>2026-04-07T08:37:34.001Z</time></trkpt><trkpt lat="45.04584492260092" lon="9.576293888030012"><ele>62.0</ele><time>2026-04-07T08:37:36.001Z</time></trkpt><trkpt lat="45.04580152388413" lon="9.576164707485198"><ele>62.0</ele><time>2026-04-07T08:37:38.001Z</time></trkpt><trkpt lat="45.04575322102191" lon="9.576038310439294"><ele>62.0</ele><time>2026-04-07T08:37:40.001Z</time></trkpt><trkpt lat="45.045701565764965" lon="9.575906760394426"><ele>62.0</ele><time>2026-04-07T08:37:42.001Z</time></trkpt><trkpt lat="45.04565858338408" lon="9.575767690143891"><ele>62.2</ele><time>2026-04-07T08:37:44.001Z</time></trkpt><trkpt lat="45.04561368115616" lon="9.575636089985661"><ele>62.400000000000006</ele><time>2026-04-07T08:37:46.001Z</time></trkpt><trkpt lat="45.04557223049447" lon="9.575500590551938"><ele>62.599999999999994</ele><time>2026-04-07T08:37:48.001Z</time></trkpt><trkpt lat="45.04552720318264" lon="9.57536255822591"><ele>62.8</ele><time>2026-04-07T08:37:50.001Z</time></trkpt><trkpt lat="45.04548232776395" lon="9.57522580792318"><ele>63.0</ele><time>2026-04-07T08:37:52.001Z</time></trkpt><trkpt lat="45.045436473677206" lon="9.575090433264393"><ele>63.2</ele><time>2026-04-07T08:37:54.001Z</time></trkpt><trkpt lat="45.04539384809298" lon="9.574954592026517"><ele>63.4</ele><time>2026-04-07T08:37:56.001Z</time></trkpt><trkpt lat="45.04535234084973" lon="9.57481021333591"><ele>63.60000000000001</ele><time>2026-04-07T08:37:58.001Z</time></trkpt><trkpt lat="45.04531162979649" lon="9.574684148850734"><ele>63.800000000000004</ele><time>2026-04-07T08:38:00.001Z</time></trkpt><trkpt lat="45.045265884236464" lon="9.574554295735123"><ele>64.0</ele><time>2026-04-07T08:38:02.001Z</time></trkpt><trkpt lat="45.04522107091335" lon="9.574416348520101"><ele>64.4</ele><time>2026-04-07T08:38:04.001Z</time></trkpt><trkpt lat="45.04518512227907" lon="9.57427900145794"><ele>64.80000000000001</ele><time>2026-04-07T08:38:06.001Z</time></trkpt><trkpt lat="45.04514677632855" lon="9.574147795122556"><ele>65.19999999999999</ele><time>2026-04-07T08:38:08.001Z</time></trkpt><trkpt lat="45.04510264182658" lon="9.57401593742848"><ele>65.6</ele><time>2026-04-07T08:38:10.001Z</time></trkpt><trkpt lat="45.04505785068326" lon="9.573886806483468"><ele>66.0</ele><time>2026-04-07T08:38:12.001Z</time></trkpt><trkpt lat="45.045014712353094" lon="9.573749444161246"><ele>65.6</ele><time>2026-04-07T08:38:14.001Z</time></trkpt><trkpt lat="45.0449679427593" lon="9.573613614836203"><ele>65.19999999999999</ele><time>2026-04-07T08:38:16.001Z</time></trkpt><trkpt lat="45.04492204368315" lon="9.573479043468678"><ele>64.80000000000001</ele><time>2026-04-07T08:38:18.001Z</time></trkpt><trkpt lat="45.04487895332985" lon="9.57334340971464"><ele>64.4</ele><time>2026-04-07T08:38:20.001Z</time></trkpt><trkpt lat="45.044836052792206" lon="9.573207827046406"><ele>64.0</ele><time>2026-04-07T08:38:22.001Z</time></trkpt><trkpt lat="45.044791155200585" lon="9.573074084025535"><ele>63.800000000000004</ele><time>2026-04-07T08:38:24.001Z</time></trkpt><trkpt lat="45.044748576202736" lon="9.572941444361993"><ele>63.60000000000001</ele><time>2026-04-07T08:38:26.001Z</time></trkpt><trkpt lat="45.04471422993003" lon="9.572803165060252"><ele>63.4</ele><time>2026-04-07T08:38:28.001Z</time></trkpt><trkpt lat="45.04469968484576" lon="9.572659211830784"><ele>63.2</ele><time>2026-04-07T08:38:30.001Z</time></trkpt><trkpt lat="45.04470793622642" lon="9.572512247109415"><ele>63.0</ele><time>2026-04-07T08:38:32.001Z</time></trkpt><trkpt lat="45.04472384109786" lon="9.57236915166966"><ele>63.0</ele><time>2026-04-07T08:38:34.001Z</time></trkpt><trkpt lat="45.04473947669077" lon="9.572223280240328"><ele>63.0</ele><time>2026-04-07T08:38:36.001Z</time></trkpt><trkpt lat="45.04475507362941" lon="9.572073619873812"><ele>63.0</ele><time>2026-04-07T08:38:38.001Z</time></trkpt><trkpt lat="45.04478304761977" lon="9.571925381362517"><ele>63.0</ele><time>2026-04-07T08:38:40.001Z</time></trkpt><trkpt lat="45.04479789556813" lon="9.571776830426346"><ele>63.0</ele><time>2026-04-07T08:38:42.001Z</time></trkpt><trkpt lat="45.04481009648889" lon="9.571625692921113"><ele>63.0</ele><time>2026-04-07T08:38:44.001Z</time></trkpt><trkpt lat="45.044817129092536" lon="9.571473331623288"><ele>63.0</ele><time>2026-04-07T08:38:46.001Z</time></trkpt><trkpt lat="45.044811808431" lon="9.571327598312108"><ele>63.0</ele><time>2026-04-07T08:38:48.001Z</time></trkpt><trkpt lat="45.044784028800215" lon="9.571184411974048"><ele>63.0</ele><time>2026-04-07T08:38:50.001Z</time></trkpt><trkpt lat="45.04471883694052" lon="9.571054092543697"><ele>63.0</ele><time>2026-04-07T08:38:52.001Z</time></trkpt><trkpt lat="45.04464762367947" lon="9.57093591345603"><ele>63.2</ele><time>2026-04-07T08:38:54.001Z</time></trkpt><trkpt lat="45.04457980627945" lon="9.570812581171424"><ele>63.4</ele><time>2026-04-07T08:38:56.001Z</time></trkpt><trkpt lat="45.04451076573104" lon="9.570685781038625"><ele>63.60000000000001</ele><time>2026-04-07T08:38:58.001Z</time></trkpt><trkpt lat="45.04445008405647" lon="9.570556970916877"><ele>63.800000000000004</ele><time>2026-04-07T08:39:00.001Z</time></trkpt><trkpt lat="45.04438210261718" lon="9.570437516037002"><ele>64.0</ele><time>2026-04-07T08:39:02.001Z</time></trkpt><trkpt lat="45.044317260821316" lon="9.57031496963332"><ele>64.0</ele><time>2026-04-07T08:39:04.001Z</time></trkpt><trkpt lat="45.04425082461882" lon="9.570186757225908"><ele>64.0</ele><time>2026-04-07T08:39:06.001Z</time></trkpt><trkpt lat="45.04418657491497" lon="9.57005960342961"><ele>64.0</ele><time>2026-04-07T08:39:08.001Z</time></trkpt><trkpt lat="45.04412066796554" lon="9.56993474053343"><ele>64.0</ele><time>2026-04-07T08:39:10.001Z</time></trkpt><trkpt lat="45.04406515644678" lon="9.569793883968886"><ele>64.0</ele><time>2026-04-07T08:39:12.001Z</time></trkpt><trkpt lat="45.04400196859626" lon="9.569664482318325"><ele>63.800000000000004</ele><time>2026-04-07T08:39:14.001Z</time></trkpt><trkpt lat="45.043940557235274" lon="9.569535983464025"><ele>63.60000000000001</ele><time>2026-04-07T08:39:16.001Z</time></trkpt><trkpt lat="45.04387023095474" lon="9.569427438874571"><ele>63.4</ele><time>2026-04-07T08:39:18.001Z</time></trkpt><trkpt lat="45.04381482581076" lon="9.569296641964694"><ele>63.2</ele><time>2026-04-07T08:39:20.001Z</time></trkpt><trkpt lat="45.043756808363945" lon="9.569176248725702"><ele>63.0</ele><time>2026-04-07T08:39:22.001Z</time></trkpt><trkpt lat="45.043698293946065" lon="9.569047743974092"><ele>63.0</ele><time>2026-04-07T08:39:24.001Z</time></trkpt><trkpt lat="45.04364321453524" lon="9.56892096953186"><ele>63.0</ele><time>2026-04-07T08:39:26.001Z</time></trkpt><trkpt lat="45.043581382930675" lon="9.568795318012638"><ele>63.0</ele><time>2026-04-07T08:39:28.001Z</time></trkpt><trkpt lat="45.04351772566913" lon="9.56867680627135"><ele>63.0</ele><time>2026-04-07T08:39:30.001Z</time></trkpt><trkpt lat="45.04345840272966" lon="9.568552115405836"><ele>63.0</ele><time>2026-04-07T08:39:32.001Z</time></trkpt><trkpt lat="45.04339902520791" lon="9.568434877812102"><ele>63.25</ele><time>2026-04-07T08:39:34.001Z</time></trkpt><trkpt lat="45.04333998764719" lon="9.568304211782566"><ele>63.5</ele><time>2026-04-07T08:39:36.001Z</time></trkpt><trkpt lat="45.043280914783914" lon="9.568189005234961"><ele>63.75</ele><time>2026-04-07T08:39:38.001Z</time></trkpt><trkpt lat="45.04323650626651" lon="9.568066994535357"><ele>64.0</ele><time>2026-04-07T08:39:40.001Z</time></trkpt><trkpt lat="45.0430883665611" lon="9.568143354931276"><ele>64.0</ele><time>2026-04-07T08:39:42.001Z</time></trkpt><trkpt lat="45.04299841353325" lon="9.568239541843047"><ele>64.0</ele><time>2026-04-07T08:39:44.001Z</time></trkpt><trkpt lat="45.04291305951857" lon="9.568336045247667"><ele>64.0</ele><time>2026-04-07T08:39:46.001Z</time></trkpt><trkpt lat="45.04282182395724" lon="9.568430081521452"><ele>64.0</ele><time>2026-04-07T08:39:48.001Z</time></trkpt><trkpt lat="45.042730933436815" lon="9.568532433386952"><ele>64.0</ele><time>2026-04-07T08:39:50.001Z</time></trkpt><trkpt lat="45.042640369744014" lon="9.568624869770932"><ele>64.0</ele><time>2026-04-07T08:39:52.001Z</time></trkpt><trkpt lat="45.04254498290794" lon="9.568714229987025"><ele>64.0</ele><time>2026-04-07T08:39:54.001Z</time></trkpt><trkpt lat="45.04245359712494" lon="9.568815841338973"><ele>64.0</ele><time>2026-04-07T08:39:56.001Z</time></trkpt><trkpt lat="45.04235792400914" lon="9.568908834491076"><ele>64.0</ele><time>2026-04-07T08:39:58.001Z</time></trkpt><trkpt lat="45.042262645179264" lon="9.5690074507325"><ele>64.0</ele><time>2026-04-07T08:40:00.001Z</time></trkpt><trkpt lat="45.042162716039385" lon="9.569104281604934"><ele>64.0</ele><time>2026-04-07T08:40:02.001Z</time></trkpt><trkpt lat="45.04207498044969" lon="9.569207087490499"><ele>64.0</ele><time>2026-04-07T08:40:04.001Z</time></trkpt><trkpt lat="45.041980237657626" lon="9.569300370337132"><ele>64.0</ele><time>2026-04-07T08:40:06.001Z</time></trkpt><trkpt lat="45.041888084951545" lon="9.569391221536584"><ele>64.0</ele><time>2026-04-07T08:40:08.001Z</time></trkpt><trkpt lat="45.04180285191892" lon="9.569488699995633"><ele>64.0</ele><time>2026-04-07T08:40:10.001Z</time></trkpt><trkpt lat="45.041715851739006" lon="9.56957842051595"><ele>64.0</ele><time>2026-04-07T08:40:12.001Z</time></trkpt><trkpt lat="45.041648970438594" lon="9.569661893365899"><ele>64.0</ele><time>2026-04-07T08:40:14.001Z</time></trkpt><trkpt lat="45.04156205106151" lon="9.569752481063935"><ele>64.4</ele><time>2026-04-07T08:40:16.001Z</time></trkpt><trkpt lat="45.04148183314324" lon="9.569841737171666"><ele>64.80000000000001</ele><time>2026-04-07T08:40:18.001Z</time></trkpt><trkpt lat="45.04139866670459" lon="9.569938314390232"><ele>65.19999999999999</ele><time>2026-04-07T08:40:20.001Z</time></trkpt><trkpt lat="45.041311920102515" lon="9.570029530412349"><ele>65.6</ele><time>2026-04-07T08:40:22.001Z</time></trkpt><trkpt lat="45.04123086842421" lon="9.57012038088159"><ele>66.0</ele><time>2026-04-07T08:40:24.001Z</time></trkpt><trkpt lat="45.041148503570334" lon="9.5702073685576"><ele>66.0</ele><time>2026-04-07T08:40:26.001Z</time></trkpt><trkpt lat="45.04106587121442" lon="9.57029763971079"><ele>66.0</ele><time>2026-04-07T08:40:28.001Z</time></trkpt><trkpt lat="45.04098408087383" lon="9.570391072126908"><ele>66.0</ele><time>2026-04-07T08:40:30.001Z</time></trkpt><trkpt lat="45.04090129911196" lon="9.570482106167727"><ele>66.0</ele><time>2026-04-07T08:40:32.001Z</time></trkpt><trkpt lat="45.04082305684301" lon="9.570580190425662"><ele>66.0</ele><time>2026-04-07T08:40:34.001Z</time></trkpt><trkpt lat="45.04074319106077" lon="9.570671308854765"><ele>65.8</ele><time>2026-04-07T08:40:36.001Z</time></trkpt><trkpt lat="45.040658183543094" lon="9.570755646533787"><ele>65.6</ele><time>2026-04-07T08:40:38.001Z</time></trkpt><trkpt lat="45.04058091976356" lon="9.570852847549931"><ele>65.4</ele><time>2026-04-07T08:40:40.001Z</time></trkpt><trkpt lat="45.040501641909664" lon="9.570936154777732"><ele>65.2</ele><time>2026-04-07T08:40:42.001Z</time></trkpt><trkpt lat="45.040418832371266" lon="9.571025071367696"><ele>65.0</ele><time>2026-04-07T08:40:44.001Z</time></trkpt><trkpt lat="45.040330111000294" lon="9.571117235205826"><ele>64.6</ele><time>2026-04-07T08:40:46.001Z</time></trkpt><trkpt lat="45.04024509612145" lon="9.57121277223299"><ele>64.2</ele><time>2026-04-07T08:40:48.001Z</time></trkpt><trkpt lat="45.04016380319963" lon="9.571314642209526"><ele>63.8</ele><time>2026-04-07T08:40:50.001Z</time></trkpt><trkpt lat="45.04007393968796" lon="9.571410496876611"><ele>63.4</ele><time>2026-04-07T08:40:52.001Z</time></trkpt><trkpt lat="45.03998592457822" lon="9.571509523175987"><ele>63.0</ele><time>2026-04-07T08:40:54.001Z</time></trkpt><trkpt lat="45.03990151913844" lon="9.571601355954892"><ele>62.8</ele><time>2026-04-07T08:40:56.001Z</time></trkpt><trkpt lat="45.039813100340226" lon="9.571698657773677"><ele>62.599999999999994</ele><time>2026-04-07T08:40:58.001Z</time></trkpt><trkpt lat="45.03973273116514" lon="9.571795352494764"><ele>62.400000000000006</ele><time>2026-04-07T08:41:00.001Z</time></trkpt><trkpt lat="45.039648738345136" lon="9.57189192802628"><ele>62.2</ele><time>2026-04-07T08:41:02.001Z</time></trkpt><trkpt lat="45.03956247007081" lon="9.571990444529447"><ele>62.0</ele><time>2026-04-07T08:41:04.001Z</time></trkpt><trkpt lat="45.03947861798204" lon="9.572080781421935"><ele>62.400000000000006</ele><time>2026-04-07T08:41:06.001Z</time></trkpt><trkpt lat="45.03939615137345" lon="9.572172745178365"><ele>62.800000000000004</ele><time>2026-04-07T08:41:08.001Z</time></trkpt><trkpt lat="45.03931344501914" lon="9.57226647336423"><ele>63.2</ele><time>2026-04-07T08:41:10.001Z</time></trkpt><trkpt lat="45.03922204062165" lon="9.572359328474764"><ele>63.6</ele><time>2026-04-07T08:41:12.001Z</time></trkpt><trkpt lat="45.039138809561614" lon="9.572452121923103"><ele>64.0</ele><time>2026-04-07T08:41:14.001Z</time></trkpt><trkpt lat="45.039063749483596" lon="9.572553347965776"><ele>64.2</ele><time>2026-04-07T08:41:16.001Z</time></trkpt><trkpt lat="45.03897847336479" lon="9.572632461649023"><ele>64.4</ele><time>2026-04-07T08:41:18.001Z</time></trkpt><trkpt lat="45.038895600704116" lon="9.572725967019885"><ele>64.6</ele><time>2026-04-07T08:41:20.001Z</time></trkpt><trkpt lat="45.038812349467754" lon="9.572835427829428"><ele>64.8</ele><time>2026-04-07T08:41:22.001Z</time></trkpt><trkpt lat="45.03872107088035" lon="9.572931500599617"><ele>65.0</ele><time>2026-04-07T08:41:24.001Z</time></trkpt><trkpt lat="45.0386365960574" lon="9.573030107916622"><ele>65.0</ele><time>2026-04-07T08:41:26.001Z</time></trkpt><trkpt lat="45.03855366817228" lon="9.57312367524976"><ele>65.0</ele><time>2026-04-07T08:41:28.001Z</time></trkpt><trkpt lat="45.03846936938798" lon="9.573211942090895"><ele>65.0</ele><time>2026-04-07T08:41:30.001Z</time></trkpt><trkpt lat="45.038390094367436" lon="9.57331122146354"><ele>65.0</ele><time>2026-04-07T08:41:32.001Z</time></trkpt><trkpt lat="45.038304707450926" lon="9.573398794428957"><ele>65.0</ele><time>2026-04-07T08:41:34.001Z</time></trkpt><trkpt lat="45.038216687541244" lon="9.57349706496611"><ele>65.4</ele><time>2026-04-07T08:41:36.001Z</time></trkpt><trkpt lat="45.03813600977088" lon="9.57358729085691"><ele>65.8</ele><time>2026-04-07T08:41:38.001Z</time></trkpt><trkpt lat="45.03805261016987" lon="9.573683667452578"><ele>66.2</ele><time>2026-04-07T08:41:40.001Z</time></trkpt><trkpt lat="45.03796837614389" lon="9.57376817135282"><ele>66.6</ele><time>2026-04-07T08:41:42.001Z</time></trkpt><trkpt lat="45.03787589826939" lon="9.573861448330813"><ele>67.0</ele><time>2026-04-07T08:41:44.001Z</time></trkpt><trkpt lat="45.03780545589043" lon="9.573956823075214"><ele>67.2</ele><time>2026-04-07T08:41:46.001Z</time></trkpt><trkpt lat="45.03772107032855" lon="9.574052837993294"><ele>67.4</ele><time>2026-04-07T08:41:48.001Z</time></trkpt><trkpt lat="45.03763517862247" lon="9.574149438605463"><ele>67.6</ele><time>2026-04-07T08:41:50.002Z</time></trkpt><trkpt lat="45.03755212213993" lon="9.574247521454582"><ele>67.8</ele><time>2026-04-07T08:41:52.002Z</time></trkpt><trkpt lat="45.037468136034065" lon="9.57434203713116"><ele>68.0</ele><time>2026-04-07T08:41:54.002Z</time></trkpt><trkpt lat="45.03738954081374" lon="9.574429731534465"><ele>68.2</ele><time>2026-04-07T08:41:56.002Z</time></trkpt><trkpt lat="45.037306438517945" lon="9.574521477000767"><ele>68.4</ele><time>2026-04-07T08:41:58.002Z</time></trkpt><trkpt lat="45.03721858773797" lon="9.574616545603632"><ele>68.60000000000001</ele><time>2026-04-07T08:42:00.002Z</time></trkpt><trkpt lat="45.03713781125947" lon="9.57471225853621"><ele>68.8</ele><time>2026-04-07T08:42:02.002Z</time></trkpt><trkpt lat="45.03705096469681" lon="9.574804303277954"><ele>69.0</ele><time>2026-04-07T08:42:04.002Z</time></trkpt><trkpt lat="45.036965016939746" lon="9.574904991459379"><ele>69.0</ele><time>2026-04-07T08:42:06.002Z</time></trkpt><trkpt lat="45.036881253012034" lon="9.575002012860343"><ele>69.0</ele><time>2026-04-07T08:42:08.002Z</time></trkpt><trkpt lat="45.03679574212555" lon="9.575088227829568"><ele>69.0</ele><time>2026-04-07T08:42:10.002Z</time></trkpt><trkpt lat="45.03671209801771" lon="9.575198160125458"><ele>69.0</ele><time>2026-04-07T08:42:12.002Z</time></trkpt><trkpt lat="45.036628086933526" lon="9.575280385098488"><ele>69.0</ele><time>2026-04-07T08:42:14.002Z</time></trkpt><trkpt lat="45.03654543973539" lon="9.575367815566421"><ele>69.66666666666667</ele><time>2026-04-07T08:42:16.002Z</time></trkpt><trkpt lat="45.03649016422164" lon="9.575418586806979"><ele>70.33333333333333</ele><time>2026-04-07T08:42:17.002Z</time></trkpt><trkpt lat="45.03641639944886" lon="9.575499524990727"><ele>71.0</ele><time>2026-04-07T08:42:19.002Z</time></trkpt><trkpt lat="45.03634605106471" lon="9.575588226517413"><ele>71.66666666666666</ele><time>2026-04-07T08:42:21.002Z</time></trkpt><trkpt lat="45.03624677984356" lon="9.575670759276704"><ele>72.33333333333333</ele><time>2026-04-07T08:42:23.002Z</time></trkpt><trkpt lat="45.036189904972154" lon="9.575712355289616"><ele>73.0</ele><time>2026-04-07T08:42:24.002Z</time></trkpt><trkpt lat="45.036107618416516" lon="9.575776281469441"><ele>73.0</ele><time>2026-04-07T08:42:26.002Z</time></trkpt><trkpt lat="45.03603452997339" lon="9.575832472792314"><ele>73.0</ele><time>2026-04-07T08:42:28.002Z</time></trkpt><trkpt lat="45.03597798117332" lon="9.575877049358013"><ele>73.0</ele><time>2026-04-07T08:42:29.002Z</time></trkpt><trkpt lat="45.03588206196448" lon="9.575948443330727"><ele>73.0</ele><time>2026-04-07T08:42:31.002Z</time></trkpt><trkpt lat="45.035819181388064" lon="9.575995248730198"><ele>73.0</ele><time>2026-04-07T08:42:32.002Z</time></trkpt><trkpt lat="45.035757422007556" lon="9.57603513701308"><ele>73.0</ele><time>2026-04-07T08:42:33.002Z</time></trkpt><trkpt lat="45.035658097823024" lon="9.576101420637194"><ele>72.4</ele><time>2026-04-07T08:42:35.002Z</time></trkpt><trkpt lat="45.03554958276648" lon="9.576170073565384"><ele>71.8</ele><time>2026-04-07T08:42:37.002Z</time></trkpt><trkpt lat="45.03544123979712" lon="9.576230794786557"><ele>71.2</ele><time>2026-04-07T08:42:39.002Z</time></trkpt><trkpt lat="45.0353398274835" lon="9.576284378899365"><ele>70.6</ele><time>2026-04-07T08:42:41.002Z</time></trkpt><trkpt lat="45.03524951003197" lon="9.576224896627657"><ele>70.0</ele><time>2026-04-07T08:42:42.002Z</time></trkpt><trkpt lat="45.03513856321072" lon="9.576262110792415"><ele>70.0</ele><time>2026-04-07T08:42:44.002Z</time></trkpt><trkpt lat="45.035078305278425" lon="9.576305426009213"><ele>70.0</ele><time>2026-04-07T08:42:45.002Z</time></trkpt><trkpt lat="45.03497807794654" lon="9.576425995464854"><ele>70.0</ele><time>2026-04-07T08:42:47.002Z</time></trkpt><trkpt lat="45.03487861395292" lon="9.576465301319375"><ele>70.0</ele><time>2026-04-07T08:42:49.002Z</time></trkpt><trkpt lat="45.03476697848017" lon="9.576509416955691"><ele>70.0</ele><time>2026-04-07T08:42:51.002Z</time></trkpt><trkpt lat="45.03470301144321" lon="9.57653467686481"><ele>70.5</ele><time>2026-04-07T08:42:52.002Z</time></trkpt><trkpt lat="45.0345842943561" lon="9.576580832000754"><ele>71.0</ele><time>2026-04-07T08:42:54.002Z</time></trkpt><trkpt lat="45.03446988383307" lon="9.576615314087743"><ele>71.5</ele><time>2026-04-07T08:42:56.002Z</time></trkpt><trkpt lat="45.03434735363008" lon="9.576651092229756"><ele>72.0</ele><time>2026-04-07T08:42:58.002Z</time></trkpt><trkpt lat="45.034237724766236" lon="9.57671489254434"><ele>71.6</ele><time>2026-04-07T08:43:00.002Z</time></trkpt><trkpt lat="45.03412558937393" lon="9.576770610144356"><ele>71.2</ele><time>2026-04-07T08:43:02.002Z</time></trkpt><trkpt lat="45.03400917827921" lon="9.576810401436687"><ele>70.8</ele><time>2026-04-07T08:43:04.002Z</time></trkpt><trkpt lat="45.03389466052027" lon="9.57685853973561"><ele>70.4</ele><time>2026-04-07T08:43:06.002Z</time></trkpt><trkpt lat="45.03383108087961" lon="9.576876343796807"><ele>70.0</ele><time>2026-04-07T08:43:07.002Z</time></trkpt><trkpt lat="45.03371715561422" lon="9.57692393186973"><ele>70.0</ele><time>2026-04-07T08:43:09.002Z</time></trkpt><trkpt lat="45.03360365862823" lon="9.576969545270693"><ele>70.0</ele><time>2026-04-07T08:43:11.002Z</time></trkpt><trkpt lat="45.03348859935818" lon="9.577004437315455"><ele>70.0</ele><time>2026-04-07T08:43:13.002Z</time></trkpt><trkpt lat="45.03337365782069" lon="9.577053019547492"><ele>70.0</ele><time>2026-04-07T08:43:15.002Z</time></trkpt><trkpt lat="45.03326070490465" lon="9.577094324273622"><ele>70.0</ele><time>2026-04-07T08:43:17.002Z</time></trkpt><trkpt lat="45.033146780894064" lon="9.577135711428811"><ele>70.0</ele><time>2026-04-07T08:43:19.002Z</time></trkpt><trkpt lat="45.033039562754745" lon="9.577183166949078"><ele>70.0</ele><time>2026-04-07T08:43:21.002Z</time></trkpt><trkpt lat="45.032924957839626" lon="9.577230714182454"><ele>70.0</ele><time>2026-04-07T08:43:23.002Z</time></trkpt><trkpt lat="45.03280509974585" lon="9.577278890375212"><ele>70.0</ele><time>2026-04-07T08:43:25.002Z</time></trkpt><trkpt lat="45.03271350442001" lon="9.577325389270475"><ele>70.0</ele><time>2026-04-07T08:43:27.002Z</time></trkpt><trkpt lat="45.032603615352784" lon="9.577372281260642"><ele>70.0</ele><time>2026-04-07T08:43:29.002Z</time></trkpt><trkpt lat="45.03251031880087" lon="9.5774414640452"><ele>70.0</ele><time>2026-04-07T08:43:31.002Z</time></trkpt><trkpt lat="45.03242044488598" lon="9.577457769001589"><ele>70.0</ele><time>2026-04-07T08:43:33.002Z</time></trkpt><trkpt lat="45.03234650290884" lon="9.577486331880548"><ele>70.0</ele><time>2026-04-07T08:43:35.002Z</time></trkpt><trkpt lat="45.03226502801814" lon="9.57751780459351"><ele>70.0</ele><time>2026-04-07T08:43:37.002Z</time></trkpt><trkpt lat="45.03214510856512" lon="9.577911822513467"><ele>70.0</ele><time>2026-04-07T08:43:40.002Z</time></trkpt><trkpt lat="45.03216428775979" lon="9.578017240399541"><ele>70.0</ele><time>2026-04-07T08:43:42.002Z</time></trkpt><trkpt lat="45.03218715498473" lon="9.578139908290094"><ele>70.0</ele><time>2026-04-07T08:43:45.002Z</time></trkpt><trkpt lat="45.03220367406966" lon="9.578226422790015"><ele>70.0</ele><time>2026-04-07T08:43:48.002Z</time></trkpt><trkpt lat="45.03224675643683" lon="9.578301093042565"><ele>70.0</ele><time>2026-04-07T08:44:02.002Z</time></trkpt><trkpt lat="45.03220128225452" lon="9.578365191380746"><ele>70.0</ele><time>2026-04-07T08:44:04.002Z</time></trkpt><trkpt lat="45.03218271349149" lon="9.578496922553548"><ele>70.0</ele><time>2026-04-07T08:44:06.002Z</time></trkpt><trkpt lat="45.03220058354486" lon="9.578633108135813"><ele>69.4</ele><time>2026-04-07T08:44:08.002Z</time></trkpt><trkpt lat="45.032229788604404" lon="9.57876773028893"><ele>68.8</ele><time>2026-04-07T08:44:10.002Z</time></trkpt><trkpt lat="45.03226141209051" lon="9.578904022146476"><ele>68.2</ele><time>2026-04-07T08:44:12.002Z</time></trkpt><trkpt lat="45.032284718154116" lon="9.579051739138345"><ele>67.6</ele><time>2026-04-07T08:44:14.002Z</time></trkpt><trkpt lat="45.032314944755996" lon="9.579201685260982"><ele>67.0</ele><time>2026-04-07T08:44:16.002Z</time></trkpt><trkpt lat="45.03234569562688" lon="9.579355744069558"><ele>67.0</ele><time>2026-04-07T08:44:18.002Z</time></trkpt><trkpt lat="45.032378198149026" lon="9.579509726836426"><ele>67.0</ele><time>2026-04-07T08:44:20.002Z</time></trkpt><trkpt lat="45.03241158272057" lon="9.579669328958587"><ele>67.0</ele><time>2026-04-07T08:44:22.002Z</time></trkpt><trkpt lat="45.03245612337015" lon="9.579827042364457"><ele>67.0</ele><time>2026-04-07T08:44:24.002Z</time></trkpt><trkpt lat="45.03252914932407" lon="9.57997031476345"><ele>67.0</ele><time>2026-04-07T08:44:26.002Z</time></trkpt><trkpt lat="45.03256315790869" lon="9.58012723866358"><ele>67.0</ele><time>2026-04-07T08:44:28.002Z</time></trkpt><trkpt lat="45.032596928051774" lon="9.580282137346803"><ele>67.0</ele><time>2026-04-07T08:44:30.002Z</time></trkpt><trkpt lat="45.03262135198372" lon="9.58043892339561"><ele>67.0</ele><time>2026-04-07T08:44:32.002Z</time></trkpt><trkpt lat="45.03265808834678" lon="9.580591879519199"><ele>67.0</ele><time>2026-04-07T08:44:34.002Z</time></trkpt><trkpt lat="45.032691673490504" lon="9.580740693623573"><ele>67.0</ele><time>2026-04-07T08:44:36.002Z</time></trkpt><trkpt lat="45.03272019809367" lon="9.580894594505839"><ele>67.0</ele><time>2026-04-07T08:44:38.002Z</time></trkpt><trkpt lat="45.032753404832384" lon="9.58105313176053"><ele>67.0</ele><time>2026-04-07T08:44:40.002Z</time></trkpt><trkpt lat="45.03278759812078" lon="9.58121881615692"><ele>67.25</ele><time>2026-04-07T08:44:42.002Z</time></trkpt><trkpt lat="45.0328344859864" lon="9.581380778193871"><ele>67.5</ele><time>2026-04-07T08:44:44.002Z</time></trkpt><trkpt lat="45.032866352688835" lon="9.581546176900245"><ele>67.75</ele><time>2026-04-07T08:44:46.002Z</time></trkpt><trkpt lat="45.03290218448832" lon="9.581708405706268"><ele>68.0</ele><time>2026-04-07T08:44:48.002Z</time></trkpt><trkpt lat="45.03293904234481" lon="9.58187048069951"><ele>68.0</ele><time>2026-04-07T08:44:50.002Z</time></trkpt><trkpt lat="45.03297496696326" lon="9.582030277147265"><ele>68.0</ele><time>2026-04-07T08:44:52.002Z</time></trkpt><trkpt lat="45.03301247540115" lon="9.582193896394822"><ele>68.0</ele><time>2026-04-07T08:44:54.002Z</time></trkpt><trkpt lat="45.03304661897297" lon="9.582358888810717"><ele>68.0</ele><time>2026-04-07T08:44:56.002Z</time></trkpt><trkpt lat="45.03307551397636" lon="9.582527441492001"><ele>68.0</ele><time>2026-04-07T08:44:58.002Z</time></trkpt><trkpt lat="45.03312079262244" lon="9.582689178395082"><ele>68.0</ele><time>2026-04-07T08:45:00.002Z</time></trkpt><trkpt lat="45.03315550376129" lon="9.582855311083227"><ele>68.0</ele><time>2026-04-07T08:45:02.002Z</time></trkpt><trkpt lat="45.033189481859424" lon="9.583017935342317"><ele>68.0</ele><time>2026-04-07T08:45:04.002Z</time></trkpt><trkpt lat="45.03322135859028" lon="9.583170502120756"><ele>68.0</ele><time>2026-04-07T08:45:06.002Z</time></trkpt><trkpt lat="45.033251255697856" lon="9.583313594150994"><ele>68.0</ele><time>2026-04-07T08:45:08.002Z</time></trkpt><trkpt lat="45.033279904111254" lon="9.583450709746757"><ele>68.0</ele><time>2026-04-07T08:45:10.002Z</time></trkpt><trkpt lat="45.03330619940124" lon="9.583576562953882"><ele>68.0</ele><time>2026-04-07T08:45:12.002Z</time></trkpt><trkpt lat="45.03332956199519" lon="9.583688379789214"><ele>68.0</ele><time>2026-04-07T08:45:14.002Z</time></trkpt><trkpt lat="45.03335285411012" lon="9.583799859369757"><ele>68.0</ele><time>2026-04-07T08:45:16.002Z</time></trkpt><trkpt lat="45.033191297296916" lon="9.583948713210209"><ele>68.0</ele><time>2026-04-07T08:45:17.002Z</time></trkpt><trkpt lat="45.03322126990269" lon="9.584109260354255"><ele>68.0</ele><time>2026-04-07T08:45:19.002Z</time></trkpt><trkpt lat="45.03328829362883" lon="9.584244030964442"><ele>68.0</ele><time>2026-04-07T08:45:21.002Z</time></trkpt><trkpt lat="45.033358227722026" lon="9.584375447577807"><ele>68.25</ele><time>2026-04-07T08:45:23.002Z</time></trkpt><trkpt lat="45.03339977271242" lon="9.584529453473055"><ele>68.5</ele><time>2026-04-07T08:45:25.002Z</time></trkpt><trkpt lat="45.033433695884014" lon="9.584687826016388"><ele>68.75</ele><time>2026-04-07T08:45:27.002Z</time></trkpt><trkpt lat="45.03347531261888" lon="9.584830324506479"><ele>69.0</ele><time>2026-04-07T08:45:29.002Z</time></trkpt><trkpt lat="45.03352151328351" lon="9.58497281080607"><ele>69.0</ele><time>2026-04-07T08:45:31.002Z</time></trkpt><trkpt lat="45.03356784695941" lon="9.585123803835003"><ele>69.0</ele><time>2026-04-07T08:45:33.002Z</time></trkpt><trkpt lat="45.03360903124257" lon="9.585285757927117"><ele>69.0</ele><time>2026-04-07T08:45:35.002Z</time></trkpt><trkpt lat="45.0336593659608" lon="9.585439838727469"><ele>69.0</ele><time>2026-04-07T08:45:37.002Z</time></trkpt><trkpt lat="45.03377274713495" lon="9.58544858996139"><ele>68.8</ele><time>2026-04-07T08:45:38.002Z</time></trkpt><trkpt lat="45.03382913914312" lon="9.585596360073735"><ele>68.60000000000001</ele><time>2026-04-07T08:45:40.002Z</time></trkpt><trkpt lat="45.03386186901275" lon="9.585675718786181"><ele>68.4</ele><time>2026-04-07T08:45:41.002Z</time></trkpt><trkpt lat="45.03392498236413" lon="9.585824416560461"><ele>68.2</ele><time>2026-04-07T08:45:43.002Z</time></trkpt><trkpt lat="45.03398880121198" lon="9.585967328903523"><ele>68.0</ele><time>2026-04-07T08:45:45.002Z</time></trkpt><trkpt lat="45.034053408389774" lon="9.586107214503237"><ele>67.8</ele><time>2026-04-07T08:45:47.002Z</time></trkpt><trkpt lat="45.03412019090395" lon="9.586250760871641"><ele>67.6</ele><time>2026-04-07T08:45:49.002Z</time></trkpt><trkpt lat="45.03418742546265" lon="9.58639447085854"><ele>67.4</ele><time>2026-04-07T08:45:51.002Z</time></trkpt><trkpt lat="45.03425634233187" lon="9.586541592195749"><ele>67.2</ele><time>2026-04-07T08:45:53.002Z</time></trkpt><trkpt lat="45.03429214220534" lon="9.58661801651229"><ele>67.0</ele><time>2026-04-07T08:45:54.002Z</time></trkpt><trkpt lat="45.03436083455928" lon="9.58676305016589"><ele>67.0</ele><time>2026-04-07T08:45:56.002Z</time></trkpt><trkpt lat="45.03445054698593" lon="9.586926912083054"><ele>67.0</ele><time>2026-04-07T08:45:58.002Z</time></trkpt><trkpt lat="45.034499426220925" lon="9.58708835812111"><ele>67.0</ele><time>2026-04-07T08:46:00.002Z</time></trkpt><trkpt lat="45.0345302800359" lon="9.587200939088866"><ele>67.0</ele><time>2026-04-07T08:46:01.002Z</time></trkpt><trkpt lat="45.03453000985428" lon="9.587427114245624"><ele>67.25</ele><time>2026-04-07T08:46:02.002Z</time></trkpt><trkpt lat="45.03450195747162" lon="9.587583932167092"><ele>67.5</ele><time>2026-04-07T08:46:04.002Z</time></trkpt><trkpt lat="45.03450411221069" lon="9.587702561334885"><ele>67.75</ele><time>2026-04-07T08:46:06.002Z</time></trkpt><trkpt lat="45.03437445959954" lon="9.58798832956978"><ele>68.0</ele><time>2026-04-07T08:46:08.002Z</time></trkpt><trkpt lat="45.03434552238299" lon="9.588070063368676"><ele>68.0</ele><time>2026-04-07T08:46:09.002Z</time></trkpt><trkpt lat="45.034204138197076" lon="9.58816682299914"><ele>68.0</ele><time>2026-04-07T08:46:10.002Z</time></trkpt><trkpt lat="45.03415050616572" lon="9.58821572791393"><ele>68.0</ele><time>2026-04-07T08:46:11.002Z</time></trkpt><trkpt lat="45.034045716093914" lon="9.588313040272608"><ele>68.0</ele><time>2026-04-07T08:46:13.002Z</time></trkpt><trkpt lat="45.03399055170088" lon="9.588365842342567"><ele>68.0</ele><time>2026-04-07T08:46:14.002Z</time></trkpt><trkpt lat="45.03388386912184" lon="9.588471189854051"><ele>67.83333333333334</ele><time>2026-04-07T08:46:16.002Z</time></trkpt><trkpt lat="45.033828694240654" lon="9.588526429081261"><ele>67.66666666666667</ele><time>2026-04-07T08:46:17.002Z</time></trkpt><trkpt lat="45.033777373305284" lon="9.588578190292965"><ele>67.5</ele><time>2026-04-07T08:46:18.002Z</time></trkpt><trkpt lat="45.033723729875625" lon="9.58863464033091"><ele>67.33333333333333</ele><time>2026-04-07T08:46:19.002Z</time></trkpt><trkpt lat="45.03362494373117" lon="9.588740991501982"><ele>67.16666666666666</ele><time>2026-04-07T08:46:21.002Z</time></trkpt><trkpt lat="45.03357373469852" lon="9.588797836003158"><ele>67.0</ele><time>2026-04-07T08:46:22.002Z</time></trkpt><trkpt lat="45.033522997858796" lon="9.588856233161838"><ele>67.0</ele><time>2026-04-07T08:46:23.002Z</time></trkpt><trkpt lat="45.0334707284275" lon="9.588916539900538"><ele>67.0</ele><time>2026-04-07T08:46:24.002Z</time></trkpt><trkpt lat="45.033419597586075" lon="9.588977896848737"><ele>67.0</ele><time>2026-04-07T08:46:25.002Z</time></trkpt><trkpt lat="45.03336955633659" lon="9.589038089962399"><ele>67.0</ele><time>2026-04-07T08:46:26.002Z</time></trkpt><trkpt lat="45.033321600024294" lon="9.58909742573608"><ele>67.0</ele><time>2026-04-07T08:46:27.002Z</time></trkpt><trkpt lat="45.03327235998845" lon="9.589158349837724"><ele>67.0</ele><time>2026-04-07T08:46:28.002Z</time></trkpt><trkpt lat="45.03322447445465" lon="9.589219833607041"><ele>67.0</ele><time>2026-04-07T08:46:29.002Z</time></trkpt><trkpt lat="45.033133971247594" lon="9.589338219832152"><ele>67.0</ele><time>2026-04-07T08:46:31.002Z</time></trkpt><trkpt lat="45.03304769377268" lon="9.589458923742397"><ele>67.0</ele><time>2026-04-07T08:46:33.002Z</time></trkpt><trkpt lat="45.03296896301375" lon="9.589573129775285"><ele>67.0</ele><time>2026-04-07T08:46:35.002Z</time></trkpt><trkpt lat="45.032886085685064" lon="9.589695552509799"><ele>67.0</ele><time>2026-04-07T08:46:37.002Z</time></trkpt><trkpt lat="45.03280342004514" lon="9.58982177021912"><ele>67.2</ele><time>2026-04-07T08:46:39.002Z</time></trkpt><trkpt lat="45.032722849679246" lon="9.589953370494273"><ele>67.4</ele><time>2026-04-07T08:46:41.002Z</time></trkpt><trkpt lat="45.032646252116386" lon="9.590082831485793"><ele>67.6</ele><time>2026-04-07T08:46:43.002Z</time></trkpt><trkpt lat="45.03260547863307" lon="9.590152787442554"><ele>67.8</ele><time>2026-04-07T08:46:44.002Z</time></trkpt><trkpt lat="45.03252891683177" lon="9.59029112100147"><ele>68.0</ele><time>2026-04-07T08:46:46.002Z</time></trkpt><trkpt lat="45.03245779660368" lon="9.590424609941532"><ele>68.0</ele><time>2026-04-07T08:46:48.002Z</time></trkpt><trkpt lat="45.032389626791414" lon="9.590556605874228"><ele>68.0</ele><time>2026-04-07T08:46:50.002Z</time></trkpt><trkpt lat="45.03232724176668" lon="9.590683855259925"><ele>68.0</ele><time>2026-04-07T08:46:52.002Z</time></trkpt><trkpt lat="45.032262002730675" lon="9.590820286726332"><ele>68.0</ele><time>2026-04-07T08:46:54.002Z</time></trkpt><trkpt lat="45.03219587548869" lon="9.590966693123265"><ele>68.0</ele><time>2026-04-07T08:46:56.002Z</time></trkpt><trkpt lat="45.03213322779489" lon="9.59110946240251"><ele>68.0</ele><time>2026-04-07T08:46:58.002Z</time></trkpt><trkpt lat="45.03207418513458" lon="9.59125161526396"><ele>68.0</ele><time>2026-04-07T08:47:00.002Z</time></trkpt><trkpt lat="45.032018613032086" lon="9.591392504700599"><ele>68.0</ele><time>2026-04-07T08:47:02.002Z</time></trkpt><trkpt lat="45.03196436817906" lon="9.591534078028133"><ele>67.75</ele><time>2026-04-07T08:47:04.002Z</time></trkpt><trkpt lat="45.03191054714349" lon="9.59168410832145"><ele>67.5</ele><time>2026-04-07T08:47:06.002Z</time></trkpt><trkpt lat="45.03186005045109" lon="9.591831953844626"><ele>67.25</ele><time>2026-04-07T08:47:08.002Z</time></trkpt><trkpt lat="45.031810814580524" lon="9.591980438316696"><ele>67.0</ele><time>2026-04-07T08:47:10.002Z</time></trkpt><trkpt lat="45.03176445118399" lon="9.592125246583556"><ele>67.0</ele><time>2026-04-07T08:47:12.002Z</time></trkpt><trkpt lat="45.03172025120673" lon="9.592274792784375"><ele>67.0</ele><time>2026-04-07T08:47:14.002Z</time></trkpt><trkpt lat="45.031679166337014" lon="9.592426695693511"><ele>67.0</ele><time>2026-04-07T08:47:16.002Z</time></trkpt><trkpt lat="45.03163795058996" lon="9.592582368621326"><ele>67.0</ele><time>2026-04-07T08:47:18.002Z</time></trkpt><trkpt lat="45.03159760498689" lon="9.59274128762404"><ele>67.0</ele><time>2026-04-07T08:47:20.002Z</time></trkpt><trkpt lat="45.03156825602194" lon="9.59286585883644"><ele>67.0</ele><time>2026-04-07T08:47:22.002Z</time></trkpt><trkpt lat="45.031534396753365" lon="9.593012907261306"><ele>67.0</ele><time>2026-04-07T08:47:24.002Z</time></trkpt><trkpt lat="45.0315014542153" lon="9.593172240034274"><ele>67.0</ele><time>2026-04-07T08:47:26.002Z</time></trkpt><trkpt lat="45.03147179195236" lon="9.593320952861841"><ele>67.0</ele><time>2026-04-07T08:47:28.002Z</time></trkpt><trkpt lat="45.031444111596215" lon="9.5934852582614"><ele>67.0</ele><time>2026-04-07T08:47:30.002Z</time></trkpt><trkpt lat="45.031429354021" lon="9.593572855920595"><ele>67.0</ele><time>2026-04-07T08:47:31.002Z</time></trkpt><trkpt lat="45.03140429082717" lon="9.593734009576433"><ele>67.0</ele><time>2026-04-07T08:47:33.002Z</time></trkpt><trkpt lat="45.03137989364514" lon="9.593900792090919"><ele>67.0</ele><time>2026-04-07T08:47:35.002Z</time></trkpt><trkpt lat="45.03135843869237" lon="9.594060274079904"><ele>67.0</ele><time>2026-04-07T08:47:37.002Z</time></trkpt><trkpt lat="45.03133960851302" lon="9.594226561146407"><ele>67.0</ele><time>2026-04-07T08:47:39.002Z</time></trkpt><trkpt lat="45.031323140295655" lon="9.594393407213067"><ele>67.0</ele><time>2026-04-07T08:47:41.002Z</time></trkpt><trkpt lat="45.031309150575105" lon="9.594559188767684"><ele>67.0</ele><time>2026-04-07T08:47:43.002Z</time></trkpt><trkpt lat="45.03129719890456" lon="9.594725683602563"><ele>67.0</ele><time>2026-04-07T08:47:45.002Z</time></trkpt><trkpt lat="45.03128602652146" lon="9.594899900746189"><ele>67.2</ele><time>2026-04-07T08:47:47.002Z</time></trkpt><trkpt lat="45.03127833015347" lon="9.595068516470267"><ele>67.4</ele><time>2026-04-07T08:47:49.002Z</time></trkpt><trkpt lat="45.031272105437296" lon="9.595242153458537"><ele>67.6</ele><time>2026-04-07T08:47:51.002Z</time></trkpt><trkpt lat="45.03126840246585" lon="9.595407512024968"><ele>67.8</ele><time>2026-04-07T08:47:53.002Z</time></trkpt><trkpt lat="45.03126646863116" lon="9.595498062758532"><ele>68.0</ele><time>2026-04-07T08:47:54.002Z</time></trkpt><trkpt lat="45.031264030335876" lon="9.59567909473189"><ele>68.0</ele><time>2026-04-07T08:47:56.002Z</time></trkpt><trkpt lat="45.031262864307145" lon="9.595774262439834"><ele>68.0</ele><time>2026-04-07T08:47:57.002Z</time></trkpt><trkpt lat="45.03126169787433" lon="9.595869463261831"><ele>68.0</ele><time>2026-04-07T08:47:58.002Z</time></trkpt><trkpt lat="45.03126161696256" lon="9.59605576854354"><ele>68.0</ele><time>2026-04-07T08:48:00.002Z</time></trkpt><trkpt lat="45.03126186206874" lon="9.596151088055162"><ele>68.0</ele><time>2026-04-07T08:48:01.002Z</time></trkpt><trkpt lat="45.031262104252804" lon="9.596245270868693"><ele>68.0</ele><time>2026-04-07T08:48:02.002Z</time></trkpt><trkpt lat="45.03126252406705" lon="9.596337577218838"><ele>67.5</ele><time>2026-04-07T08:48:03.002Z</time></trkpt><trkpt lat="45.031262974373675" lon="9.596430025621528"><ele>67.0</ele><time>2026-04-07T08:48:04.002Z</time></trkpt><trkpt lat="45.03126346219479" lon="9.5965192430252"><ele>66.5</ele><time>2026-04-07T08:48:05.002Z</time></trkpt><trkpt lat="45.031264228933104" lon="9.596650759044929"><ele>66.0</ele><time>2026-04-07T08:48:07.002Z</time></trkpt><trkpt lat="45.03126524768107" lon="9.59675901571381"><ele>65.5</ele><time>2026-04-07T08:48:09.002Z</time></trkpt><trkpt lat="45.03130692667102" lon="9.596854627859614"><ele>65.0</ele><time>2026-04-07T08:48:11.002Z</time></trkpt><trkpt lat="45.03130741954272" lon="9.596972862774134"><ele>65.0</ele><time>2026-04-07T08:48:15.002Z</time></trkpt><trkpt lat="45.03156430990227" lon="9.596990338436102"><ele>65.0</ele><time>2026-04-07T08:48:19.002Z</time></trkpt><trkpt lat="45.031601122444634" lon="9.596897669521862"><ele>65.0</ele><time>2026-04-07T08:48:23.002Z</time></trkpt><trkpt lat="45.03159567352214" lon="9.596761008108329"><ele>65.0</ele><time>2026-04-07T08:48:26.003Z</time></trkpt><trkpt lat="45.031576127059324" lon="9.596654201553049"><ele>65.0</ele><time>2026-04-07T08:48:28.003Z</time></trkpt><trkpt lat="45.03156626440574" lon="9.59653715376805"><ele>65.0</ele><time>2026-04-07T08:48:30.003Z</time></trkpt><trkpt lat="45.03155757383241" lon="9.596410785627489"><ele>65.0</ele><time>2026-04-07T08:48:32.003Z</time></trkpt><trkpt lat="45.03154299060399" lon="9.596284827154358"><ele>65.0</ele><time>2026-04-07T08:48:34.003Z</time></trkpt><trkpt lat="45.031531763300826" lon="9.596159568353137"><ele>65.0</ele><time>2026-04-07T08:48:36.003Z</time></trkpt><trkpt lat="45.03151770806765" lon="9.596030757070652"><ele>65.0</ele><time>2026-04-07T08:48:38.003Z</time></trkpt><trkpt lat="45.03148297776125" lon="9.59592714006516"><ele>65.0</ele><time>2026-04-07T08:48:40.003Z</time></trkpt><trkpt lat="45.031407329510806" lon="9.595961705265982"><ele>65.0</ele><time>2026-04-07T08:48:42.003Z</time></trkpt><trkpt lat="45.03139977938788" lon="9.596102809553752"><ele>65.0</ele><time>2026-04-07T08:48:44.003Z</time></trkpt><trkpt lat="45.03140319433515" lon="9.596225381067391"><ele>65.0</ele><time>2026-04-07T08:48:46.003Z</time></trkpt><trkpt lat="45.03130390509221" lon="9.596289019026527"><ele>65.0</ele><time>2026-04-07T08:48:47.003Z</time></trkpt><trkpt lat="45.03130440589456" lon="9.596391838882761"><ele>65.0</ele><time>2026-04-07T08:48:49.003Z</time></trkpt><trkpt lat="45.03131549400298" lon="9.596501640814807"><ele>65.0</ele><time>2026-04-07T08:48:51.003Z</time></trkpt><trkpt lat="45.03130886282159" lon="9.596622511729938"><ele>65.0</ele><time>2026-04-07T08:48:53.003Z</time></trkpt><trkpt lat="45.03131757483809" lon="9.596748539484786"><ele>65.0</ele><time>2026-04-07T08:48:55.003Z</time></trkpt><trkpt lat="45.03130629244564" lon="9.596875142691985"><ele>65.0</ele><time>2026-04-07T08:48:57.003Z</time></trkpt><trkpt lat="45.03131128536206" lon="9.597000541006597"><ele>65.0</ele><time>2026-04-07T08:48:59.003Z</time></trkpt><trkpt lat="45.03130802588607" lon="9.59712392735234"><ele>65.0</ele><time>2026-04-07T08:49:01.003Z</time></trkpt><trkpt lat="45.0313064106242" lon="9.597263766190611"><ele>64.4</ele><time>2026-04-07T08:49:03.003Z</time></trkpt><trkpt lat="45.03131246241293" lon="9.59740627647555"><ele>63.8</ele><time>2026-04-07T08:49:05.003Z</time></trkpt><trkpt lat="45.03130101478006" lon="9.59754131172081"><ele>63.2</ele><time>2026-04-07T08:49:07.003Z</time></trkpt><trkpt lat="45.03131378317287" lon="9.597678910053059"><ele>62.6</ele><time>2026-04-07T08:49:09.003Z</time></trkpt><trkpt lat="45.031310846777814" lon="9.597834147617757"><ele>62.0</ele><time>2026-04-07T08:49:11.003Z</time></trkpt><trkpt lat="45.031311461423684" lon="9.597988897964672"><ele>62.0</ele><time>2026-04-07T08:49:13.003Z</time></trkpt><trkpt lat="45.03131211383381" lon="9.59815315615137"><ele>62.0</ele><time>2026-04-07T08:49:15.003Z</time></trkpt><trkpt lat="45.03131277260921" lon="9.598301190570423"><ele>62.0</ele><time>2026-04-07T08:49:17.003Z</time></trkpt><trkpt lat="45.03131355209006" lon="9.598464272376397"><ele>62.0</ele><time>2026-04-07T08:49:19.003Z</time></trkpt><trkpt lat="45.03131434534666" lon="9.59863023639608"><ele>62.25</ele><time>2026-04-07T08:49:21.003Z</time></trkpt><trkpt lat="45.03131509043408" lon="9.598786122716069"><ele>62.5</ele><time>2026-04-07T08:49:23.003Z</time></trkpt><trkpt lat="45.03131588993524" lon="9.598953393160318"><ele>62.75</ele><time>2026-04-07T08:49:25.003Z</time></trkpt><trkpt lat="45.031316706333115" lon="9.599124198648207"><ele>63.0</ele><time>2026-04-07T08:49:27.003Z</time></trkpt><trkpt lat="45.03131747005078" lon="9.599283982839736"><ele>63.0</ele><time>2026-04-07T08:49:29.003Z</time></trkpt><trkpt lat="45.03131824920332" lon="9.599446995650299"><ele>63.0</ele><time>2026-04-07T08:49:31.003Z</time></trkpt><trkpt lat="45.031319046937206" lon="9.599613896448878"><ele>63.0</ele><time>2026-04-07T08:49:33.003Z</time></trkpt><trkpt lat="45.03131988799047" lon="9.599789859951247"><ele>63.0</ele><time>2026-04-07T08:49:35.003Z</time></trkpt><trkpt lat="45.031320675601734" lon="9.599954642903091"><ele>63.25</ele><time>2026-04-07T08:49:37.003Z</time></trkpt><trkpt lat="45.03132143117956" lon="9.600112723411458"><ele>63.5</ele><time>2026-04-07T08:49:39.003Z</time></trkpt><trkpt lat="45.03132218833018" lon="9.600271133043083"><ele>63.75</ele><time>2026-04-07T08:49:41.003Z</time></trkpt><trkpt lat="45.03132303323084" lon="9.600447901912469"><ele>64.0</ele><time>2026-04-07T08:49:43.003Z</time></trkpt><trkpt lat="45.03132384255175" lon="9.600617226842035"><ele>64.25</ele><time>2026-04-07T08:49:45.003Z</time></trkpt><trkpt lat="45.03132463607947" lon="9.600783247971634"><ele>64.5</ele><time>2026-04-07T08:49:47.003Z</time></trkpt><trkpt lat="45.031341498503885" lon="9.600949461436135"><ele>64.75</ele><time>2026-04-07T08:49:49.003Z</time></trkpt><trkpt lat="45.03132800448751" lon="9.601113455999005"><ele>65.0</ele><time>2026-04-07T08:49:51.003Z</time></trkpt><trkpt lat="45.031326769507324" lon="9.601285556858596"><ele>65.0</ele><time>2026-04-07T08:49:53.003Z</time></trkpt><trkpt lat="45.03132636840377" lon="9.601450286143685"><ele>65.0</ele><time>2026-04-07T08:49:55.003Z</time></trkpt><trkpt lat="45.03133213970887" lon="9.601613255910493"><ele>65.0</ele><time>2026-04-07T08:49:57.003Z</time></trkpt><trkpt lat="45.03132845962963" lon="9.601774275575886"><ele>65.0</ele><time>2026-04-07T08:49:59.003Z</time></trkpt><trkpt lat="45.03132901585306" lon="9.60194640719652"><ele>65.2</ele><time>2026-04-07T08:50:01.003Z</time></trkpt><trkpt lat="45.03132935335995" lon="9.602109367730703"><ele>65.4</ele><time>2026-04-07T08:50:03.003Z</time></trkpt><trkpt lat="45.03132991035618" lon="9.602280446845084"><ele>65.6</ele><time>2026-04-07T08:50:05.003Z</time></trkpt><trkpt lat="45.03133021208319" lon="9.602370690156512"><ele>65.8</ele><time>2026-04-07T08:50:06.003Z</time></trkpt><trkpt lat="45.03134682553931" lon="9.602540349338723"><ele>66.0</ele><time>2026-04-07T08:50:08.003Z</time></trkpt><trkpt lat="45.03134705109572" lon="9.602630964409475"><ele>66.0</ele><time>2026-04-07T08:50:09.003Z</time></trkpt><trkpt lat="45.03133163774887" lon="9.602797092496164"><ele>66.0</ele><time>2026-04-07T08:50:11.003Z</time></trkpt><trkpt lat="45.03133220485854" lon="9.602966708704809"><ele>66.0</ele><time>2026-04-07T08:50:13.003Z</time></trkpt><trkpt lat="45.0313327794794" lon="9.603138571778883"><ele>66.0</ele><time>2026-04-07T08:50:15.003Z</time></trkpt><trkpt lat="45.03133334968831" lon="9.6033091145497"><ele>66.0</ele><time>2026-04-07T08:50:17.003Z</time></trkpt><trkpt lat="45.031333927553526" lon="9.60348194810055"><ele>66.0</ele><time>2026-04-07T08:50:19.003Z</time></trkpt><trkpt lat="45.03133423353612" lon="9.6035734640369"><ele>66.0</ele><time>2026-04-07T08:50:20.003Z</time></trkpt><trkpt lat="45.031314787647354" lon="9.603747069026186"><ele>66.0</ele><time>2026-04-07T08:50:22.003Z</time></trkpt><trkpt lat="45.03131395454538" lon="9.603918800883562"><ele>66.0</ele><time>2026-04-07T08:50:24.003Z</time></trkpt><trkpt lat="45.03131109583855" lon="9.60408312035412"><ele>66.2</ele><time>2026-04-07T08:50:26.003Z</time></trkpt><trkpt lat="45.03131713142209" lon="9.604255117924794"><ele>66.39999999999999</ele><time>2026-04-07T08:50:28.003Z</time></trkpt><trkpt lat="45.03132470140985" lon="9.604404300451169"><ele>66.6</ele><time>2026-04-07T08:50:30.003Z</time></trkpt><trkpt lat="45.0313241996354" lon="9.604554961026198"><ele>66.8</ele><time>2026-04-07T08:50:32.003Z</time></trkpt><trkpt lat="45.031339943219535" lon="9.604708504331063"><ele>67.0</ele><time>2026-04-07T08:50:34.003Z</time></trkpt><trkpt lat="45.03133930870362" lon="9.604839229320708"><ele>67.0</ele><time>2026-04-07T08:50:36.003Z</time></trkpt><trkpt lat="45.031339978075785" lon="9.604987291567335"><ele>67.0</ele><time>2026-04-07T08:50:38.003Z</time></trkpt><trkpt lat="45.03134017591604" lon="9.605090188796622"><ele>67.0</ele><time>2026-04-07T08:50:39.003Z</time></trkpt><trkpt lat="45.03134036140944" lon="9.605186665303522"><ele>67.0</ele><time>2026-04-07T08:50:40.003Z</time></trkpt><trkpt lat="45.03134054596866" lon="9.605282655845336"><ele>67.0</ele><time>2026-04-07T08:50:41.003Z</time></trkpt><trkpt lat="45.03134073539371" lon="9.60538117750027"><ele>67.0</ele><time>2026-04-07T08:50:42.003Z</time></trkpt><trkpt lat="45.03134095934729" lon="9.605486798151766"><ele>67.14285714285714</ele><time>2026-04-07T08:50:43.003Z</time></trkpt><trkpt lat="45.03134117540752" lon="9.605587777663239"><ele>67.28571428571428</ele><time>2026-04-07T08:50:44.003Z</time></trkpt><trkpt lat="45.03134140154268" lon="9.60569346541773"><ele>67.42857142857142</ele><time>2026-04-07T08:50:45.003Z</time></trkpt><trkpt lat="45.03134162206789" lon="9.605796531990485"><ele>67.57142857142857</ele><time>2026-04-07T08:50:46.003Z</time></trkpt><trkpt lat="45.031341847979206" lon="9.605902115867597"><ele>67.71428571428571</ele><time>2026-04-07T08:50:47.003Z</time></trkpt><trkpt lat="45.031342073152196" lon="9.606007354747836"><ele>67.85714285714285</ele><time>2026-04-07T08:50:48.003Z</time></trkpt><trkpt lat="45.03134229831819" lon="9.606112589679588"><ele>68.0</ele><time>2026-04-07T08:50:49.003Z</time></trkpt><trkpt lat="45.03134252268104" lon="9.606217449748508"><ele>67.66666666666667</ele><time>2026-04-07T08:50:50.003Z</time></trkpt><trkpt lat="45.03134286052757" lon="9.606324585767087"><ele>67.33333333333334</ele><time>2026-04-07T08:50:51.003Z</time></trkpt><trkpt lat="45.031343324987276" lon="9.606427752964668"><ele>67.0</ele><time>2026-04-07T08:50:52.003Z</time></trkpt><trkpt lat="45.03134380924078" lon="9.606535317130845"><ele>66.66666666666667</ele><time>2026-04-07T08:50:53.003Z</time></trkpt><trkpt lat="45.031344288480554" lon="9.606641767386481"><ele>66.33333333333333</ele><time>2026-04-07T08:50:54.003Z</time></trkpt><trkpt lat="45.03134478049215" lon="9.60675105415802"><ele>66.0</ele><time>2026-04-07T08:50:55.003Z</time></trkpt><trkpt lat="45.031345280599226" lon="9.606862139514613"><ele>66.0</ele><time>2026-04-07T08:50:56.003Z</time></trkpt><trkpt lat="45.03134577601023" lon="9.606972181657268"><ele>66.0</ele><time>2026-04-07T08:50:57.003Z</time></trkpt><trkpt lat="45.03134626763919" lon="9.607081383703955"><ele>66.0</ele><time>2026-04-07T08:50:58.003Z</time></trkpt><trkpt lat="45.03134676890493" lon="9.607192726134665"><ele>66.0</ele><time>2026-04-07T08:50:59.003Z</time></trkpt><trkpt lat="45.03134725523752" lon="9.607300751864615"><ele>66.0</ele><time>2026-04-07T08:51:00.003Z</time></trkpt><trkpt lat="45.03134774392267" lon="9.607409299831305"><ele>66.0</ele><time>2026-04-07T08:51:01.003Z</time></trkpt><trkpt lat="45.0313482296254" lon="9.607517185617413"><ele>66.16666666666667</ele><time>2026-04-07T08:51:02.003Z</time></trkpt><trkpt lat="45.03134854254048" lon="9.607627510564711"><ele>66.33333333333333</ele><time>2026-04-07T08:51:03.003Z</time></trkpt><trkpt lat="45.031348791873114" lon="9.607736745923717"><ele>66.5</ele><time>2026-04-07T08:51:04.003Z</time></trkpt><trkpt lat="45.031349036089644" lon="9.607843740083611"><ele>66.66666666666666</ele><time>2026-04-07T08:51:05.003Z</time></trkpt><trkpt lat="45.03134930368933" lon="9.60795312887829"><ele>66.83333333333333</ele><time>2026-04-07T08:51:06.003Z</time></trkpt><trkpt lat="45.03134968686429" lon="9.608061056592826"><ele>67.0</ele><time>2026-04-07T08:51:07.003Z</time></trkpt><trkpt lat="45.03135007006324" lon="9.608168991156672"><ele>67.0</ele><time>2026-04-07T08:51:08.003Z</time></trkpt><trkpt lat="45.031350469225885" lon="9.608281421912215"><ele>67.0</ele><time>2026-04-07T08:51:09.003Z</time></trkpt><trkpt lat="45.03135085510061" lon="9.608390109862139"><ele>67.0</ele><time>2026-04-07T08:51:10.003Z</time></trkpt><trkpt lat="45.03135124719601" lon="9.608500550184678"><ele>67.0</ele><time>2026-04-07T08:51:11.003Z</time></trkpt><trkpt lat="45.03135163884889" lon="9.608610865903676"><ele>67.0</ele><time>2026-04-07T08:51:12.003Z</time></trkpt><trkpt lat="45.031352022641656" lon="9.608718967501192"><ele>67.0</ele><time>2026-04-07T08:51:13.003Z</time></trkpt><trkpt lat="45.03135241352597" lon="9.608829066234728"><ele>67.0</ele><time>2026-04-07T08:51:14.003Z</time></trkpt><trkpt lat="45.0313527985162" lon="9.608937505417302"><ele>67.0</ele><time>2026-04-07T08:51:15.008Z</time></trkpt><trkpt lat="45.03135318494288" lon="9.609046348797095"><ele>67.0</ele><time>2026-04-07T08:51:16.008Z</time></trkpt><trkpt lat="45.031353569979146" lon="9.6091548005552"><ele>67.0</ele><time>2026-04-07T08:51:17.008Z</time></trkpt><trkpt lat="45.031353955937554" lon="9.609263512252504"><ele>67.0</ele><time>2026-04-07T08:51:18.008Z</time></trkpt><trkpt lat="45.03135434452825" lon="9.609372965374403"><ele>67.0</ele><time>2026-04-07T08:51:19.008Z</time></trkpt><trkpt lat="45.031354733686534" lon="9.60948257808212"><ele>66.83333333333333</ele><time>2026-04-07T08:51:20.008Z</time></trkpt><trkpt lat="45.03135510714074" lon="9.609592865199758"><ele>66.66666666666666</ele><time>2026-04-07T08:51:21.008Z</time></trkpt><trkpt lat="45.03135546473168" lon="9.609705456219903"><ele>66.5</ele><time>2026-04-07T08:51:22.008Z</time></trkpt><trkpt lat="45.03135581632321" lon="9.609816158051387"><ele>66.33333333333333</ele><time>2026-04-07T08:51:23.008Z</time></trkpt><trkpt lat="45.03135616582108" lon="9.609926201063082"><ele>66.16666666666667</ele><time>2026-04-07T08:51:24.008Z</time></trkpt><trkpt lat="45.03135650900412" lon="9.610034255361404"><ele>66.0</ele><time>2026-04-07T08:51:25.008Z</time></trkpt><trkpt lat="45.031356856657226" lon="9.6101437176656"><ele>66.0</ele><time>2026-04-07T08:51:26.008Z</time></trkpt><trkpt lat="45.03135721638449" lon="9.610256981351212"><ele>66.0</ele><time>2026-04-07T08:51:27.008Z</time></trkpt><trkpt lat="45.031357570026316" lon="9.61036832876423"><ele>66.0</ele><time>2026-04-07T08:51:28.008Z</time></trkpt><trkpt lat="45.03135792954774" lon="9.610481527456452"><ele>66.0</ele><time>2026-04-07T08:51:29.008Z</time></trkpt><trkpt lat="45.031358274447435" lon="9.61059012268491"><ele>66.0</ele><time>2026-04-07T08:51:30.008Z</time></trkpt><trkpt lat="45.03135862381793" lon="9.610700125311414"><ele>66.0</ele><time>2026-04-07T08:51:31.008Z</time></trkpt><trkpt lat="45.03135897972048" lon="9.610812184663153"><ele>66.0</ele><time>2026-04-07T08:51:32.008Z</time></trkpt><trkpt lat="45.0313593382535" lon="9.610925072199343"><ele>66.0</ele><time>2026-04-07T08:51:33.008Z</time></trkpt><trkpt lat="45.03135969762532" lon="9.611038223937749"><ele>66.0</ele><time>2026-04-07T08:51:34.008Z</time></trkpt><trkpt lat="45.03136005885043" lon="9.611151959322314"><ele>66.0</ele><time>2026-04-07T08:51:35.008Z</time></trkpt><trkpt lat="45.03136041203477" lon="9.611263162986866"><ele>66.0</ele><time>2026-04-07T08:51:36.008Z</time></trkpt><trkpt lat="45.03136080983157" lon="9.611378815345738"><ele>66.0</ele><time>2026-04-07T08:51:37.008Z</time></trkpt><trkpt lat="45.03136123865856" lon="9.6114874941139"><ele>66.0</ele><time>2026-04-07T08:51:38.008Z</time></trkpt><trkpt lat="45.03136168580476" lon="9.611600815509373"><ele>66.0</ele><time>2026-04-07T08:51:39.008Z</time></trkpt><trkpt lat="45.0313621325941" lon="9.611714046868421"><ele>66.0</ele><time>2026-04-07T08:51:40.008Z</time></trkpt><trkpt lat="45.03136257632699" lon="9.611826503105988"><ele>66.0</ele><time>2026-04-07T08:51:41.008Z</time></trkpt><trkpt lat="45.031363020960455" lon="9.611939187908261"><ele>66.0</ele><time>2026-04-07T08:51:42.008Z</time></trkpt><trkpt lat="45.03136345842585" lon="9.612050055836225"><ele>66.0</ele><time>2026-04-07T08:51:43.008Z</time></trkpt><trkpt lat="45.03136389485009" lon="9.612160660171421"><ele>66.16666666666667</ele><time>2026-04-07T08:51:44.008Z</time></trkpt><trkpt lat="45.03136433403627" lon="9.612271964655934"><ele>66.33333333333333</ele><time>2026-04-07T08:51:45.008Z</time></trkpt><trkpt lat="45.03136476866124" lon="9.612382112457293"><ele>66.5</ele><time>2026-04-07T08:51:46.008Z</time></trkpt><trkpt lat="45.03136520587757" lon="9.612492917498678"><ele>66.66666666666666</ele><time>2026-04-07T08:51:47.008Z</time></trkpt><trkpt lat="45.03136563088018" lon="9.612600627249469"><ele>66.83333333333333</ele><time>2026-04-07T08:51:48.008Z</time></trkpt><trkpt lat="45.03136607218317" lon="9.612712467651615"><ele>67.0</ele><time>2026-04-07T08:51:49.008Z</time></trkpt><trkpt lat="45.031366510029834" lon="9.612823432233169"><ele>67.0</ele><time>2026-04-07T08:51:50.008Z</time></trkpt><trkpt lat="45.031366929511066" lon="9.612929742764125"><ele>67.0</ele><time>2026-04-07T08:51:51.008Z</time></trkpt><trkpt lat="45.031367360733725" lon="9.613039012282147"><ele>67.0</ele><time>2026-04-07T08:51:52.008Z</time></trkpt><trkpt lat="45.031367806294625" lon="9.613150904998852"><ele>67.0</ele><time>2026-04-07T08:51:53.008Z</time></trkpt><trkpt lat="45.031368229159625" lon="9.613257097926175"><ele>67.0</ele><time>2026-04-07T08:51:54.008Z</time></trkpt><trkpt lat="45.031368667484834" lon="9.613367173507745"><ele>67.0</ele><time>2026-04-07T08:51:55.008Z</time></trkpt><trkpt lat="45.031369106816435" lon="9.613477501909044"><ele>67.0</ele><time>2026-04-07T08:51:56.008Z</time></trkpt><trkpt lat="45.03136954276239" lon="9.613586980043396"><ele>67.0</ele><time>2026-04-07T08:51:57.008Z</time></trkpt><trkpt lat="45.03136997321967" lon="9.613695079708068"><ele>67.0</ele><time>2026-04-07T08:51:58.008Z</time></trkpt><trkpt lat="45.03137040660515" lon="9.613803914620384"><ele>67.0</ele><time>2026-04-07T08:51:59.008Z</time></trkpt><trkpt lat="45.03137081912507" lon="9.613907509894112"><ele>67.0</ele><time>2026-04-07T08:52:00.009Z</time></trkpt><trkpt lat="45.031371258396476" lon="9.614017823003998"><ele>67.0</ele><time>2026-04-07T08:52:01.008Z</time></trkpt><trkpt lat="45.03137169925793" lon="9.614128535745408"><ele>67.0</ele><time>2026-04-07T08:52:02.009Z</time></trkpt><trkpt lat="45.031372086747815" lon="9.614225845215731"><ele>67.0</ele><time>2026-04-07T08:52:03.009Z</time></trkpt><trkpt lat="45.03137250050901" lon="9.614329751835694"><ele>67.0</ele><time>2026-04-07T08:52:04.008Z</time></trkpt><trkpt lat="45.031372918030854" lon="9.614434603193223"><ele>67.0</ele><time>2026-04-07T08:52:05.008Z</time></trkpt><trkpt lat="45.03137331520098" lon="9.614534343562296"><ele>67.0</ele><time>2026-04-07T08:52:06.009Z</time></trkpt><trkpt lat="45.03137372033765" lon="9.614636084555862"><ele>67.0</ele><time>2026-04-07T08:52:07.008Z</time></trkpt><trkpt lat="45.031374118987664" lon="9.61473619661858"><ele>67.0</ele><time>2026-04-07T08:52:08.008Z</time></trkpt><trkpt lat="45.031374524228404" lon="9.614837963886815"><ele>66.85714285714286</ele><time>2026-04-07T08:52:09.008Z</time></trkpt><trkpt lat="45.031374933567776" lon="9.61494076027577"><ele>66.71428571428571</ele><time>2026-04-07T08:52:10.008Z</time></trkpt><trkpt lat="45.03137532440394" lon="9.615038909954295"><ele>66.57142857142857</ele><time>2026-04-07T08:52:11.008Z</time></trkpt><trkpt lat="45.03137572187005" lon="9.615138725053653"><ele>66.42857142857143</ele><time>2026-04-07T08:52:12.009Z</time></trkpt><trkpt lat="45.03137611885011" lon="9.615238417629872"><ele>66.28571428571429</ele><time>2026-04-07T08:52:13.008Z</time></trkpt><trkpt lat="45.03137652070319" lon="9.615339334055554"><ele>66.14285714285714</ele><time>2026-04-07T08:52:14.008Z</time></trkpt><trkpt lat="45.03137688680362" lon="9.615435138360999"><ele>66.0</ele><time>2026-04-07T08:52:15.008Z</time></trkpt><trkpt lat="45.03137725325798" lon="9.61553780355879"><ele>66.0</ele><time>2026-04-07T08:52:16.008Z</time></trkpt><trkpt lat="45.03137761586776" lon="9.615639391629019"><ele>66.0</ele><time>2026-04-07T08:52:17.008Z</time></trkpt><trkpt lat="45.03137797513364" lon="9.615740042874558"><ele>66.0</ele><time>2026-04-07T08:52:18.008Z</time></trkpt><trkpt lat="45.03137833563919" lon="9.615841041414527"><ele>66.0</ele><time>2026-04-07T08:52:19.008Z</time></trkpt><trkpt lat="45.03137868033786" lon="9.61593761132308"><ele>66.0</ele><time>2026-04-07T08:52:20.008Z</time></trkpt><trkpt lat="45.03137902957275" lon="9.616035452442853"><ele>66.0</ele><time>2026-04-07T08:52:21.008Z</time></trkpt><trkpt lat="45.0313793934933" lon="9.61613740742803"><ele>66.0</ele><time>2026-04-07T08:52:22.008Z</time></trkpt><trkpt lat="45.03137974533938" lon="9.61623597989807"><ele>65.85714285714286</ele><time>2026-04-07T08:52:23.008Z</time></trkpt><trkpt lat="45.03138009597085" lon="9.616334212188221"><ele>65.71428571428572</ele><time>2026-04-07T08:52:24.008Z</time></trkpt><trkpt lat="45.031380445390575" lon="9.616432104583987"><ele>65.57142857142858</ele><time>2026-04-07T08:52:25.008Z</time></trkpt><trkpt lat="45.03138079282811" lon="9.616529441952737"><ele>65.42857142857143</ele><time>2026-04-07T08:52:26.008Z</time></trkpt><trkpt lat="45.03138113956677" lon="9.61662658349369"><ele>65.28571428571429</ele><time>2026-04-07T08:52:27.008Z</time></trkpt><trkpt lat="45.031381473760284" lon="9.616720210393668"><ele>65.14285714285715</ele><time>2026-04-07T08:52:28.008Z</time></trkpt><trkpt lat="45.03138181384314" lon="9.616815487413941"><ele>65.0</ele><time>2026-04-07T08:52:29.008Z</time></trkpt><trkpt lat="45.031382145808095" lon="9.616908489830946"><ele>65.14285714285715</ele><time>2026-04-07T08:52:30.008Z</time></trkpt><trkpt lat="45.03138248594207" lon="9.617003780737425"><ele>65.28571428571429</ele><time>2026-04-07T08:52:31.008Z</time></trkpt><trkpt lat="45.03138282283397" lon="9.617098163759085"><ele>65.42857142857143</ele><time>2026-04-07T08:52:32.008Z</time></trkpt><trkpt lat="45.031383162122516" lon="9.61719321814064"><ele>65.57142857142858</ele><time>2026-04-07T08:52:33.008Z</time></trkpt><trkpt lat="45.03138349087519" lon="9.617285320642972"><ele>65.71428571428572</ele><time>2026-04-07T08:52:34.008Z</time></trkpt><trkpt lat="45.031383828283" lon="9.61737984847472"><ele>65.85714285714286</ele><time>2026-04-07T08:52:35.008Z</time></trkpt><trkpt lat="45.031384165429266" lon="9.617474302277289"><ele>66.0</ele><time>2026-04-07T08:52:36.008Z</time></trkpt><trkpt lat="45.03138449189102" lon="9.61756576276365"><ele>66.0</ele><time>2026-04-07T08:52:37.008Z</time></trkpt><trkpt lat="45.03138482347474" lon="9.617658658876305"><ele>66.0</ele><time>2026-04-07T08:52:38.008Z</time></trkpt><trkpt lat="45.03138515839487" lon="9.617752489241537"><ele>66.0</ele><time>2026-04-07T08:52:39.008Z</time></trkpt><trkpt lat="45.031385501144975" lon="9.617848513413511"><ele>66.0</ele><time>2026-04-07T08:52:40.008Z</time></trkpt><trkpt lat="45.031385821826234" lon="9.617938354795484"><ele>66.0</ele><time>2026-04-07T08:52:41.008Z</time></trkpt><trkpt lat="45.031386176252674" lon="9.618037650283442"><ele>66.0</ele><time>2026-04-07T08:52:42.008Z</time></trkpt><trkpt lat="45.03138649636539" lon="9.61812733250796"><ele>66.0</ele><time>2026-04-07T08:52:43.008Z</time></trkpt><trkpt lat="45.03138683742635" lon="9.618222883552725"><ele>66.0</ele><time>2026-04-07T08:52:44.008Z</time></trkpt><trkpt lat="45.03138717218629" lon="9.618316668949246"><ele>66.0</ele><time>2026-04-07T08:52:45.008Z</time></trkpt><trkpt lat="45.031387508178184" lon="9.61841079970556"><ele>66.0</ele><time>2026-04-07T08:52:46.008Z</time></trkpt><trkpt lat="45.03138784522333" lon="9.618505225513022"><ele>66.0</ele><time>2026-04-07T08:52:47.008Z</time></trkpt><trkpt lat="45.0313881871882" lon="9.618601029678814"><ele>66.0</ele><time>2026-04-07T08:52:48.008Z</time></trkpt><trkpt lat="45.03138852595293" lon="9.618695937384288"><ele>66.0</ele><time>2026-04-07T08:52:49.008Z</time></trkpt><trkpt lat="45.031388856693006" lon="9.618788596732157"><ele>66.0</ele><time>2026-04-07T08:52:50.008Z</time></trkpt><trkpt lat="45.03138918645501" lon="9.618880982441427"><ele>66.0</ele><time>2026-04-07T08:52:51.008Z</time></trkpt><trkpt lat="45.031389513109616" lon="9.618972497177749"><ele>66.0</ele><time>2026-04-07T08:52:52.008Z</time></trkpt><trkpt lat="45.03138983707313" lon="9.619063258041859"><ele>66.0</ele><time>2026-04-07T08:52:53.008Z</time></trkpt><trkpt lat="45.03139026550258" lon="9.619240328388708"><ele>66.0</ele><time>2026-04-07T08:52:55.008Z</time></trkpt><trkpt lat="45.03139043020258" lon="9.619330783461269"><ele>66.0</ele><time>2026-04-07T08:52:56.008Z</time></trkpt><trkpt lat="45.031390596910555" lon="9.619422341322169"><ele>66.0</ele><time>2026-04-07T08:52:57.008Z</time></trkpt><trkpt lat="45.0313909207032" lon="9.61960017150457"><ele>66.0</ele><time>2026-04-07T08:52:59.008Z</time></trkpt><trkpt lat="45.031391242019644" lon="9.619776641855013"><ele>66.0</ele><time>2026-04-07T08:53:01.008Z</time></trkpt><trkpt lat="45.031391555869234" lon="9.619949011077352"><ele>66.0</ele><time>2026-04-07T08:53:03.008Z</time></trkpt><trkpt lat="45.03139186642098" lon="9.620119569252742"><ele>66.0</ele><time>2026-04-07T08:53:05.008Z</time></trkpt><trkpt lat="45.03139068517455" lon="9.620283193675439"><ele>66.75</ele><time>2026-04-07T08:53:07.008Z</time></trkpt><trkpt lat="45.03138884000125" lon="9.620452075617024"><ele>67.5</ele><time>2026-04-07T08:53:09.008Z</time></trkpt><trkpt lat="45.0313869826753" lon="9.620622069870974"><ele>68.25</ele><time>2026-04-07T08:53:11.008Z</time></trkpt><trkpt lat="45.03138506594126" lon="9.620786920095647"><ele>69.0</ele><time>2026-04-07T08:53:13.008Z</time></trkpt><trkpt lat="45.0313819827116" lon="9.620944328721684"><ele>69.0</ele><time>2026-04-07T08:53:15.008Z</time></trkpt><trkpt lat="45.0313777398355" lon="9.621121022267332"><ele>69.0</ele><time>2026-04-07T08:53:17.008Z</time></trkpt><trkpt lat="45.03137411804425" lon="9.621284392003986"><ele>69.0</ele><time>2026-04-07T08:53:19.008Z</time></trkpt><trkpt lat="45.03137054210081" lon="9.621450273568296"><ele>69.0</ele><time>2026-04-07T08:53:21.008Z</time></trkpt><trkpt lat="45.03136767518239" lon="9.621619916768287"><ele>69.0</ele><time>2026-04-07T08:53:23.008Z</time></trkpt><trkpt lat="45.0313665217841" lon="9.621791867160331"><ele>69.0</ele><time>2026-04-07T08:53:25.008Z</time></trkpt><trkpt lat="45.03136760765862" lon="9.621966388422873"><ele>69.0</ele><time>2026-04-07T08:53:27.008Z</time></trkpt><trkpt lat="45.03136869452988" lon="9.622141069299992"><ele>69.0</ele><time>2026-04-07T08:53:29.008Z</time></trkpt><trkpt lat="45.03136976887427" lon="9.622313737440408"><ele>69.0</ele><time>2026-04-07T08:53:31.008Z</time></trkpt><trkpt lat="45.03137084384511" lon="9.62248650573921"><ele>69.0</ele><time>2026-04-07T08:53:33.008Z</time></trkpt><trkpt lat="45.031371894478006" lon="9.622655362527967"><ele>69.0</ele><time>2026-04-07T08:53:35.008Z</time></trkpt><trkpt lat="45.031372451716784" lon="9.622744924792826"><ele>69.0</ele><time>2026-04-07T08:53:36.008Z</time></trkpt><trkpt lat="45.03137413419901" lon="9.622921202940743"><ele>69.0</ele><time>2026-04-07T08:53:38.008Z</time></trkpt><trkpt lat="45.0313749800649" lon="9.623012537160974"><ele>69.0</ele><time>2026-04-07T08:53:39.008Z</time></trkpt><trkpt lat="45.031377639007374" lon="9.62318424884611"><ele>69.0</ele><time>2026-04-07T08:53:41.008Z</time></trkpt><trkpt lat="45.031381374545994" lon="9.623361328199524"><ele>69.0</ele><time>2026-04-07T08:53:43.008Z</time></trkpt><trkpt lat="45.031383690308964" lon="9.62345615304971"><ele>69.0</ele><time>2026-04-07T08:53:44.008Z</time></trkpt><trkpt lat="45.031388959191055" lon="9.623637230047136"><ele>69.0</ele><time>2026-04-07T08:53:46.008Z</time></trkpt><trkpt lat="45.03139548527089" lon="9.623813823681807"><ele>68.85714285714286</ele><time>2026-04-07T08:53:48.008Z</time></trkpt><trkpt lat="45.03139931397457" lon="9.623905638965352"><ele>68.71428571428572</ele><time>2026-04-07T08:53:49.008Z</time></trkpt><trkpt lat="45.031407241712" lon="9.624084346140275"><ele>68.57142857142857</ele><time>2026-04-07T08:53:51.008Z</time></trkpt><trkpt lat="45.031411672739125" lon="9.624173497179838"><ele>68.42857142857143</ele><time>2026-04-07T08:53:52.008Z</time></trkpt><trkpt lat="45.03141614651216" lon="9.624263508229307"><ele>68.28571428571428</ele><time>2026-04-07T08:53:53.008Z</time></trkpt><trkpt lat="45.031421524395185" lon="9.624355753809553"><ele>68.14285714285714</ele><time>2026-04-07T08:53:54.008Z</time></trkpt><trkpt lat="45.03142765575292" lon="9.624446675349185"><ele>68.0</ele><time>2026-04-07T08:53:55.008Z</time></trkpt><trkpt lat="45.03143372651518" lon="9.624536719433186"><ele>68.0</ele><time>2026-04-07T08:53:56.008Z</time></trkpt><trkpt lat="45.03144707607543" lon="9.624710837268994"><ele>68.0</ele><time>2026-04-07T08:53:58.008Z</time></trkpt><trkpt lat="45.031461162235914" lon="9.624889191027764"><ele>68.0</ele><time>2026-04-07T08:54:00.008Z</time></trkpt><trkpt lat="45.03147266334647" lon="9.624992218994091"><ele>68.0</ele><time>2026-04-07T08:54:01.008Z</time></trkpt><trkpt lat="45.03148673469825" lon="9.625086013804173"><ele>68.0</ele><time>2026-04-07T08:54:02.008Z</time></trkpt><trkpt lat="45.03150894154341" lon="9.625249926274298"><ele>67.99999999999999</ele><time>2026-04-07T08:54:04.008Z</time></trkpt><trkpt lat="45.03151882737406" lon="9.62533919701555"><ele>68.0</ele><time>2026-04-07T08:54:05.008Z</time></trkpt><trkpt lat="45.03152940547518" lon="9.625430203751572"><ele>68.0</ele><time>2026-04-07T08:54:06.009Z</time></trkpt><trkpt lat="45.03154150486448" lon="9.625522437280154"><ele>68.0</ele><time>2026-04-07T08:54:07.01Z</time></trkpt><trkpt lat="45.03155462133223" lon="9.625616578604468"><ele>68.0</ele><time>2026-04-07T08:54:08.01Z</time></trkpt><trkpt lat="45.031567398029786" lon="9.62570399488224"><ele>67.99999999999999</ele><time>2026-04-07T08:54:09.01Z</time></trkpt><trkpt lat="45.03159235972226" lon="9.625874778727077"><ele>68.0</ele><time>2026-04-07T08:54:11.009Z</time></trkpt><trkpt lat="45.03160510963808" lon="9.625962835456585"><ele>68.0</ele><time>2026-04-07T08:54:12.01Z</time></trkpt><trkpt lat="45.0316309579315" lon="9.626130819079538"><ele>68.0</ele><time>2026-04-07T08:54:14.009Z</time></trkpt><trkpt lat="45.03164504477034" lon="9.626225062767118"><ele>68.0</ele><time>2026-04-07T08:54:15.009Z</time></trkpt><trkpt lat="45.03167511473808" lon="9.626401295010016"><ele>68.0</ele><time>2026-04-07T08:54:17.009Z</time></trkpt><trkpt lat="45.03170383085686" lon="9.62656959171975"><ele>68.0</ele><time>2026-04-07T08:54:19.009Z</time></trkpt><trkpt lat="45.031733122754254" lon="9.626738416413389"><ele>67.8</ele><time>2026-04-07T08:54:21.009Z</time></trkpt><trkpt lat="45.031762652582785" lon="9.626906091653119"><ele>67.6</ele><time>2026-04-07T08:54:23.009Z</time></trkpt><trkpt lat="45.031779018509816" lon="9.626996080279842"><ele>67.4</ele><time>2026-04-07T08:54:24.009Z</time></trkpt><trkpt lat="45.03180938237159" lon="9.627158837815124"><ele>67.2</ele><time>2026-04-07T08:54:26.009Z</time></trkpt><trkpt lat="45.03183988232512" lon="9.627316033879076"><ele>67.0</ele><time>2026-04-07T08:54:28.009Z</time></trkpt><trkpt lat="45.03187164145186" lon="9.627477084789964"><ele>67.0</ele><time>2026-04-07T08:54:30.009Z</time></trkpt><trkpt lat="45.031907014741975" lon="9.627644398639749"><ele>67.0</ele><time>2026-04-07T08:54:32.009Z</time></trkpt><trkpt lat="45.031944853514666" lon="9.627817117271887"><ele>67.0</ele><time>2026-04-07T08:54:34.009Z</time></trkpt><trkpt lat="45.03198555485295" lon="9.627981766017829"><ele>67.0</ele><time>2026-04-07T08:54:36.009Z</time></trkpt><trkpt lat="45.032025334850644" lon="9.628142688361992"><ele>67.0</ele><time>2026-04-07T08:54:38.009Z</time></trkpt><trkpt lat="45.03206604296071" lon="9.628307365170837"><ele>67.0</ele><time>2026-04-07T08:54:40.009Z</time></trkpt><trkpt lat="45.032109809814955" lon="9.62848285781844"><ele>67.0</ele><time>2026-04-07T08:54:42.009Z</time></trkpt><trkpt lat="45.03215491208952" lon="9.628651966860629"><ele>67.0</ele><time>2026-04-07T08:54:44.009Z</time></trkpt><trkpt lat="45.0321999582498" lon="9.628812785515183"><ele>67.2</ele><time>2026-04-07T08:54:46.009Z</time></trkpt><trkpt lat="45.032224235912935" lon="9.628897785487727"><ele>67.4</ele><time>2026-04-07T08:54:47.009Z</time></trkpt><trkpt lat="45.03227160397803" lon="9.62906083517407"><ele>67.6</ele><time>2026-04-07T08:54:49.009Z</time></trkpt><trkpt lat="45.032295970197566" lon="9.629144084996843"><ele>67.8</ele><time>2026-04-07T08:54:50.009Z</time></trkpt><trkpt lat="45.032344872701316" lon="9.629307368304607"><ele>68.0</ele><time>2026-04-07T08:54:52.009Z</time></trkpt><trkpt lat="45.032396493675925" lon="9.62947301458719"><ele>68.16666666666667</ele><time>2026-04-07T08:54:54.009Z</time></trkpt><trkpt lat="45.032445022104035" lon="9.629625833369127"><ele>68.33333333333334</ele><time>2026-04-07T08:54:56.009Z</time></trkpt><trkpt lat="45.03247469415264" lon="9.629713004774144"><ele>68.5</ele><time>2026-04-07T08:54:57.009Z</time></trkpt><trkpt lat="45.03252810674378" lon="9.62987230386291"><ele>68.66666666666667</ele><time>2026-04-07T08:54:59.009Z</time></trkpt><trkpt lat="45.032555761777836" lon="9.629954782519567"><ele>68.83333333333333</ele><time>2026-04-07T08:55:00.009Z</time></trkpt><trkpt lat="45.03258480615574" lon="9.630038369323804"><ele>69.0</ele><time>2026-04-07T08:55:01.009Z</time></trkpt><trkpt lat="45.03263943640893" lon="9.630196393993064"><ele>68.66666666666667</ele><time>2026-04-07T08:55:03.009Z</time></trkpt><trkpt lat="45.032670801594726" lon="9.63028602166706"><ele>68.33333333333333</ele><time>2026-04-07T08:55:04.009Z</time></trkpt><trkpt lat="45.03269946633367" lon="9.6303664397221"><ele>68.0</ele><time>2026-04-07T08:55:05.009Z</time></trkpt><trkpt lat="45.03275694618502" lon="9.630527697521856"><ele>67.66666666666666</ele><time>2026-04-07T08:55:07.009Z</time></trkpt><trkpt lat="45.0327853268262" lon="9.630607318542015"><ele>67.33333333333333</ele><time>2026-04-07T08:55:08.009Z</time></trkpt><trkpt lat="45.03281419825222" lon="9.630688316355062"><ele>67.0</ele><time>2026-04-07T08:55:09.009Z</time></trkpt><trkpt lat="45.03284378121124" lon="9.630770065368045"><ele>67.0</ele><time>2026-04-07T08:55:10.009Z</time></trkpt><trkpt lat="45.03287300577691" lon="9.630850764966972"><ele>67.0</ele><time>2026-04-07T08:55:11.009Z</time></trkpt><trkpt lat="45.03290399465738" lon="9.630936336614443"><ele>67.0</ele><time>2026-04-07T08:55:12.009Z</time></trkpt><trkpt lat="45.03296082616304" lon="9.631093268938846"><ele>67.0</ele><time>2026-04-07T08:55:14.009Z</time></trkpt><trkpt lat="45.03301699086643" lon="9.631248360121592"><ele>67.0</ele><time>2026-04-07T08:55:16.009Z</time></trkpt><trkpt lat="45.033074912403016" lon="9.631408302617885"><ele>67.0</ele><time>2026-04-07T08:55:18.009Z</time></trkpt><trkpt lat="45.03310367536105" lon="9.631487727581797"><ele>67.0</ele><time>2026-04-07T08:55:19.009Z</time></trkpt><trkpt lat="45.03315954731983" lon="9.631642010419704"><ele>67.0</ele><time>2026-04-07T08:55:21.009Z</time></trkpt><trkpt lat="45.03321661224445" lon="9.631799587335848"><ele>67.0</ele><time>2026-04-07T08:55:23.009Z</time></trkpt><trkpt lat="45.03327331384142" lon="9.631956161162242"><ele>67.0</ele><time>2026-04-07T08:55:25.009Z</time></trkpt><trkpt lat="45.03332858915947" lon="9.632108796347895"><ele>66.8</ele><time>2026-04-07T08:55:27.009Z</time></trkpt><trkpt lat="45.0333831307076" lon="9.632260236060405"><ele>66.6</ele><time>2026-04-07T08:55:29.009Z</time></trkpt><trkpt lat="45.03341263693179" lon="9.63234233300645"><ele>66.39999999999999</ele><time>2026-04-07T08:55:30.009Z</time></trkpt><trkpt lat="45.033468452032714" lon="9.632497630623579"><ele>66.2</ele><time>2026-04-07T08:55:32.009Z</time></trkpt><trkpt lat="45.03352384016856" lon="9.632651740257575"><ele>66.0</ele><time>2026-04-07T08:55:34.009Z</time></trkpt><trkpt lat="45.03355310626596" lon="9.632733169025547"><ele>65.8</ele><time>2026-04-07T08:55:35.009Z</time></trkpt><trkpt lat="45.03360917237834" lon="9.63288916503616"><ele>65.6</ele><time>2026-04-07T08:55:37.009Z</time></trkpt><trkpt lat="45.03366526667621" lon="9.633045239495056"><ele>65.4</ele><time>2026-04-07T08:55:39.009Z</time></trkpt><trkpt lat="45.033721230893924" lon="9.633200951864076"><ele>65.2</ele><time>2026-04-07T08:55:41.009Z</time></trkpt><trkpt lat="45.03374981713252" lon="9.633280489061223"><ele>65.0</ele><time>2026-04-07T08:55:42.009Z</time></trkpt><trkpt lat="45.03377842664242" lon="9.633360090992598"><ele>65.0</ele><time>2026-04-07T08:55:43.009Z</time></trkpt><trkpt lat="45.033833584255646" lon="9.63351590821795"><ele>65.0</ele><time>2026-04-07T08:55:45.009Z</time></trkpt><trkpt lat="45.03386221949191" lon="9.633597312577667"><ele>65.0</ele><time>2026-04-07T08:55:46.009Z</time></trkpt><trkpt lat="45.033918524555354" lon="9.633754773602114"><ele>65.0</ele><time>2026-04-07T08:55:48.009Z</time></trkpt><trkpt lat="45.03394829188338" lon="9.633836178096482"><ele>65.0</ele><time>2026-04-07T08:55:49.009Z</time></trkpt><trkpt lat="45.034011085576275" lon="9.634000314824622"><ele>65.0</ele><time>2026-04-07T08:55:51.009Z</time></trkpt><trkpt lat="45.03407080775735" lon="9.634150709078376"><ele>65.0</ele><time>2026-04-07T08:55:53.009Z</time></trkpt><trkpt lat="45.03412905880925" lon="9.634300053042"><ele>65.0</ele><time>2026-04-07T08:55:55.009Z</time></trkpt><trkpt lat="45.03418208156155" lon="9.63443978681348"><ele>65.0</ele><time>2026-04-07T08:55:57.009Z</time></trkpt><trkpt lat="45.034237221943656" lon="9.634590153634223"><ele>65.4</ele><time>2026-04-07T08:55:59.009Z</time></trkpt><trkpt lat="45.03429406669678" lon="9.634745168218164"><ele>65.8</ele><time>2026-04-07T08:56:01.009Z</time></trkpt><trkpt lat="45.03432333430761" lon="9.634824980469197"><ele>66.2</ele><time>2026-04-07T08:56:02.009Z</time></trkpt><trkpt lat="45.03435246178595" lon="9.634904409341507"><ele>66.6</ele><time>2026-04-07T08:56:03.009Z</time></trkpt><trkpt lat="45.03440952895481" lon="9.635058931115573"><ele>67.0</ele><time>2026-04-07T08:56:05.009Z</time></trkpt><trkpt lat="45.03462035596911" lon="9.635005725346263"><ele>67.0</ele><time>2026-04-07T08:56:06.009Z</time></trkpt><trkpt lat="45.03464973555903" lon="9.635088528070174"><ele>67.0</ele><time>2026-04-07T08:56:07.009Z</time></trkpt><trkpt lat="45.0346975028687" lon="9.635248087798619"><ele>67.0</ele><time>2026-04-07T08:56:09.009Z</time></trkpt><trkpt lat="45.03475486387927" lon="9.635404846732998"><ele>67.0</ele><time>2026-04-07T08:56:11.009Z</time></trkpt><trkpt lat="45.034784654241356" lon="9.63548608189828"><ele>67.0</ele><time>2026-04-07T08:56:12.01Z</time></trkpt><trkpt lat="45.03483969033372" lon="9.635637729193434"><ele>67.0</ele><time>2026-04-07T08:56:14.01Z</time></trkpt><trkpt lat="45.0348653911314" lon="9.635719247494038"><ele>67.0</ele><time>2026-04-07T08:56:15.01Z</time></trkpt><trkpt lat="45.03492712090627" lon="9.635873930930098"><ele>67.0</ele><time>2026-04-07T08:56:17.01Z</time></trkpt><trkpt lat="45.03498643094963" lon="9.636034210579577"><ele>67.0</ele><time>2026-04-07T08:56:19.01Z</time></trkpt><trkpt lat="45.03504346436646" lon="9.636192588471129"><ele>67.0</ele><time>2026-04-07T08:56:21.011Z</time></trkpt><trkpt lat="45.03507579517294" lon="9.636271221743604"><ele>67.0</ele><time>2026-04-07T08:56:22.01Z</time></trkpt><trkpt lat="45.035134718280894" lon="9.63641404448807"><ele>67.0</ele><time>2026-04-07T08:56:24.01Z</time></trkpt><trkpt lat="45.035191168829705" lon="9.636569985181083"><ele>67.0</ele><time>2026-04-07T08:56:26.01Z</time></trkpt><trkpt lat="45.03524358726298" lon="9.636728083464138"><ele>67.0</ele><time>2026-04-07T08:56:28.01Z</time></trkpt><trkpt lat="45.03530474804941" lon="9.636873159957648"><ele>67.0</ele><time>2026-04-07T08:56:30.01Z</time></trkpt><trkpt lat="45.035331965158626" lon="9.636956415558636"><ele>67.0</ele><time>2026-04-07T08:56:31.01Z</time></trkpt><trkpt lat="45.03536387850111" lon="9.637033466775106"><ele>67.0</ele><time>2026-04-07T08:56:32.01Z</time></trkpt><trkpt lat="45.03541417683836" lon="9.637190083739599"><ele>67.0</ele><time>2026-04-07T08:56:34.01Z</time></trkpt><trkpt lat="45.03547336313044" lon="9.637342915586679"><ele>67.0</ele><time>2026-04-07T08:56:36.01Z</time></trkpt><trkpt lat="45.03550619017671" lon="9.637422301528522"><ele>67.0</ele><time>2026-04-07T08:56:37.01Z</time></trkpt><trkpt lat="45.03553524210669" lon="9.637502157935577"><ele>67.0</ele><time>2026-04-07T08:56:38.01Z</time></trkpt><trkpt lat="45.03559012167063" lon="9.637658144196754"><ele>67.0</ele><time>2026-04-07T08:56:40.01Z</time></trkpt><trkpt lat="45.03561578580878" lon="9.637741684941123"><ele>67.0</ele><time>2026-04-07T08:56:41.01Z</time></trkpt><trkpt lat="45.03567546893224" lon="9.637902974378063"><ele>67.0</ele><time>2026-04-07T08:56:43.01Z</time></trkpt><trkpt lat="45.0357040692405" lon="9.637984258833193"><ele>67.0</ele><time>2026-04-07T08:56:44.01Z</time></trkpt><trkpt lat="45.035763418764056" lon="9.638139241848668"><ele>67.0</ele><time>2026-04-07T08:56:46.01Z</time></trkpt><trkpt lat="45.03579484585168" lon="9.63821715617471"><ele>67.0</ele><time>2026-04-07T08:56:47.01Z</time></trkpt><trkpt lat="45.03585014656065" lon="9.63837583306869"><ele>67.0</ele><time>2026-04-07T08:56:49.01Z</time></trkpt><trkpt lat="45.03590961046003" lon="9.63853469910544"><ele>67.0</ele><time>2026-04-07T08:56:51.01Z</time></trkpt><trkpt lat="45.03596140859834" lon="9.638693249791752"><ele>67.0</ele><time>2026-04-07T08:56:53.01Z</time></trkpt><trkpt lat="45.03599200192044" lon="9.63877231295174"><ele>66.75</ele><time>2026-04-07T08:56:54.01Z</time></trkpt><trkpt lat="45.036045179071216" lon="9.63893076800545"><ele>66.5</ele><time>2026-04-07T08:56:56.01Z</time></trkpt><trkpt lat="45.03610736681555" lon="9.639085319092025"><ele>66.25</ele><time>2026-04-07T08:56:58.01Z</time></trkpt><trkpt lat="45.03616970593798" lon="9.639224869803813"><ele>66.0</ele><time>2026-04-07T08:57:00.01Z</time></trkpt><trkpt lat="45.03622178928709" lon="9.639381903545619"><ele>65.8</ele><time>2026-04-07T08:57:02.01Z</time></trkpt><trkpt lat="45.03628115503079" lon="9.63953064854405"><ele>65.6</ele><time>2026-04-07T08:57:04.01Z</time></trkpt><trkpt lat="45.03633519136125" lon="9.639688999118063"><ele>65.4</ele><time>2026-04-07T08:57:06.01Z</time></trkpt><trkpt lat="45.03636716163911" lon="9.639772544008718"><ele>65.2</ele><time>2026-04-07T08:57:07.01Z</time></trkpt><trkpt lat="45.036419654914994" lon="9.6399396994753"><ele>65.0</ele><time>2026-04-07T08:57:09.01Z</time></trkpt><trkpt lat="45.03647732379434" lon="9.640099463030325"><ele>65.0</ele><time>2026-04-07T08:57:11.01Z</time></trkpt><trkpt lat="45.036532510501864" lon="9.640254278613464"><ele>65.0</ele><time>2026-04-07T08:57:13.01Z</time></trkpt><trkpt lat="45.03656205163854" lon="9.6403380382926"><ele>65.0</ele><time>2026-04-07T08:57:14.01Z</time></trkpt><trkpt lat="45.03661873093086" lon="9.640493260954319"><ele>65.0</ele><time>2026-04-07T08:57:16.01Z</time></trkpt><trkpt lat="45.036665521797715" lon="9.64065762657501"><ele>65.0</ele><time>2026-04-07T08:57:18.01Z</time></trkpt><trkpt lat="45.0367324090121" lon="9.640812705630244"><ele>65.6</ele><time>2026-04-07T08:57:20.01Z</time></trkpt><trkpt lat="45.03679197099263" lon="9.640960498158174"><ele>66.2</ele><time>2026-04-07T08:57:22.01Z</time></trkpt><trkpt lat="45.036846297379796" lon="9.64112581807853"><ele>66.8</ele><time>2026-04-07T08:57:24.01Z</time></trkpt><trkpt lat="45.03687779650956" lon="9.6412194520949"><ele>67.4</ele><time>2026-04-07T08:57:25.01Z</time></trkpt><trkpt lat="45.0369069557606" lon="9.641304039857516"><ele>68.0</ele><time>2026-04-07T08:57:26.01Z</time></trkpt><trkpt lat="45.03694024321205" lon="9.64138764202701"><ele>68.0</ele><time>2026-04-07T08:57:27.01Z</time></trkpt><trkpt lat="45.0369949443479" lon="9.641544724721653"><ele>68.0</ele><time>2026-04-07T08:57:29.01Z</time></trkpt><trkpt lat="45.03705862299229" lon="9.641701912434513"><ele>68.0</ele><time>2026-04-07T08:57:31.01Z</time></trkpt><trkpt lat="45.03708731283136" lon="9.64180072409567"><ele>68.0</ele><time>2026-04-07T08:57:32.01Z</time></trkpt><trkpt lat="45.037138626830725" lon="9.641956857475051"><ele>68.0</ele><time>2026-04-07T08:57:34.01Z</time></trkpt><trkpt lat="45.037166785355986" lon="9.642058307564726"><ele>67.6</ele><time>2026-04-07T08:57:35.01Z</time></trkpt><trkpt lat="45.03722816324371" lon="9.64221329597468"><ele>67.19999999999999</ele><time>2026-04-07T08:57:37.01Z</time></trkpt><trkpt lat="45.03725338150301" lon="9.642297249854337"><ele>66.8</ele><time>2026-04-07T08:57:38.01Z</time></trkpt><trkpt lat="45.03730295253092" lon="9.642449693793488"><ele>66.39999999999999</ele><time>2026-04-07T08:57:40.01Z</time></trkpt><trkpt lat="45.037328968040484" lon="9.642538321890452"><ele>66.0</ele><time>2026-04-07T08:57:41.01Z</time></trkpt><trkpt lat="45.03737517911584" lon="9.642689361242498"><ele>65.8</ele><time>2026-04-07T08:57:43.01Z</time></trkpt><trkpt lat="45.03743485614619" lon="9.642839497915181"><ele>65.6</ele><time>2026-04-07T08:57:45.01Z</time></trkpt><trkpt lat="45.03748909410425" lon="9.64298691827914"><ele>65.4</ele><time>2026-04-07T08:57:47.01Z</time></trkpt><trkpt lat="45.037514643083796" lon="9.643068764502503"><ele>65.2</ele><time>2026-04-07T08:57:48.01Z</time></trkpt><trkpt lat="45.037564031846166" lon="9.643225824303164"><ele>65.0</ele><time>2026-04-07T08:57:50.01Z</time></trkpt><trkpt lat="45.03761577455368" lon="9.643373825217532"><ele>65.0</ele><time>2026-04-07T08:57:52.01Z</time></trkpt><trkpt lat="45.037683446417134" lon="9.643521936790338"><ele>65.0</ele><time>2026-04-07T08:57:54.01Z</time></trkpt><trkpt lat="45.03772767085013" lon="9.643685735504771"><ele>65.0</ele><time>2026-04-07T08:57:56.01Z</time></trkpt><trkpt lat="45.03774638717644" lon="9.64377860148078"><ele>65.0</ele><time>2026-04-07T08:57:57.01Z</time></trkpt><trkpt lat="45.037806974887154" lon="9.643923083949963"><ele>65.0</ele><time>2026-04-07T08:57:59.01Z</time></trkpt><trkpt lat="45.037861247772824" lon="9.644083450073737"><ele>65.0</ele><time>2026-04-07T08:58:01.01Z</time></trkpt><trkpt lat="45.03791929836303" lon="9.644242969822898"><ele>65.0</ele><time>2026-04-07T08:58:03.01Z</time></trkpt><trkpt lat="45.037983191237245" lon="9.644389447613081"><ele>65.0</ele><time>2026-04-07T08:58:05.01Z</time></trkpt><trkpt lat="45.03800601558014" lon="9.644472543525334"><ele>65.0</ele><time>2026-04-07T08:58:06.01Z</time></trkpt><trkpt lat="45.038033671651824" lon="9.64455944083538"><ele>65.0</ele><time>2026-04-07T08:58:07.01Z</time></trkpt><trkpt lat="45.03806056826745" lon="9.644641082683973"><ele>65.0</ele><time>2026-04-07T08:58:08.01Z</time></trkpt><trkpt lat="45.03808648696507" lon="9.644722847738159"><ele>65.28571428571429</ele><time>2026-04-07T08:58:09.01Z</time></trkpt><trkpt lat="45.03811663842319" lon="9.644806249808557"><ele>65.57142857142857</ele><time>2026-04-07T08:58:10.01Z</time></trkpt><trkpt lat="45.03814509681624" lon="9.644887888535912"><ele>65.85714285714286</ele><time>2026-04-07T08:58:11.01Z</time></trkpt><trkpt lat="45.03817539747028" lon="9.64497235855186"><ele>66.14285714285714</ele><time>2026-04-07T08:58:12.01Z</time></trkpt><trkpt lat="45.03820147452142" lon="9.645057424611275"><ele>66.42857142857143</ele><time>2026-04-07T08:58:13.01Z</time></trkpt><trkpt lat="45.03823061992034" lon="9.645142275069565"><ele>66.71428571428572</ele><time>2026-04-07T08:58:14.01Z</time></trkpt><trkpt lat="45.038258501420316" lon="9.645224422235863"><ele>67.0</ele><time>2026-04-07T08:58:15.01Z</time></trkpt><trkpt lat="45.03828978150205" lon="9.645304704483562"><ele>66.71428571428572</ele><time>2026-04-07T08:58:16.01Z</time></trkpt><trkpt lat="45.03832270084328" lon="9.645387302733093"><ele>66.42857142857143</ele><time>2026-04-07T08:58:17.01Z</time></trkpt><trkpt lat="45.038353445878165" lon="9.645466766937066"><ele>66.14285714285714</ele><time>2026-04-07T08:58:18.011Z</time></trkpt><trkpt lat="45.03838200362203" lon="9.6455510832465"><ele>65.85714285714286</ele><time>2026-04-07T08:58:19.01Z</time></trkpt><trkpt lat="45.03840736073618" lon="9.645633020886764"><ele>65.57142857142857</ele><time>2026-04-07T08:58:20.01Z</time></trkpt><trkpt lat="45.03843629408607" lon="9.645717998782583"><ele>65.28571428571429</ele><time>2026-04-07T08:58:21.011Z</time></trkpt><trkpt lat="45.03846655445542" lon="9.64580328822398"><ele>65.0</ele><time>2026-04-07T08:58:22.011Z</time></trkpt><trkpt lat="45.0384953731618" lon="9.645883812668215"><ele>65.0</ele><time>2026-04-07T08:58:23.011Z</time></trkpt><trkpt lat="45.038519693456976" lon="9.645968030072906"><ele>65.0</ele><time>2026-04-07T08:58:24.011Z</time></trkpt><trkpt lat="45.038548461820724" lon="9.646051252138859"><ele>65.0</ele><time>2026-04-07T08:58:25.011Z</time></trkpt><trkpt lat="45.03860127432941" lon="9.64620407814374"><ele>65.0</ele><time>2026-04-07T08:58:27.011Z</time></trkpt><trkpt lat="45.03862919766612" lon="9.646292746882038"><ele>65.0</ele><time>2026-04-07T08:58:28.011Z</time></trkpt><trkpt lat="45.038683077740544" lon="9.64644675686766"><ele>65.0</ele><time>2026-04-07T08:58:30.011Z</time></trkpt><trkpt lat="45.03873796146294" lon="9.646598833514862"><ele>64.8</ele><time>2026-04-07T08:58:32.011Z</time></trkpt><trkpt lat="45.038791611298706" lon="9.646759066833077"><ele>64.6</ele><time>2026-04-07T08:58:34.011Z</time></trkpt><trkpt lat="45.03884684915023" lon="9.646905855919272"><ele>64.4</ele><time>2026-04-07T08:58:36.011Z</time></trkpt><trkpt lat="45.038877967106636" lon="9.646992271357966"><ele>64.2</ele><time>2026-04-07T08:58:37.011Z</time></trkpt><trkpt lat="45.038934062281136" lon="9.647142538361674"><ele>64.0</ele><time>2026-04-07T08:58:39.011Z</time></trkpt><trkpt lat="45.03899038969817" lon="9.647295525814412"><ele>64.5</ele><time>2026-04-07T08:58:41.011Z</time></trkpt><trkpt lat="45.039045590086204" lon="9.647448884707964"><ele>65.0</ele><time>2026-04-07T08:58:43.011Z</time></trkpt><trkpt lat="45.039100555046055" lon="9.647604515956832"><ele>65.5</ele><time>2026-04-07T08:58:45.011Z</time></trkpt><trkpt lat="45.039160188382006" lon="9.647761157750491"><ele>66.0</ele><time>2026-04-07T08:58:47.011Z</time></trkpt><trkpt lat="45.039215050426314" lon="9.647917694911747"><ele>65.16666666666667</ele><time>2026-04-07T08:58:49.011Z</time></trkpt><trkpt lat="45.03926991911816" lon="9.648076870075544"><ele>64.33333333333333</ele><time>2026-04-07T08:58:51.011Z</time></trkpt><trkpt lat="45.03932494232437" lon="9.648235096565623"><ele>63.5</ele><time>2026-04-07T08:58:53.011Z</time></trkpt><trkpt lat="45.03935808294608" lon="9.648312268511592"><ele>62.666666666666664</ele><time>2026-04-07T08:58:54.011Z</time></trkpt><trkpt lat="45.03938732546564" lon="9.648393188036877"><ele>61.83333333333333</ele><time>2026-04-07T08:58:55.011Z</time></trkpt><trkpt lat="45.039413620477355" lon="9.648475875371158"><ele>61.0</ele><time>2026-04-07T08:58:56.011Z</time></trkpt><trkpt lat="45.03944399973795" lon="9.648561262301786"><ele>61.0</ele><time>2026-04-07T08:58:57.011Z</time></trkpt><trkpt lat="45.03949643964182" lon="9.648720898589144"><ele>60.99999999999999</ele><time>2026-04-07T08:58:59.011Z</time></trkpt><trkpt lat="45.039520188020624" lon="9.648805839398005"><ele>60.99999999999999</ele><time>2026-04-07T08:59:00.011Z</time></trkpt><trkpt lat="45.039574567746406" lon="9.648958720983988"><ele>61.0</ele><time>2026-04-07T08:59:02.011Z</time></trkpt><trkpt lat="45.03962681279643" lon="9.649108526828586"><ele>61.0</ele><time>2026-04-07T08:59:04.011Z</time></trkpt><trkpt lat="45.03965299687753" lon="9.64919088240843"><ele>61.0</ele><time>2026-04-07T08:59:05.011Z</time></trkpt><trkpt lat="45.039706411484325" lon="9.649344111722005"><ele>60.99999999999999</ele><time>2026-04-07T08:59:07.011Z</time></trkpt><trkpt lat="45.039757002067056" lon="9.649498385168092"><ele>60.99999999999999</ele><time>2026-04-07T08:59:09.011Z</time></trkpt><trkpt lat="45.03978444699143" lon="9.64957912192025"><ele>61.0</ele><time>2026-04-07T08:59:10.011Z</time></trkpt><trkpt lat="45.03983730550635" lon="9.649731062564904"><ele>61.0</ele><time>2026-04-07T08:59:12.011Z</time></trkpt><trkpt lat="45.03988964255959" lon="9.649887109624792"><ele>61.0</ele><time>2026-04-07T08:59:14.011Z</time></trkpt><trkpt lat="45.03994180312486" lon="9.650039507706374"><ele>61.0</ele><time>2026-04-07T08:59:16.011Z</time></trkpt><trkpt lat="45.03999508129419" lon="9.650192030774173"><ele>61.0</ele><time>2026-04-07T08:59:18.011Z</time></trkpt><trkpt lat="45.04004952489392" lon="9.65035005824477"><ele>61.0</ele><time>2026-04-07T08:59:20.011Z</time></trkpt><trkpt lat="45.040107160394186" lon="9.650502422300512"><ele>61.0</ele><time>2026-04-07T08:59:22.011Z</time></trkpt><trkpt lat="45.04016285967854" lon="9.650659389329324"><ele>60.99999999999999</ele><time>2026-04-07T08:59:24.011Z</time></trkpt><trkpt lat="45.04022048217308" lon="9.650817637034176"><ele>60.99999999999999</ele><time>2026-04-07T08:59:26.011Z</time></trkpt><trkpt lat="45.040250217315666" lon="9.650899529504231"><ele>61.0</ele><time>2026-04-07T08:59:27.011Z</time></trkpt><trkpt lat="45.04030789360118" lon="9.65105352761258"><ele>61.0</ele><time>2026-04-07T08:59:29.011Z</time></trkpt><trkpt lat="45.040335506000105" lon="9.651134408530865"><ele>60.8</ele><time>2026-04-07T08:59:30.011Z</time></trkpt><trkpt lat="45.040367569123326" lon="9.65122101920807"><ele>60.599999999999994</ele><time>2026-04-07T08:59:31.011Z</time></trkpt><trkpt lat="45.040423154449044" lon="9.651372883246532"><ele>60.4</ele><time>2026-04-07T08:59:33.011Z</time></trkpt><trkpt lat="45.04044907933636" lon="9.651454278335484"><ele>60.2</ele><time>2026-04-07T08:59:34.011Z</time></trkpt><trkpt lat="45.04050411537772" lon="9.651613659118839"><ele>60.0</ele><time>2026-04-07T08:59:36.011Z</time></trkpt><trkpt lat="45.0405613376907" lon="9.651769482764314"><ele>60.0</ele><time>2026-04-07T08:59:38.011Z</time></trkpt><trkpt lat="45.040591604443485" lon="9.651848510380491"><ele>60.0</ele><time>2026-04-07T08:59:39.011Z</time></trkpt><trkpt lat="45.04062448145123" lon="9.651932353122646"><ele>60.0</ele><time>2026-04-07T08:59:40.011Z</time></trkpt><trkpt lat="45.04067701747758" lon="9.652084853982572"><ele>60.0</ele><time>2026-04-07T08:59:42.011Z</time></trkpt><trkpt lat="45.040738091095896" lon="9.65224112476251"><ele>60.0</ele><time>2026-04-07T08:59:44.011Z</time></trkpt><trkpt lat="45.04079291202023" lon="9.652388807168549"><ele>60.0</ele><time>2026-04-07T08:59:46.011Z</time></trkpt><trkpt lat="45.040853523935304" lon="9.652539344128925"><ele>60.0</ele><time>2026-04-07T08:59:48.011Z</time></trkpt><trkpt lat="45.04088180954162" lon="9.652624364297596"><ele>60.0</ele><time>2026-04-07T08:59:49.011Z</time></trkpt><trkpt lat="45.04093936630244" lon="9.652778704102458"><ele>60.0</ele><time>2026-04-07T08:59:51.011Z</time></trkpt><trkpt lat="45.04097045465171" lon="9.652857099991447"><ele>60.0</ele><time>2026-04-07T08:59:52.011Z</time></trkpt><trkpt lat="45.041023115539076" lon="9.6530174060256"><ele>60.0</ele><time>2026-04-07T08:59:54.011Z</time></trkpt><trkpt lat="45.04105042786218" lon="9.653099102120862"><ele>60.0</ele><time>2026-04-07T08:59:55.011Z</time></trkpt><trkpt lat="45.04110885042646" lon="9.653252316962018"><ele>60.0</ele><time>2026-04-07T08:59:57.011Z</time></trkpt><trkpt lat="45.04116586211167" lon="9.653406603822782"><ele>60.0</ele><time>2026-04-07T08:59:59.011Z</time></trkpt><trkpt lat="45.0411980229664" lon="9.65348453387947"><ele>60.0</ele><time>2026-04-07T09:00:00.011Z</time></trkpt><trkpt lat="45.04125630599232" lon="9.653632721346543"><ele>59.8</ele><time>2026-04-07T09:00:02.011Z</time></trkpt><trkpt lat="45.041283899342844" lon="9.653718488412478"><ele>59.6</ele><time>2026-04-07T09:00:03.011Z</time></trkpt><trkpt lat="45.041342579938195" lon="9.653863614143527"><ele>59.400000000000006</ele><time>2026-04-07T09:00:05.011Z</time></trkpt><trkpt lat="45.04139843597204" lon="9.654018773984218"><ele>59.2</ele><time>2026-04-07T09:00:07.011Z</time></trkpt><trkpt lat="45.04145304153748" lon="9.654176640369258"><ele>59.0</ele><time>2026-04-07T09:00:09.011Z</time></trkpt><trkpt lat="45.04148389162485" lon="9.654255549255"><ele>59.00000000000001</ele><time>2026-04-07T09:00:10.011Z</time></trkpt><trkpt lat="45.041540700312204" lon="9.654409705247849"><ele>59.0</ele><time>2026-04-07T09:00:12.011Z</time></trkpt><trkpt lat="45.041593274998824" lon="9.654564488363354"><ele>59.0</ele><time>2026-04-07T09:00:14.011Z</time></trkpt><trkpt lat="45.041624305046554" lon="9.65464394662261"><ele>59.0</ele><time>2026-04-07T09:00:15.011Z</time></trkpt><trkpt lat="45.041652893567615" lon="9.654723656308127"><ele>59.00000000000001</ele><time>2026-04-07T09:00:16.011Z</time></trkpt><trkpt lat="45.041676323802626" lon="9.654808128867815"><ele>59.0</ele><time>2026-04-07T09:00:17.011Z</time></trkpt><trkpt lat="45.041708431920746" lon="9.654890902077332"><ele>59.66666666666667</ele><time>2026-04-07T09:00:18.011Z</time></trkpt><trkpt lat="45.0417369489742" lon="9.654970417667407"><ele>60.333333333333336</ele><time>2026-04-07T09:00:19.011Z</time></trkpt><trkpt lat="45.04176853000616" lon="9.655052271536626"><ele>61.0</ele><time>2026-04-07T09:00:20.011Z</time></trkpt><trkpt lat="45.041796197339366" lon="9.655135968501728"><ele>61.66666666666667</ele><time>2026-04-07T09:00:21.011Z</time></trkpt><trkpt lat="45.04185461053969" lon="9.655301214362295"><ele>62.333333333333336</ele><time>2026-04-07T09:00:23.011Z</time></trkpt><trkpt lat="45.04188012470473" lon="9.65538790973222"><ele>63.0</ele><time>2026-04-07T09:00:24.012Z</time></trkpt><trkpt lat="45.04193200533821" lon="9.655548730862023"><ele>63.0</ele><time>2026-04-07T09:00:26.011Z</time></trkpt><trkpt lat="45.04196091386941" lon="9.655635599280457"><ele>63.0</ele><time>2026-04-07T09:00:27.012Z</time></trkpt><trkpt lat="45.04199553203135" lon="9.655712053700933"><ele>63.0</ele><time>2026-04-07T09:00:28.011Z</time></trkpt><trkpt lat="45.04202214421889" lon="9.6557938012201"><ele>63.0</ele><time>2026-04-07T09:00:29.011Z</time></trkpt><trkpt lat="45.04205382164976" lon="9.655871803032575"><ele>63.0</ele><time>2026-04-07T09:00:30.012Z</time></trkpt><trkpt lat="45.04208018964324" lon="9.655953627571078"><ele>63.0</ele><time>2026-04-07T09:00:31.012Z</time></trkpt><trkpt lat="45.042136277770005" lon="9.656103040982607"><ele>63.0</ele><time>2026-04-07T09:00:33.011Z</time></trkpt><trkpt lat="45.04219083200186" lon="9.656247043295219"><ele>63.2</ele><time>2026-04-07T09:00:35.011Z</time></trkpt><trkpt lat="45.04224520251074" lon="9.656385666175993"><ele>63.4</ele><time>2026-04-07T09:00:37.011Z</time></trkpt><trkpt lat="45.042288733911285" lon="9.656519914415023"><ele>63.60000000000001</ele><time>2026-04-07T09:00:39.011Z</time></trkpt><trkpt lat="45.04233381675819" lon="9.656650549861533"><ele>63.800000000000004</ele><time>2026-04-07T09:00:41.011Z</time></trkpt><trkpt lat="45.04238359531033" lon="9.656784243487925"><ele>64.0</ele><time>2026-04-07T09:00:43.011Z</time></trkpt><trkpt lat="45.04243576857861" lon="9.656912256875573"><ele>63.25</ele><time>2026-04-07T09:00:45.011Z</time></trkpt><trkpt lat="45.04247689765207" lon="9.657063488212001"><ele>62.5</ele><time>2026-04-07T09:00:47.011Z</time></trkpt><trkpt lat="45.04252874258756" lon="9.657211034242517"><ele>61.75</ele><time>2026-04-07T09:00:49.011Z</time></trkpt><trkpt lat="45.04257986440739" lon="9.657358970916697"><ele>61.0</ele><time>2026-04-07T09:00:51.011Z</time></trkpt><trkpt lat="45.042628988278565" lon="9.65749381256637"><ele>61.0</ele><time>2026-04-07T09:00:53.011Z</time></trkpt><trkpt lat="45.0426789588186" lon="9.657639786449575"><ele>60.99999999999999</ele><time>2026-04-07T09:00:55.011Z</time></trkpt><trkpt lat="45.04272683748582" lon="9.657776660198781"><ele>60.99999999999999</ele><time>2026-04-07T09:00:57.011Z</time></trkpt><trkpt lat="45.042772993503036" lon="9.657924394483747"><ele>61.0</ele><time>2026-04-07T09:00:59.011Z</time></trkpt><trkpt lat="45.042820339863916" lon="9.65805854871622"><ele>61.0</ele><time>2026-04-07T09:01:01.011Z</time></trkpt><trkpt lat="45.04287242041194" lon="9.658195387098086"><ele>61.0</ele><time>2026-04-07T09:01:03.011Z</time></trkpt><trkpt lat="45.04291980020045" lon="9.658329792552347"><ele>61.0</ele><time>2026-04-07T09:01:05.011Z</time></trkpt><trkpt lat="45.04297646531404" lon="9.658464661797385"><ele>61.0</ele><time>2026-04-07T09:01:07.011Z</time></trkpt><trkpt lat="45.04302156044536" lon="9.65860922684686"><ele>61.0</ele><time>2026-04-07T09:01:09.011Z</time></trkpt><trkpt lat="45.043086740328015" lon="9.658753559474306"><ele>61.5</ele><time>2026-04-07T09:01:11.011Z</time></trkpt><trkpt lat="45.04312799223427" lon="9.658900319093274"><ele>62.0</ele><time>2026-04-07T09:01:13.011Z</time></trkpt><trkpt lat="45.04318335137913" lon="9.659035186520063"><ele>62.5</ele><time>2026-04-07T09:01:15.011Z</time></trkpt><trkpt lat="45.04323182079133" lon="9.659192090424966"><ele>63.0</ele><time>2026-04-07T09:01:17.011Z</time></trkpt><trkpt lat="45.043282405817855" lon="9.659329600422739"><ele>62.25</ele><time>2026-04-07T09:01:19.011Z</time></trkpt><trkpt lat="45.04333112698419" lon="9.65947194942447"><ele>61.5</ele><time>2026-04-07T09:01:21.011Z</time></trkpt><trkpt lat="45.04337563869913" lon="9.659618019477525"><ele>60.75</ele><time>2026-04-07T09:01:23.011Z</time></trkpt><trkpt lat="45.04343070133268" lon="9.659766040692102"><ele>60.0</ele><time>2026-04-07T09:01:25.011Z</time></trkpt><trkpt lat="45.043461967145866" lon="9.659926972430995"><ele>60.0</ele><time>2026-04-07T09:01:27.011Z</time></trkpt><trkpt lat="45.04345889877575" lon="9.660101078061079"><ele>60.0</ele><time>2026-04-07T09:01:29.011Z</time></trkpt><trkpt lat="45.04344769333828" lon="9.660263595480568"><ele>60.0</ele><time>2026-04-07T09:01:31.011Z</time></trkpt><trkpt lat="45.04345225851055" lon="9.660417151625735"><ele>60.0</ele><time>2026-04-07T09:01:33.011Z</time></trkpt><trkpt lat="45.043521921679016" lon="9.660516253458741"><ele>60.0</ele><time>2026-04-07T09:01:35.011Z</time></trkpt><trkpt lat="45.04362602802565" lon="9.660500016234154"><ele>60.0</ele><time>2026-04-07T09:01:37.011Z</time></trkpt><trkpt lat="45.04371400319077" lon="9.66048506875258"><ele>60.0</ele><time>2026-04-07T09:01:39.011Z</time></trkpt><trkpt lat="45.04377562462043" lon="9.660384851448462"><ele>60.0</ele><time>2026-04-07T09:01:41.011Z</time></trkpt><trkpt lat="45.043815616166775" lon="9.66028401121526"><ele>60.0</ele><time>2026-04-07T09:01:43.011Z</time></trkpt><trkpt lat="45.04390457813734" lon="9.660244023717146"><ele>60.0</ele><time>2026-04-07T09:01:46.011Z</time></trkpt><trkpt lat="45.043979631552816" lon="9.660230025416835"><ele>60.0</ele><time>2026-04-07T09:01:48.011Z</time></trkpt><trkpt lat="45.04406211806127" lon="9.660225677786668"><ele>59.666666666666664</ele><time>2026-04-07T09:01:50.011Z</time></trkpt><trkpt lat="45.04414746092954" lon="9.660249419465153"><ele>59.33333333333333</ele><time>2026-04-07T09:01:52.011Z</time></trkpt><trkpt lat="45.04421980142382" lon="9.660344928606973"><ele>59.0</ele><time>2026-04-07T09:01:54.011Z</time></trkpt><trkpt lat="45.04428024254096" lon="9.660431221529832"><ele>58.666666666666664</ele><time>2026-04-07T09:01:56.011Z</time></trkpt><trkpt lat="45.04434004100338" lon="9.66050007929024"><ele>58.33333333333333</ele><time>2026-04-07T09:01:58.011Z</time></trkpt><trkpt lat="45.044387420347455" lon="9.660569861589522"><ele>58.0</ele><time>2026-04-07T09:02:00.011Z</time></trkpt><trkpt lat="45.04442057869284" lon="9.660707188319833"><ele>58.0</ele><time>2026-04-07T09:02:03.011Z</time></trkpt><trkpt lat="45.04443662251255" lon="9.660839071277032"><ele>58.0</ele><time>2026-04-07T09:02:05.011Z</time></trkpt><trkpt lat="45.04444730831777" lon="9.660966752159435"><ele>58.0</ele><time>2026-04-07T09:02:07.011Z</time></trkpt><trkpt lat="45.04447508189819" lon="9.661105491496254"><ele>58.0</ele><time>2026-04-07T09:02:09.011Z</time></trkpt><trkpt lat="45.044493943143856" lon="9.66124898322996"><ele>58.0</ele><time>2026-04-07T09:02:11.011Z</time></trkpt><trkpt lat="45.044509228080884" lon="9.661388992532892"><ele>58.8</ele><time>2026-04-07T09:02:13.011Z</time></trkpt><trkpt lat="45.04453874412402" lon="9.661529753031559"><ele>59.599999999999994</ele><time>2026-04-07T09:02:15.011Z</time></trkpt><trkpt lat="45.0445593800285" lon="9.661672294735874"><ele>60.400000000000006</ele><time>2026-04-07T09:02:17.011Z</time></trkpt><trkpt lat="45.044577761826915" lon="9.661814261133797"><ele>61.2</ele><time>2026-04-07T09:02:19.011Z</time></trkpt><trkpt lat="45.04460758366534" lon="9.661961224877055"><ele>62.0</ele><time>2026-04-07T09:02:21.011Z</time></trkpt><trkpt lat="45.04462844444309" lon="9.662107396436621"><ele>62.0</ele><time>2026-04-07T09:02:23.011Z</time></trkpt><trkpt lat="45.04465311339886" lon="9.662252197565193"><ele>62.0</ele><time>2026-04-07T09:02:25.011Z</time></trkpt><trkpt lat="45.04467134713748" lon="9.66240281712927"><ele>62.0</ele><time>2026-04-07T09:02:27.011Z</time></trkpt><trkpt lat="45.04469919454395" lon="9.662542793255106"><ele>62.0</ele><time>2026-04-07T09:02:29.011Z</time></trkpt><trkpt lat="45.04471569621368" lon="9.66268809516376"><ele>62.0</ele><time>2026-04-07T09:02:31.013Z</time></trkpt><trkpt lat="45.04474499797489" lon="9.662833422495364"><ele>62.0</ele><time>2026-04-07T09:02:33.013Z</time></trkpt><trkpt lat="45.044770646109306" lon="9.662980756454468"><ele>62.0</ele><time>2026-04-07T09:02:35.012Z</time></trkpt><trkpt lat="45.04479218523405" lon="9.66312841564856"><ele>62.0</ele><time>2026-04-07T09:02:37.013Z</time></trkpt><trkpt lat="45.044838123067365" lon="9.663272401259043"><ele>62.0</ele><time>2026-04-07T09:02:39.013Z</time></trkpt><trkpt lat="45.044879782531254" lon="9.663396441371468"><ele>62.0</ele><time>2026-04-07T09:02:41.013Z</time></trkpt><trkpt lat="45.04490148195817" lon="9.663535422088346"><ele>62.5</ele><time>2026-04-07T09:02:43.013Z</time></trkpt><trkpt lat="45.044940290649336" lon="9.663687891415123"><ele>63.0</ele><time>2026-04-07T09:02:45.013Z</time></trkpt><trkpt lat="45.04497894906175" lon="9.663841946588295"><ele>63.5</ele><time>2026-04-07T09:02:47.013Z</time></trkpt><trkpt lat="45.04503358839048" lon="9.663978719683879"><ele>64.0</ele><time>2026-04-07T09:02:49.013Z</time></trkpt><trkpt lat="45.04508203595938" lon="9.664118151313323"><ele>63.6</ele><time>2026-04-07T09:02:51.013Z</time></trkpt><trkpt lat="45.04510629418833" lon="9.664204279235678"><ele>63.2</ele><time>2026-04-07T09:02:52.013Z</time></trkpt><trkpt lat="45.04516062694586" lon="9.66434439172982"><ele>62.800000000000004</ele><time>2026-04-07T09:02:54.013Z</time></trkpt><trkpt lat="45.04520983629787" lon="9.664489241524704"><ele>62.400000000000006</ele><time>2026-04-07T09:02:56.013Z</time></trkpt><trkpt lat="45.04525970795457" lon="9.664629824590046"><ele>62.0</ele><time>2026-04-07T09:02:58.013Z</time></trkpt><trkpt lat="45.045308867369755" lon="9.664767197865613"><ele>62.00000000000001</ele><time>2026-04-07T09:03:00.013Z</time></trkpt><trkpt lat="45.04535367096838" lon="9.664900778349384"><ele>62.0</ele><time>2026-04-07T09:03:02.013Z</time></trkpt><trkpt lat="45.0453972952201" lon="9.66502860430354"><ele>62.0</ele><time>2026-04-07T09:03:04.013Z</time></trkpt><trkpt lat="45.045434715300665" lon="9.665104149797905"><ele>62.0</ele><time>2026-04-07T09:03:06.013Z</time></trkpt><trkpt lat="45.045501713128665" lon="9.665090824325592"><ele>62.00000000000001</ele><time>2026-04-07T09:03:09.013Z</time></trkpt><trkpt lat="45.04555453191535" lon="9.665179978476125"><ele>62.0</ele><time>2026-04-07T09:03:14.013Z</time></trkpt><trkpt lat="45.045539337489615" lon="9.665270539893038"><ele>62.00000000000001</ele><time>2026-04-07T09:03:16.013Z</time></trkpt><trkpt lat="45.04551867585504" lon="9.665378636029345"><ele>62.0</ele><time>2026-04-07T09:03:18.013Z</time></trkpt><trkpt lat="45.04554683182433" lon="9.66548891569207"><ele>62.0</ele><time>2026-04-07T09:03:20.013Z</time></trkpt><trkpt lat="45.04558775193254" lon="9.66558994297349"><ele>62.0</ele><time>2026-04-07T09:03:22.013Z</time></trkpt><trkpt lat="45.045625520781485" lon="9.66569823552068"><ele>62.00000000000001</ele><time>2026-04-07T09:03:24.013Z</time></trkpt><trkpt lat="45.04565662636392" lon="9.665792761752146"><ele>62.0</ele><time>2026-04-07T09:03:26.013Z</time></trkpt><trkpt lat="45.045682109205366" lon="9.665886702927285"><ele>62.00000000000001</ele><time>2026-04-07T09:03:28.013Z</time></trkpt><trkpt lat="45.04570795722551" lon="9.665969771239057"><ele>62.0</ele><time>2026-04-07T09:03:31.013Z</time></trkpt><trkpt lat="45.04568728216406" lon="9.66605420370965"><ele>62.0</ele><time>2026-04-07T09:03:35.013Z</time></trkpt><trkpt lat="45.04567748463409" lon="9.666144593202896"><ele>62.0</ele><time>2026-04-07T09:03:42.013Z</time></trkpt><trkpt lat="45.045662377279186" lon="9.666260564008853"><ele>62.00000000000001</ele><time>2026-04-07T09:03:45.013Z</time></trkpt><trkpt lat="45.04571057352744" lon="9.666372556689057"><ele>62.0</ele><time>2026-04-07T09:03:47.013Z</time></trkpt><trkpt lat="45.04575843892615" lon="9.666481541620792"><ele>62.00000000000001</ele><time>2026-04-07T09:03:49.013Z</time></trkpt><trkpt lat="45.04580204869716" lon="9.66660725950786"><ele>62.0</ele><time>2026-04-07T09:03:51.013Z</time></trkpt><trkpt lat="45.04585208813441" lon="9.666725998564548"><ele>62.0</ele><time>2026-04-07T09:03:53.013Z</time></trkpt><trkpt lat="45.04589904251419" lon="9.6668345222761"><ele>62.0</ele><time>2026-04-07T09:03:55.013Z</time></trkpt><trkpt lat="45.045942136421495" lon="9.666945400484703"><ele>62.00000000000001</ele><time>2026-04-07T09:03:57.013Z</time></trkpt><trkpt lat="45.045984773368936" lon="9.667026595931967"><ele>62.0</ele><time>2026-04-07T09:03:59.013Z</time></trkpt><trkpt lat="45.045925492299574" lon="9.667126595163776"><ele>61.833333333333336</ele><time>2026-04-07T09:04:03.013Z</time></trkpt><trkpt lat="45.045850428568976" lon="9.667188169166717"><ele>61.66666666666667</ele><time>2026-04-07T09:04:05.013Z</time></trkpt><trkpt lat="45.04578354184311" lon="9.667250765287067"><ele>61.5</ele><time>2026-04-07T09:04:07.013Z</time></trkpt><trkpt lat="45.04571713904181" lon="9.667312290883581"><ele>61.33333333333333</ele><time>2026-04-07T09:04:09.013Z</time></trkpt><trkpt lat="45.045661130001044" lon="9.667377275947429"><ele>61.166666666666664</ele><time>2026-04-07T09:04:11.013Z</time></trkpt><trkpt lat="45.04565070152636" lon="9.667497137309049"><ele>61.0</ele><time>2026-04-07T09:04:14.013Z</time></trkpt><trkpt lat="45.045559833106104" lon="9.667573944420644"><ele>60.83333333333333</ele><time>2026-04-07T09:04:17.013Z</time></trkpt><trkpt lat="45.04549568403206" lon="9.667640367791448"><ele>60.666666666666664</ele><time>2026-04-07T09:04:19.013Z</time></trkpt><trkpt lat="45.045429049362276" lon="9.66768819018062"><ele>60.5</ele><time>2026-04-07T09:04:21.013Z</time></trkpt><trkpt lat="45.04535456012298" lon="9.667756184757534"><ele>60.33333333333333</ele><time>2026-04-07T09:04:23.013Z</time></trkpt><trkpt lat="45.04527943108501" lon="9.66783311304557"><ele>60.166666666666664</ele><time>2026-04-07T09:04:25.013Z</time></trkpt><trkpt lat="45.04521252594949" lon="9.667898747121836"><ele>60.0</ele><time>2026-04-07T09:04:27.013Z</time></trkpt><trkpt lat="45.04513266084008" lon="9.667959799598727"><ele>59.833333333333336</ele><time>2026-04-07T09:04:29.013Z</time></trkpt><trkpt lat="45.045070582419434" lon="9.668038787722988"><ele>59.66666666666667</ele><time>2026-04-07T09:04:31.013Z</time></trkpt><trkpt lat="45.04500216467127" lon="9.66810057669252"><ele>59.5</ele><time>2026-04-07T09:04:33.013Z</time></trkpt><trkpt lat="45.04493901570411" lon="9.66816299720408"><ele>59.333333333333336</ele><time>2026-04-07T09:04:35.013Z</time></trkpt><trkpt lat="45.04487101357771" lon="9.668206001356387"><ele>59.16666666666667</ele><time>2026-04-07T09:04:37.013Z</time></trkpt><trkpt lat="45.0448171244918" lon="9.668271640386305"><ele>59.0</ele><time>2026-04-07T09:04:39.014Z</time></trkpt><trkpt lat="45.04475838792539" lon="9.668324087662892"><ele>59.0</ele><time>2026-04-07T09:04:41.013Z</time></trkpt><trkpt lat="45.04468441203671" lon="9.668405235598389"><ele>59.00000000000001</ele><time>2026-04-07T09:04:43.013Z</time></trkpt><trkpt lat="45.04460179118003" lon="9.668471881867813"><ele>59.00000000000001</ele><time>2026-04-07T09:04:45.013Z</time></trkpt><trkpt lat="45.0445246030116" lon="9.6685344546962"><ele>59.0</ele><time>2026-04-07T09:04:47.013Z</time></trkpt><trkpt lat="45.0444430168877" lon="9.66861285346656"><ele>59.0</ele><time>2026-04-07T09:04:49.013Z</time></trkpt><trkpt lat="45.0443677483862" lon="9.668694765422226"><ele>58.800000000000004</ele><time>2026-04-07T09:04:51.013Z</time></trkpt><trkpt lat="45.04428067328252" lon="9.668766258496241"><ele>58.60000000000001</ele><time>2026-04-07T09:04:53.013Z</time></trkpt><trkpt lat="45.044197474852304" lon="9.668849428840742"><ele>58.4</ele><time>2026-04-07T09:04:55.013Z</time></trkpt><trkpt lat="45.044120952606434" lon="9.668915359586704"><ele>58.2</ele><time>2026-04-07T09:04:57.013Z</time></trkpt><trkpt lat="45.04405585243155" lon="9.668976384793199"><ele>58.0</ele><time>2026-04-07T09:04:59.013Z</time></trkpt><trkpt lat="45.04398532207802" lon="9.669047601933784"><ele>58.33333333333333</ele><time>2026-04-07T09:05:01.013Z</time></trkpt><trkpt lat="45.04392411649487" lon="9.6691031504177"><ele>58.666666666666664</ele><time>2026-04-07T09:05:03.013Z</time></trkpt><trkpt lat="45.043861816276625" lon="9.66915593749186"><ele>59.0</ele><time>2026-04-07T09:05:05.013Z</time></trkpt><trkpt lat="45.04380916174201" lon="9.66922583322415"><ele>59.33333333333333</ele><time>2026-04-07T09:05:07.013Z</time></trkpt><trkpt lat="45.043749903511106" lon="9.669325076518549"><ele>59.666666666666664</ele><time>2026-04-07T09:05:09.013Z</time></trkpt><trkpt lat="45.0436778099152" lon="9.6694216630999"><ele>60.0</ele><time>2026-04-07T09:05:11.013Z</time></trkpt><trkpt lat="45.04359759878276" lon="9.669507031012241"><ele>60.0</ele><time>2026-04-07T09:05:13.013Z</time></trkpt><trkpt lat="45.043522668662014" lon="9.669600786637794"><ele>60.0</ele><time>2026-04-07T09:05:15.013Z</time></trkpt><trkpt lat="45.043451760528264" lon="9.669692639197581"><ele>60.0</ele><time>2026-04-07T09:05:17.013Z</time></trkpt><trkpt lat="45.04336807851257" lon="9.66978943260795"><ele>60.0</ele><time>2026-04-07T09:05:19.013Z</time></trkpt><trkpt lat="45.04330429755762" lon="9.66989716891815"><ele>60.0</ele><time>2026-04-07T09:05:21.013Z</time></trkpt><trkpt lat="45.043231066655274" lon="9.669986313501482"><ele>60.0</ele><time>2026-04-07T09:05:23.013Z</time></trkpt><trkpt lat="45.04316018365887" lon="9.670094619634229"><ele>60.0</ele><time>2026-04-07T09:05:25.013Z</time></trkpt><trkpt lat="45.043079990203985" lon="9.670199089030111"><ele>60.0</ele><time>2026-04-07T09:05:27.013Z</time></trkpt><trkpt lat="45.04299937863249" lon="9.670315429578068"><ele>60.0</ele><time>2026-04-07T09:05:29.013Z</time></trkpt><trkpt lat="45.042937539102056" lon="9.670410385771113"><ele>60.0</ele><time>2026-04-07T09:05:31.013Z</time></trkpt><trkpt lat="45.04286455577851" lon="9.67050822698642"><ele>60.4</ele><time>2026-04-07T09:05:33.013Z</time></trkpt><trkpt lat="45.04279569525536" lon="9.670615216420547"><ele>60.8</ele><time>2026-04-07T09:05:35.013Z</time></trkpt><trkpt lat="45.04272911722927" lon="9.670727814964941"><ele>61.2</ele><time>2026-04-07T09:05:37.013Z</time></trkpt><trkpt lat="45.04263618459006" lon="9.670830083356305"><ele>61.6</ele><time>2026-04-07T09:05:39.013Z</time></trkpt><trkpt lat="45.04256569076477" lon="9.670933117541175"><ele>62.0</ele><time>2026-04-07T09:05:41.013Z</time></trkpt><trkpt lat="45.04252381803756" lon="9.670999896541622"><ele>61.8</ele><time>2026-04-07T09:05:42.013Z</time></trkpt><trkpt lat="45.04244646803199" lon="9.67109749182765"><ele>61.6</ele><time>2026-04-07T09:05:44.013Z</time></trkpt><trkpt lat="45.04237472373429" lon="9.671209542926844"><ele>61.39999999999999</ele><time>2026-04-07T09:05:46.013Z</time></trkpt><trkpt lat="45.04229923480667" lon="9.671316573311856"><ele>61.199999999999996</ele><time>2026-04-07T09:05:48.013Z</time></trkpt><trkpt lat="45.0422162797046" lon="9.671411717876312"><ele>61.0</ele><time>2026-04-07T09:05:50.013Z</time></trkpt><trkpt lat="45.042142353617066" lon="9.671514975027582"><ele>61.0</ele><time>2026-04-07T09:05:52.013Z</time></trkpt><trkpt lat="45.04207079017689" lon="9.671614014469224"><ele>60.99999999999999</ele><time>2026-04-07T09:05:54.013Z</time></trkpt><trkpt lat="45.04199560415159" lon="9.671717969697118"><ele>60.99999999999999</ele><time>2026-04-07T09:05:56.013Z</time></trkpt><trkpt lat="45.04193387966235" lon="9.671821922065575"><ele>61.0</ele><time>2026-04-07T09:05:58.013Z</time></trkpt><trkpt lat="45.041851357079885" lon="9.67188993268017"><ele>61.0</ele><time>2026-04-07T09:06:00.013Z</time></trkpt><trkpt lat="45.04177717350557" lon="9.671848690160306"><ele>61.0</ele><time>2026-04-07T09:06:02.013Z</time></trkpt><trkpt lat="45.04171792249033" lon="9.671735848593004"><ele>60.99999999999999</ele><time>2026-04-07T09:06:04.013Z</time></trkpt><trkpt lat="45.04165709171202" lon="9.671615944382507"><ele>60.99999999999999</ele><time>2026-04-07T09:06:06.013Z</time></trkpt><trkpt lat="45.041611580261275" lon="9.67149251343221"><ele>61.0</ele><time>2026-04-07T09:06:08.013Z</time></trkpt><trkpt lat="45.041540372215294" lon="9.671389394943628"><ele>61.0</ele><time>2026-04-07T09:06:10.013Z</time></trkpt><trkpt lat="45.0414791810611" lon="9.67126970396316"><ele>61.0</ele><time>2026-04-07T09:06:12.013Z</time></trkpt><trkpt lat="45.04142387431436" lon="9.671163016811954"><ele>60.99999999999999</ele><time>2026-04-07T09:06:14.013Z</time></trkpt><trkpt lat="45.04137221279532" lon="9.671015871903027"><ele>60.99999999999999</ele><time>2026-04-07T09:06:16.013Z</time></trkpt><trkpt lat="45.041313068559504" lon="9.670904872400719"><ele>61.0</ele><time>2026-04-07T09:06:18.013Z</time></trkpt><trkpt lat="45.041237182430066" lon="9.670783765121545"><ele>61.0</ele><time>2026-04-07T09:06:20.013Z</time></trkpt><trkpt lat="45.041184197768885" lon="9.670665861477184"><ele>60.99999999999999</ele><time>2026-04-07T09:06:22.013Z</time></trkpt><trkpt lat="45.04114218278152" lon="9.670582038988542"><ele>61.0</ele><time>2026-04-07T09:06:24.013Z</time></trkpt><trkpt lat="45.041100124639534" lon="9.670480577271666"><ele>61.0</ele><time>2026-04-07T09:06:27.013Z</time></trkpt><trkpt lat="45.04101514804214" lon="9.670482995134664"><ele>61.0</ele><time>2026-04-07T09:06:30.013Z</time></trkpt><trkpt lat="45.040943285640274" lon="9.67056219870428"><ele>60.99999999999999</ele><time>2026-04-07T09:06:32.013Z</time></trkpt><trkpt lat="45.04087952063887" lon="9.67063721708471"><ele>61.0</ele><time>2026-04-07T09:06:34.013Z</time></trkpt><trkpt lat="45.04080975733699" lon="9.670685658022553"><ele>61.199999999999996</ele><time>2026-04-07T09:06:36.013Z</time></trkpt><trkpt lat="45.040729005368775" lon="9.67065334811848"><ele>61.39999999999999</ele><time>2026-04-07T09:06:39.013Z</time></trkpt><trkpt lat="45.0406813864925" lon="9.670545940669488"><ele>61.6</ele><time>2026-04-07T09:06:41.013Z</time></trkpt><trkpt lat="45.04062985056846" lon="9.670435877555965"><ele>61.8</ele><time>2026-04-07T09:06:43.013Z</time></trkpt><trkpt lat="45.04058466920167" lon="9.670318017765705"><ele>62.0</ele><time>2026-04-07T09:06:45.014Z</time></trkpt><trkpt lat="45.04055646024228" lon="9.670174686230855"><ele>61.6</ele><time>2026-04-07T09:06:47.013Z</time></trkpt><trkpt lat="45.040514840727155" lon="9.670030627924579"><ele>61.2</ele><time>2026-04-07T09:06:49.014Z</time></trkpt><trkpt lat="45.04046958919265" lon="9.669895367013858"><ele>60.8</ele><time>2026-04-07T09:06:51.014Z</time></trkpt><trkpt lat="45.040425738301685" lon="9.669751775265867"><ele>60.4</ele><time>2026-04-07T09:06:53.013Z</time></trkpt><trkpt lat="45.04039683066384" lon="9.66961276371935"><ele>60.0</ele><time>2026-04-07T09:06:55.014Z</time></trkpt><trkpt lat="45.04037332329424" lon="9.669470714378747"><ele>60.0</ele><time>2026-04-07T09:06:57.014Z</time></trkpt><trkpt lat="45.04033320260041" lon="9.669339771878192"><ele>60.0</ele><time>2026-04-07T09:06:59.014Z</time></trkpt><trkpt lat="45.04030397934918" lon="9.669224259707041"><ele>60.0</ele><time>2026-04-07T09:07:01.014Z</time></trkpt><trkpt lat="45.04026735529974" lon="9.669107421107407"><ele>60.0</ele><time>2026-04-07T09:07:03.014Z</time></trkpt><trkpt lat="45.04022891360015" lon="9.668978705258503"><ele>60.0</ele><time>2026-04-07T09:07:05.014Z</time></trkpt><trkpt lat="45.040179319816765" lon="9.668865103321"><ele>60.0</ele><time>2026-04-07T09:07:07.014Z</time></trkpt><trkpt lat="45.04013583138206" lon="9.66873938013484"><ele>60.0</ele><time>2026-04-07T09:07:09.014Z</time></trkpt><trkpt lat="45.040092722453245" lon="9.668618321858085"><ele>60.0</ele><time>2026-04-07T09:07:11.014Z</time></trkpt><trkpt lat="45.04005145817005" lon="9.668502140763723"><ele>60.0</ele><time>2026-04-07T09:07:13.014Z</time></trkpt><trkpt lat="45.03999740895689" lon="9.668371737273155"><ele>60.0</ele><time>2026-04-07T09:07:15.014Z</time></trkpt><trkpt lat="45.039937077135825" lon="9.668257520286891"><ele>59.6</ele><time>2026-04-07T09:07:17.014Z</time></trkpt><trkpt lat="45.039896942082024" lon="9.668128541907674"><ele>59.2</ele><time>2026-04-07T09:07:19.014Z</time></trkpt><trkpt lat="45.039850948584025" lon="9.667985232601495"><ele>58.8</ele><time>2026-04-07T09:07:21.014Z</time></trkpt><trkpt lat="45.039817382847424" lon="9.667845332352067"><ele>58.4</ele><time>2026-04-07T09:07:23.014Z</time></trkpt><trkpt lat="45.03978667141256" lon="9.66771120754924"><ele>58.0</ele><time>2026-04-07T09:07:25.014Z</time></trkpt><trkpt lat="45.039752073712435" lon="9.66757529690354"><ele>57.4</ele><time>2026-04-07T09:07:27.014Z</time></trkpt><trkpt lat="45.03971860196933" lon="9.667445839395986"><ele>56.8</ele><time>2026-04-07T09:07:29.014Z</time></trkpt><trkpt lat="45.03967651222616" lon="9.667328945419934"><ele>56.2</ele><time>2026-04-07T09:07:31.014Z</time></trkpt><trkpt lat="45.039629869299446" lon="9.667220921864985"><ele>55.6</ele><time>2026-04-07T09:07:33.014Z</time></trkpt><trkpt lat="45.039572179876146" lon="9.667123132741091"><ele>55.0</ele><time>2026-04-07T09:07:35.014Z</time></trkpt><trkpt lat="45.03952794712251" lon="9.666991380978349"><ele>55.8</ele><time>2026-04-07T09:07:37.014Z</time></trkpt><trkpt lat="45.039493474313815" lon="9.66684225516222"><ele>56.6</ele><time>2026-04-07T09:07:39.014Z</time></trkpt><trkpt lat="45.039452714283414" lon="9.666705065484807"><ele>57.400000000000006</ele><time>2026-04-07T09:07:41.014Z</time></trkpt><trkpt lat="45.03942823450632" lon="9.66655570022176"><ele>58.2</ele><time>2026-04-07T09:07:43.014Z</time></trkpt><trkpt lat="45.039403979419404" lon="9.666414403136724"><ele>59.0</ele><time>2026-04-07T09:07:45.014Z</time></trkpt><trkpt lat="45.03936253253993" lon="9.666275074213145"><ele>59.0</ele><time>2026-04-07T09:07:47.014Z</time></trkpt><trkpt lat="45.039333836163294" lon="9.66613005172155"><ele>59.00000000000001</ele><time>2026-04-07T09:07:49.014Z</time></trkpt><trkpt lat="45.039304298964446" lon="9.665974019211065"><ele>59.00000000000001</ele><time>2026-04-07T09:07:51.014Z</time></trkpt><trkpt lat="45.03930432715777" lon="9.66582077651957"><ele>59.0</ele><time>2026-04-07T09:07:53.014Z</time></trkpt><trkpt lat="45.03929668668583" lon="9.665664512857745"><ele>59.0</ele><time>2026-04-07T09:07:55.014Z</time></trkpt><trkpt lat="45.03928552122016" lon="9.665504479473926"><ele>59.2</ele><time>2026-04-07T09:07:57.014Z</time></trkpt><trkpt lat="45.039277576003094" lon="9.665352512726228"><ele>59.400000000000006</ele><time>2026-04-07T09:07:59.014Z</time></trkpt><trkpt lat="45.03926930057556" lon="9.66520266027168"><ele>59.6</ele><time>2026-04-07T09:08:01.014Z</time></trkpt><trkpt lat="45.039239846547595" lon="9.665052577086037"><ele>59.8</ele><time>2026-04-07T09:08:03.014Z</time></trkpt><trkpt lat="45.039222425216785" lon="9.664907386184293"><ele>60.0</ele><time>2026-04-07T09:08:05.014Z</time></trkpt><trkpt lat="45.03920085474137" lon="9.664761066622837"><ele>60.0</ele><time>2026-04-07T09:08:07.014Z</time></trkpt><trkpt lat="45.03917402803394" lon="9.664612292818228"><ele>60.0</ele><time>2026-04-07T09:08:09.014Z</time></trkpt><trkpt lat="45.03914754270748" lon="9.664472123501664"><ele>60.0</ele><time>2026-04-07T09:08:11.014Z</time></trkpt><trkpt lat="45.039126668208425" lon="9.664322489224709"><ele>60.0</ele><time>2026-04-07T09:08:13.014Z</time></trkpt><trkpt lat="45.039102938838546" lon="9.664193191689016"><ele>60.0</ele><time>2026-04-07T09:08:15.014Z</time></trkpt><trkpt lat="45.03908585678238" lon="9.664066573307489"><ele>60.166666666666664</ele><time>2026-04-07T09:08:17.014Z</time></trkpt><trkpt lat="45.03906035427238" lon="9.663955003285103"><ele>60.33333333333333</ele><time>2026-04-07T09:08:19.014Z</time></trkpt><trkpt lat="45.0390355546415" lon="9.663830654282297"><ele>60.5</ele><time>2026-04-07T09:08:21.014Z</time></trkpt><trkpt lat="45.03901662202643" lon="9.663716623675842"><ele>60.666666666666664</ele><time>2026-04-07T09:08:23.014Z</time></trkpt><trkpt lat="45.03899997315995" lon="9.66360746969027"><ele>60.83333333333333</ele><time>2026-04-07T09:08:25.014Z</time></trkpt><trkpt lat="45.038983980253356" lon="9.663507142062626"><ele>61.0</ele><time>2026-04-07T09:08:27.014Z</time></trkpt><trkpt lat="45.03896054149947" lon="9.66340247445717"><ele>61.33333333333333</ele><time>2026-04-07T09:08:30.014Z</time></trkpt><trkpt lat="45.03892304376294" lon="9.663301754759708"><ele>61.666666666666664</ele><time>2026-04-07T09:08:38.014Z</time></trkpt><trkpt lat="45.03885678878271" lon="9.663279310703919"><ele>62.0</ele><time>2026-04-07T09:08:40.014Z</time></trkpt><trkpt lat="45.03876501110621" lon="9.663274228179745"><ele>62.33333333333333</ele><time>2026-04-07T09:08:42.014Z</time></trkpt><trkpt lat="45.03867961858778" lon="9.663251422964422"><ele>62.666666666666664</ele><time>2026-04-07T09:08:44.014Z</time></trkpt><trkpt lat="45.03857983928067" lon="9.663230497018422"><ele>63.0</ele><time>2026-04-07T09:08:46.014Z</time></trkpt><trkpt lat="45.03849364188113" lon="9.663216447757438"><ele>63.0</ele><time>2026-04-07T09:08:48.014Z</time></trkpt><trkpt lat="45.03840380535537" lon="9.663196541896577"><ele>63.0</ele><time>2026-04-07T09:08:50.014Z</time></trkpt><trkpt lat="45.038311670431305" lon="9.663178347251"><ele>63.0</ele><time>2026-04-07T09:08:52.015Z</time></trkpt><trkpt lat="45.03821611857728" lon="9.663155975021342"><ele>63.0</ele><time>2026-04-07T09:08:54.015Z</time></trkpt><trkpt lat="45.03812501268391" lon="9.663135835828477"><ele>63.0</ele><time>2026-04-07T09:08:56.015Z</time></trkpt><trkpt lat="45.03803323108948" lon="9.66310773557184"><ele>63.2</ele><time>2026-04-07T09:08:58.014Z</time></trkpt><trkpt lat="45.03794237186068" lon="9.663076730541428"><ele>63.4</ele><time>2026-04-07T09:09:00.015Z</time></trkpt><trkpt lat="45.03783093272884" lon="9.663056843559556"><ele>63.60000000000001</ele><time>2026-04-07T09:09:02.015Z</time></trkpt><trkpt lat="45.037748221552896" lon="9.663038101944151"><ele>63.800000000000004</ele><time>2026-04-07T09:09:04.015Z</time></trkpt><trkpt lat="45.037648626156376" lon="9.663018943467916"><ele>64.0</ele><time>2026-04-07T09:09:06.015Z</time></trkpt><trkpt lat="45.03755619800822" lon="9.662999691289016"><ele>64.2</ele><time>2026-04-07T09:09:08.015Z</time></trkpt><trkpt lat="45.037462124699374" lon="9.66298613603299"><ele>64.4</ele><time>2026-04-07T09:09:10.015Z</time></trkpt><trkpt lat="45.03737143374238" lon="9.662958052938"><ele>64.6</ele><time>2026-04-07T09:09:12.015Z</time></trkpt><trkpt lat="45.03727343675565" lon="9.662944308057602"><ele>64.8</ele><time>2026-04-07T09:09:14.015Z</time></trkpt><trkpt lat="45.03717730555285" lon="9.662927737802601"><ele>65.0</ele><time>2026-04-07T09:09:16.015Z</time></trkpt><trkpt lat="45.03707805159251" lon="9.662902097177023"><ele>65.0</ele><time>2026-04-07T09:09:18.015Z</time></trkpt><trkpt lat="45.036982081537374" lon="9.662878108818278"><ele>65.0</ele><time>2026-04-07T09:09:20.015Z</time></trkpt><trkpt lat="45.03688716916745" lon="9.662844599602368"><ele>65.0</ele><time>2026-04-07T09:09:22.015Z</time></trkpt><trkpt lat="45.03678298848774" lon="9.662820029716753"><ele>65.0</ele><time>2026-04-07T09:09:24.015Z</time></trkpt><trkpt lat="45.0366950507792" lon="9.662793780399427"><ele>65.0</ele><time>2026-04-07T09:09:26.015Z</time></trkpt><trkpt lat="45.03659436112026" lon="9.662778218720423"><ele>65.2</ele><time>2026-04-07T09:09:28.015Z</time></trkpt><trkpt lat="45.036490392329554" lon="9.662763407308931"><ele>65.4</ele><time>2026-04-07T09:09:30.015Z</time></trkpt><trkpt lat="45.03639496203745" lon="9.66274957334967"><ele>65.6</ele><time>2026-04-07T09:09:32.015Z</time></trkpt><trkpt lat="45.036300791670755" lon="9.662734271409924"><ele>65.8</ele><time>2026-04-07T09:09:34.015Z</time></trkpt><trkpt lat="45.03619585312387" lon="9.662706936554892"><ele>66.0</ele><time>2026-04-07T09:09:36.015Z</time></trkpt><trkpt lat="45.03609111660213" lon="9.662678183187392"><ele>66.0</ele><time>2026-04-07T09:09:38.015Z</time></trkpt><trkpt lat="45.035991207396926" lon="9.662658842884193"><ele>66.0</ele><time>2026-04-07T09:09:40.015Z</time></trkpt><trkpt lat="45.035891134871484" lon="9.662629944178672"><ele>66.0</ele><time>2026-04-07T09:09:42.015Z</time></trkpt><trkpt lat="45.03578526498193" lon="9.662602317651325"><ele>66.0</ele><time>2026-04-07T09:09:44.015Z</time></trkpt><trkpt lat="45.035691410281785" lon="9.662576095560945"><ele>66.0</ele><time>2026-04-07T09:09:46.015Z</time></trkpt><trkpt lat="45.03559750220444" lon="9.662555316206735"><ele>65.8</ele><time>2026-04-07T09:09:48.015Z</time></trkpt><trkpt lat="45.035503513480926" lon="9.662532365865282"><ele>65.6</ele><time>2026-04-07T09:09:50.015Z</time></trkpt><trkpt lat="45.0354236642031" lon="9.662542415078619"><ele>65.4</ele><time>2026-04-07T09:09:52.015Z</time></trkpt><trkpt lat="45.035329743762254" lon="9.662515304732667"><ele>65.2</ele><time>2026-04-07T09:09:54.015Z</time></trkpt><trkpt lat="45.035232657441924" lon="9.662491669004114"><ele>65.0</ele><time>2026-04-07T09:09:56.015Z</time></trkpt><trkpt lat="45.03514436953136" lon="9.662463813254396"><ele>65.0</ele><time>2026-04-07T09:09:58.015Z</time></trkpt><trkpt lat="45.03507796937104" lon="9.662445658891045"><ele>65.0</ele><time>2026-04-07T09:09:59.015Z</time></trkpt><trkpt lat="45.03498706622878" lon="9.66240829793327"><ele>65.0</ele><time>2026-04-07T09:10:01.015Z</time></trkpt><trkpt lat="45.03492118130565" lon="9.662397351055612"><ele>65.0</ele><time>2026-04-07T09:10:02.015Z</time></trkpt><trkpt lat="45.03482286124443" lon="9.66237877609805"><ele>65.0</ele><time>2026-04-07T09:10:04.015Z</time></trkpt><trkpt lat="45.034713970995625" lon="9.662343613212924"><ele>65.0</ele><time>2026-04-07T09:10:06.015Z</time></trkpt><trkpt lat="45.03461982688786" lon="9.66233269403635"><ele>65.0</ele><time>2026-04-07T09:10:08.015Z</time></trkpt><trkpt lat="45.03451610912476" lon="9.662296052558236"><ele>65.0</ele><time>2026-04-07T09:10:10.015Z</time></trkpt><trkpt lat="45.0344122726897" lon="9.662275346679817"><ele>65.0</ele><time>2026-04-07T09:10:12.015Z</time></trkpt><trkpt lat="45.03431203088437" lon="9.662252421745087"><ele>65.0</ele><time>2026-04-07T09:10:14.015Z</time></trkpt><trkpt lat="45.03419521793784" lon="9.662279097540791"><ele>65.0</ele><time>2026-04-07T09:10:16.015Z</time></trkpt><trkpt lat="45.034116288595904" lon="9.662367997214"><ele>65.0</ele><time>2026-04-07T09:10:18.015Z</time></trkpt><trkpt lat="45.03403960842527" lon="9.662469890703706"><ele>65.0</ele><time>2026-04-07T09:10:20.015Z</time></trkpt><trkpt lat="45.033974033630585" lon="9.66256734664566"><ele>65.0</ele><time>2026-04-07T09:10:22.015Z</time></trkpt><trkpt lat="45.03390599228347" lon="9.662664489986806"><ele>65.0</ele><time>2026-04-07T09:10:24.015Z</time></trkpt><trkpt lat="45.033827984606766" lon="9.662770482585628"><ele>65.0</ele><time>2026-04-07T09:10:26.015Z</time></trkpt><trkpt lat="45.03375047794476" lon="9.662869935634637"><ele>65.0</ele><time>2026-04-07T09:10:28.015Z</time></trkpt><trkpt lat="45.03368402193405" lon="9.662968457314156"><ele>65.0</ele><time>2026-04-07T09:10:30.015Z</time></trkpt><trkpt lat="45.03360682241755" lon="9.663075487615819"><ele>65.0</ele><time>2026-04-07T09:10:32.015Z</time></trkpt><trkpt lat="45.03352974416214" lon="9.663168363138965"><ele>65.0</ele><time>2026-04-07T09:10:34.015Z</time></trkpt><trkpt lat="45.03345769172767" lon="9.663278665293156"><ele>65.0</ele><time>2026-04-07T09:10:36.015Z</time></trkpt><trkpt lat="45.033384599625464" lon="9.663389570550029"><ele>65.0</ele><time>2026-04-07T09:10:38.015Z</time></trkpt><trkpt lat="45.0333087058521" lon="9.663495439678936"><ele>65.0</ele><time>2026-04-07T09:10:40.015Z</time></trkpt><trkpt lat="45.03322393116633" lon="9.663607517202584"><ele>65.0</ele><time>2026-04-07T09:10:42.015Z</time></trkpt><trkpt lat="45.033146276935575" lon="9.663718564567711"><ele>65.0</ele><time>2026-04-07T09:10:44.015Z</time></trkpt><trkpt lat="45.03305882328685" lon="9.663835615780906"><ele>65.0</ele><time>2026-04-07T09:10:46.015Z</time></trkpt><trkpt lat="45.032990879263224" lon="9.66395419161611"><ele>65.0</ele><time>2026-04-07T09:10:48.015Z</time></trkpt><trkpt lat="45.03291248812247" lon="9.66406150922763"><ele>65.0</ele><time>2026-04-07T09:10:50.015Z</time></trkpt><trkpt lat="45.03282594941092" lon="9.664185651524944"><ele>65.0</ele><time>2026-04-07T09:10:52.015Z</time></trkpt><trkpt lat="45.03273980380082" lon="9.664302347811867"><ele>65.0</ele><time>2026-04-07T09:10:54.015Z</time></trkpt><trkpt lat="45.03265571139734" lon="9.66439346575005"><ele>65.0</ele><time>2026-04-07T09:10:56.016Z</time></trkpt><trkpt lat="45.03256567665883" lon="9.664498993385008"><ele>65.0</ele><time>2026-04-07T09:10:58.015Z</time></trkpt><trkpt lat="45.03245174191281" lon="9.66453848069355"><ele>65.0</ele><time>2026-04-07T09:11:00.015Z</time></trkpt><trkpt lat="45.03238786383047" lon="9.664541286479524"><ele>65.0</ele><time>2026-04-07T09:11:01.015Z</time></trkpt><trkpt lat="45.032318720326835" lon="9.664525357424171"><ele>64.8</ele><time>2026-04-07T09:11:02.015Z</time></trkpt><trkpt lat="45.032254779554094" lon="9.664493192591534"><ele>64.6</ele><time>2026-04-07T09:11:03.015Z</time></trkpt><trkpt lat="45.032144219385685" lon="9.664420163370423"><ele>64.4</ele><time>2026-04-07T09:11:05.015Z</time></trkpt><trkpt lat="45.032037170892906" lon="9.66439654087639"><ele>64.2</ele><time>2026-04-07T09:11:07.016Z</time></trkpt><trkpt lat="45.03193193235053" lon="9.664350316427457"><ele>64.0</ele><time>2026-04-07T09:11:09.016Z</time></trkpt><trkpt lat="45.031833659920174" lon="9.664282506492489"><ele>64.60000000000001</ele><time>2026-04-07T09:11:11.016Z</time></trkpt><trkpt lat="45.03174874873291" lon="9.664176440820391"><ele>65.2</ele><time>2026-04-07T09:11:13.016Z</time></trkpt><trkpt lat="45.0316667963147" lon="9.66407912010929"><ele>65.80000000000001</ele><time>2026-04-07T09:11:15.016Z</time></trkpt><trkpt lat="45.031601163343915" lon="9.663979636730318"><ele>66.4</ele><time>2026-04-07T09:11:17.016Z</time></trkpt><trkpt lat="45.031524356910374" lon="9.66385666192598"><ele>67.0</ele><time>2026-04-07T09:11:19.016Z</time></trkpt><trkpt lat="45.031436826728054" lon="9.66377304112688"><ele>67.75</ele><time>2026-04-07T09:11:21.016Z</time></trkpt><trkpt lat="45.03135119326059" lon="9.663656592914647"><ele>68.5</ele><time>2026-04-07T09:11:23.016Z</time></trkpt><trkpt lat="45.03126178358578" lon="9.663553637196554"><ele>69.25</ele><time>2026-04-07T09:11:25.016Z</time></trkpt><trkpt lat="45.031175086281245" lon="9.66344517126855"><ele>70.0</ele><time>2026-04-07T09:11:27.016Z</time></trkpt><trkpt lat="45.0310878314018" lon="9.663333224372607"><ele>70.0</ele><time>2026-04-07T09:11:29.016Z</time></trkpt><trkpt lat="45.031015687416975" lon="9.663224902157392"><ele>70.0</ele><time>2026-04-07T09:11:31.016Z</time></trkpt><trkpt lat="45.03092973868205" lon="9.6631184959159"><ele>70.0</ele><time>2026-04-07T09:11:33.016Z</time></trkpt><trkpt lat="45.03085605029964" lon="9.662998580182634"><ele>70.0</ele><time>2026-04-07T09:11:35.016Z</time></trkpt><trkpt lat="45.03077598691237" lon="9.662892115064395"><ele>70.0</ele><time>2026-04-07T09:11:37.016Z</time></trkpt><trkpt lat="45.03069548909946" lon="9.66276518609576"><ele>69.75</ele><time>2026-04-07T09:11:39.016Z</time></trkpt><trkpt lat="45.030609362065825" lon="9.662648569935557"><ele>69.5</ele><time>2026-04-07T09:11:41.016Z</time></trkpt><trkpt lat="45.030528303514096" lon="9.662535544821395"><ele>69.25</ele><time>2026-04-07T09:11:43.016Z</time></trkpt><trkpt lat="45.03045463919441" lon="9.662426648091293"><ele>69.0</ele><time>2026-04-07T09:11:45.016Z</time></trkpt><trkpt lat="45.03035941325956" lon="9.662317251870027"><ele>69.0</ele><time>2026-04-07T09:11:47.016Z</time></trkpt><trkpt lat="45.03028404895169" lon="9.66220508304691"><ele>69.0</ele><time>2026-04-07T09:11:49.016Z</time></trkpt><trkpt lat="45.0301976773991" lon="9.662083219142474"><ele>69.0</ele><time>2026-04-07T09:11:51.016Z</time></trkpt><trkpt lat="45.03011951140649" lon="9.661955929236656"><ele>69.0</ele><time>2026-04-07T09:11:53.016Z</time></trkpt><trkpt lat="45.03003771806627" lon="9.661842127921103"><ele>69.2</ele><time>2026-04-07T09:11:55.016Z</time></trkpt><trkpt lat="45.02996500864692" lon="9.661732661495643"><ele>69.4</ele><time>2026-04-07T09:11:57.016Z</time></trkpt><trkpt lat="45.029871788446656" lon="9.661608674213499"><ele>69.6</ele><time>2026-04-07T09:11:59.016Z</time></trkpt><trkpt lat="45.02978993509064" lon="9.66149873038799"><ele>69.8</ele><time>2026-04-07T09:12:01.016Z</time></trkpt><trkpt lat="45.02974613335701" lon="9.66143384742304"><ele>70.0</ele><time>2026-04-07T09:12:02.016Z</time></trkpt><trkpt lat="45.0296704727965" lon="9.661315900511648"><ele>70.0</ele><time>2026-04-07T09:12:04.016Z</time></trkpt><trkpt lat="45.02960959503083" lon="9.661167197587313"><ele>70.0</ele><time>2026-04-07T09:12:06.016Z</time></trkpt><trkpt lat="45.0295392108511" lon="9.661037809438804"><ele>70.0</ele><time>2026-04-07T09:12:08.016Z</time></trkpt><trkpt lat="45.02946040729728" lon="9.660936889002127"><ele>70.0</ele><time>2026-04-07T09:12:10.016Z</time></trkpt><trkpt lat="45.029384796088884" lon="9.660812223940239"><ele>70.0</ele><time>2026-04-07T09:12:12.016Z</time></trkpt><trkpt lat="45.0293025359194" lon="9.66070491341973"><ele>70.0</ele><time>2026-04-07T09:12:14.016Z</time></trkpt><trkpt lat="45.02922214912093" lon="9.66059454849294"><ele>70.0</ele><time>2026-04-07T09:12:16.016Z</time></trkpt><trkpt lat="45.02914022671967" lon="9.66048233567637"><ele>70.0</ele><time>2026-04-07T09:12:18.016Z</time></trkpt><trkpt lat="45.02906747143927" lon="9.660366809516912"><ele>70.0</ele><time>2026-04-07T09:12:20.016Z</time></trkpt><trkpt lat="45.02898718319761" lon="9.66025171420731"><ele>70.0</ele><time>2026-04-07T09:12:22.016Z</time></trkpt><trkpt lat="45.02890469370293" lon="9.660141249428516"><ele>70.0</ele><time>2026-04-07T09:12:24.016Z</time></trkpt><trkpt lat="45.028825774143996" lon="9.660023637449578"><ele>70.0</ele><time>2026-04-07T09:12:26.016Z</time></trkpt><trkpt lat="45.028749355406646" lon="9.659907257221375"><ele>70.0</ele><time>2026-04-07T09:12:28.016Z</time></trkpt><trkpt lat="45.028655894578556" lon="9.659802672362142"><ele>70.0</ele><time>2026-04-07T09:12:30.016Z</time></trkpt><trkpt lat="45.02858675502852" lon="9.65968379739886"><ele>70.0</ele><time>2026-04-07T09:12:32.016Z</time></trkpt><trkpt lat="45.0285066475103" lon="9.659564329591237"><ele>70.0</ele><time>2026-04-07T09:12:34.016Z</time></trkpt><trkpt lat="45.028423645480636" lon="9.659449959025991"><ele>70.0</ele><time>2026-04-07T09:12:36.016Z</time></trkpt><trkpt lat="45.028346423074886" lon="9.6593354575539"><ele>69.75</ele><time>2026-04-07T09:12:38.016Z</time></trkpt><trkpt lat="45.028264208623106" lon="9.659220180468148"><ele>69.5</ele><time>2026-04-07T09:12:40.016Z</time></trkpt><trkpt lat="45.028185474805326" lon="9.659107155775873"><ele>69.25</ele><time>2026-04-07T09:12:42.016Z</time></trkpt><trkpt lat="45.02810808923323" lon="9.658993834799912"><ele>69.0</ele><time>2026-04-07T09:12:44.016Z</time></trkpt><trkpt lat="45.028025408675944" lon="9.658876947584124"><ele>69.0</ele><time>2026-04-07T09:12:46.016Z</time></trkpt><trkpt lat="45.027945898182075" lon="9.658760337780276"><ele>69.0</ele><time>2026-04-07T09:12:48.016Z</time></trkpt><trkpt lat="45.02786315486942" lon="9.65865384257973"><ele>69.0</ele><time>2026-04-07T09:12:50.016Z</time></trkpt><trkpt lat="45.027785240632205" lon="9.658537458087842"><ele>69.0</ele><time>2026-04-07T09:12:52.016Z</time></trkpt><trkpt lat="45.027706335792686" lon="9.658431687272975"><ele>69.0</ele><time>2026-04-07T09:12:54.016Z</time></trkpt><trkpt lat="45.027628335018136" lon="9.658319258833734"><ele>68.60000000000001</ele><time>2026-04-07T09:12:56.016Z</time></trkpt><trkpt lat="45.02754616027084" lon="9.65820903851447"><ele>68.2</ele><time>2026-04-07T09:12:58.016Z</time></trkpt><trkpt lat="45.02747185062822" lon="9.65809467685205"><ele>67.80000000000001</ele><time>2026-04-07T09:13:00.016Z</time></trkpt><trkpt lat="45.02739119866447" lon="9.657987810563242"><ele>67.4</ele><time>2026-04-07T09:13:02.016Z</time></trkpt><trkpt lat="45.02731171159828" lon="9.657868597323812"><ele>67.0</ele><time>2026-04-07T09:13:04.016Z</time></trkpt><trkpt lat="45.027232087708384" lon="9.65775759772686"><ele>67.0</ele><time>2026-04-07T09:13:06.017Z</time></trkpt><trkpt lat="45.027147703908724" lon="9.657648039755832"><ele>67.0</ele><time>2026-04-07T09:13:08.016Z</time></trkpt><trkpt lat="45.02706644596139" lon="9.657528828745221"><ele>67.0</ele><time>2026-04-07T09:13:10.016Z</time></trkpt><trkpt lat="45.02698524133295" lon="9.657410392331183"><ele>67.0</ele><time>2026-04-07T09:13:12.016Z</time></trkpt><trkpt lat="45.0269043503327" lon="9.657291998759188"><ele>67.0</ele><time>2026-04-07T09:13:14.016Z</time></trkpt><trkpt lat="45.026824037777345" lon="9.657177917240638"><ele>67.0</ele><time>2026-04-07T09:13:16.016Z</time></trkpt><trkpt lat="45.02674091077086" lon="9.657060320253143"><ele>67.0</ele><time>2026-04-07T09:13:18.016Z</time></trkpt><trkpt lat="45.02665892316602" lon="9.656941727101065"><ele>67.0</ele><time>2026-04-07T09:13:20.016Z</time></trkpt><trkpt lat="45.02657579016529" lon="9.65684182454834"><ele>67.8</ele><time>2026-04-07T09:13:22.016Z</time></trkpt><trkpt lat="45.02649376816407" lon="9.656729704951237"><ele>68.6</ele><time>2026-04-07T09:13:24.016Z</time></trkpt><trkpt lat="45.026425076546694" lon="9.656607681396858"><ele>69.39999999999999</ele><time>2026-04-07T09:13:26.016Z</time></trkpt><trkpt lat="45.02634907703246" lon="9.656496896407772"><ele>70.2</ele><time>2026-04-07T09:13:28.016Z</time></trkpt><trkpt lat="45.02626921246578" lon="9.656386294722973"><ele>71.0</ele><time>2026-04-07T09:13:30.016Z</time></trkpt><trkpt lat="45.02619362155493" lon="9.656270148196691"><ele>71.0</ele><time>2026-04-07T09:13:32.016Z</time></trkpt><trkpt lat="45.02611743294531" lon="9.656161800830066"><ele>71.0</ele><time>2026-04-07T09:13:34.016Z</time></trkpt><trkpt lat="45.02604339708045" lon="9.65605296043836"><ele>71.0</ele><time>2026-04-07T09:13:36.016Z</time></trkpt><trkpt lat="45.0259644372445" lon="9.655943704217947"><ele>71.0</ele><time>2026-04-07T09:13:38.016Z</time></trkpt><trkpt lat="45.02588437488117" lon="9.65582835223571"><ele>71.0</ele><time>2026-04-07T09:13:40.016Z</time></trkpt><trkpt lat="45.02581350942337" lon="9.655726645344158"><ele>70.8</ele><time>2026-04-07T09:13:42.016Z</time></trkpt><trkpt lat="45.02576914817996" lon="9.65566191491357"><ele>70.6</ele><time>2026-04-07T09:13:43.016Z</time></trkpt><trkpt lat="45.025690557871684" lon="9.655557037150404"><ele>70.4</ele><time>2026-04-07T09:13:45.016Z</time></trkpt><trkpt lat="45.025610482837145" lon="9.65544718111141"><ele>70.2</ele><time>2026-04-07T09:13:47.016Z</time></trkpt><trkpt lat="45.025541351941406" lon="9.655335307122026"><ele>70.0</ele><time>2026-04-07T09:13:49.016Z</time></trkpt><trkpt lat="45.02546266694236" lon="9.655232010064626"><ele>70.4</ele><time>2026-04-07T09:13:51.016Z</time></trkpt><trkpt lat="45.02538605841862" lon="9.655117304085008"><ele>70.8</ele><time>2026-04-07T09:13:53.016Z</time></trkpt><trkpt lat="45.02531542275205" lon="9.65500085582973"><ele>71.2</ele><time>2026-04-07T09:13:55.016Z</time></trkpt><trkpt lat="45.02526315537575" lon="9.654862631909314"><ele>71.6</ele><time>2026-04-07T09:13:57.016Z</time></trkpt><trkpt lat="45.02521600143337" lon="9.654722530092567"><ele>72.0</ele><time>2026-04-07T09:13:59.016Z</time></trkpt><trkpt lat="45.02513845489303" lon="9.654615410034278"><ele>72.0</ele><time>2026-04-07T09:14:01.016Z</time></trkpt><trkpt lat="45.025050302042956" lon="9.65452282946696"><ele>72.0</ele><time>2026-04-07T09:14:03.016Z</time></trkpt><trkpt lat="45.02497132266124" lon="9.654417293147974"><ele>72.0</ele><time>2026-04-07T09:14:05.016Z</time></trkpt><trkpt lat="45.024885971462055" lon="9.654312551993119"><ele>72.0</ele><time>2026-04-07T09:14:07.016Z</time></trkpt><trkpt lat="45.02480440272593" lon="9.654211906407763"><ele>72.0</ele><time>2026-04-07T09:14:09.016Z</time></trkpt><trkpt lat="45.024720383662206" lon="9.654103930052678"><ele>72.2</ele><time>2026-04-07T09:14:11.016Z</time></trkpt><trkpt lat="45.024641338738896" lon="9.653999385845907"><ele>72.4</ele><time>2026-04-07T09:14:13.016Z</time></trkpt><trkpt lat="45.02455741178267" lon="9.65389626547436"><ele>72.6</ele><time>2026-04-07T09:14:15.016Z</time></trkpt><trkpt lat="45.024476409691765" lon="9.653792910692"><ele>72.8</ele><time>2026-04-07T09:14:17.016Z</time></trkpt><trkpt lat="45.02439955123666" lon="9.653684228808189"><ele>73.0</ele><time>2026-04-07T09:14:19.016Z</time></trkpt><trkpt lat="45.02431670631431" lon="9.653583428764598"><ele>73.0</ele><time>2026-04-07T09:14:21.016Z</time></trkpt><trkpt lat="45.024234448562915" lon="9.653484562409387"><ele>73.0</ele><time>2026-04-07T09:14:23.016Z</time></trkpt><trkpt lat="45.02416362663045" lon="9.653383190040737"><ele>73.0</ele><time>2026-04-07T09:14:25.016Z</time></trkpt><trkpt lat="45.02411084394333" lon="9.653258513043406"><ele>73.0</ele><time>2026-04-07T09:14:27.016Z</time></trkpt><trkpt lat="45.0240757332072" lon="9.653119842249788"><ele>73.0</ele><time>2026-04-07T09:14:29.016Z</time></trkpt><trkpt lat="45.02403125805681" lon="9.652991303336826"><ele>72.6</ele><time>2026-04-07T09:14:31.016Z</time></trkpt><trkpt lat="45.0239894925999" lon="9.652857909898623"><ele>72.19999999999999</ele><time>2026-04-07T09:14:33.017Z</time></trkpt><trkpt lat="45.02393327699569" lon="9.65274465383728"><ele>71.8</ele><time>2026-04-07T09:14:35.017Z</time></trkpt><trkpt lat="45.02386739696477" lon="9.652647052849721"><ele>71.39999999999999</ele><time>2026-04-07T09:14:37.017Z</time></trkpt><trkpt lat="45.02380352233145" lon="9.652560422225994"><ele>71.0</ele><time>2026-04-07T09:14:39.017Z</time></trkpt><trkpt lat="45.023730280392485" lon="9.65247557076215"><ele>71.0</ele><time>2026-04-07T09:14:41.017Z</time></trkpt><trkpt lat="45.023661281785095" lon="9.652374888385662"><ele>71.0</ele><time>2026-04-07T09:14:43.017Z</time></trkpt><trkpt lat="45.02359532287162" lon="9.652275816476106"><ele>71.0</ele><time>2026-04-07T09:14:45.017Z</time></trkpt><trkpt lat="45.023545438029956" lon="9.65217321176892"><ele>71.0</ele><time>2026-04-07T09:14:47.017Z</time></trkpt><trkpt lat="45.02350606699079" lon="9.652073784668971"><ele>71.0</ele><time>2026-04-07T09:14:49.017Z</time></trkpt><trkpt lat="45.0234415849331" lon="9.651956823784486"><ele>71.2</ele><time>2026-04-07T09:14:51.017Z</time></trkpt><trkpt lat="45.02337369271527" lon="9.651863611995392"><ele>71.39999999999999</ele><time>2026-04-07T09:14:53.017Z</time></trkpt><trkpt lat="45.02330039504339" lon="9.65177744732387"><ele>71.6</ele><time>2026-04-07T09:14:55.017Z</time></trkpt><trkpt lat="45.02323124442061" lon="9.651708971685313"><ele>71.8</ele><time>2026-04-07T09:14:57.017Z</time></trkpt><trkpt lat="45.02314907851635" lon="9.651664372090199"><ele>72.0</ele><time>2026-04-07T09:14:59.017Z</time></trkpt><trkpt lat="45.023055193333285" lon="9.651625646481442"><ele>72.4</ele><time>2026-04-07T09:15:01.017Z</time></trkpt><trkpt lat="45.02296713991514" lon="9.651570792067409"><ele>72.80000000000001</ele><time>2026-04-07T09:15:03.017Z</time></trkpt><trkpt lat="45.022895521998635" lon="9.651493635167782"><ele>73.2</ele><time>2026-04-07T09:15:05.017Z</time></trkpt><trkpt lat="45.02283103042868" lon="9.651413646536643"><ele>73.60000000000001</ele><time>2026-04-07T09:15:07.016Z</time></trkpt><trkpt lat="45.02276025472257" lon="9.651317550046443"><ele>74.0</ele><time>2026-04-07T09:15:09.016Z</time></trkpt><trkpt lat="45.02268534503514" lon="9.651234246135735"><ele>74.0</ele><time>2026-04-07T09:15:11.017Z</time></trkpt><trkpt lat="45.02262552650399" lon="9.651137216487468"><ele>74.0</ele><time>2026-04-07T09:15:13.017Z</time></trkpt><trkpt lat="45.02255382997232" lon="9.651041549111822"><ele>74.0</ele><time>2026-04-07T09:15:15.017Z</time></trkpt><trkpt lat="45.022486142026914" lon="9.650948467362017"><ele>74.0</ele><time>2026-04-07T09:15:17.016Z</time></trkpt><trkpt lat="45.02242156814442" lon="9.650858080219068"><ele>74.0</ele><time>2026-04-07T09:15:19.017Z</time></trkpt><trkpt lat="45.02235155949773" lon="9.65075375047325"><ele>73.60000000000001</ele><time>2026-04-07T09:15:21.017Z</time></trkpt><trkpt lat="45.02227931576791" lon="9.650648527334404"><ele>73.2</ele><time>2026-04-07T09:15:23.017Z</time></trkpt><trkpt lat="45.022206323037274" lon="9.650550956917735"><ele>72.80000000000001</ele><time>2026-04-07T09:15:25.017Z</time></trkpt><trkpt lat="45.02213894791241" lon="9.6504584850663"><ele>72.4</ele><time>2026-04-07T09:15:27.017Z</time></trkpt><trkpt lat="45.0220787389261" lon="9.650376247068024"><ele>72.0</ele><time>2026-04-07T09:15:29.017Z</time></trkpt><trkpt lat="45.02201748037037" lon="9.650288948262789"><ele>71.6</ele><time>2026-04-07T09:15:31.017Z</time></trkpt><trkpt lat="45.02194942259125" lon="9.650195460695393"><ele>71.2</ele><time>2026-04-07T09:15:33.017Z</time></trkpt><trkpt lat="45.021880471082156" lon="9.650105999598749"><ele>70.8</ele><time>2026-04-07T09:15:35.017Z</time></trkpt><trkpt lat="45.021812827187915" lon="9.650009396690988"><ele>70.4</ele><time>2026-04-07T09:15:37.017Z</time></trkpt><trkpt lat="45.02174356547901" lon="9.649914559266719"><ele>70.0</ele><time>2026-04-07T09:15:39.017Z</time></trkpt><trkpt lat="45.021676454923245" lon="9.649817600508959"><ele>70.66666666666666</ele><time>2026-04-07T09:15:41.017Z</time></trkpt><trkpt lat="45.02161370626988" lon="9.64973631552081"><ele>71.33333333333333</ele><time>2026-04-07T09:15:43.017Z</time></trkpt><trkpt lat="45.02154996656559" lon="9.649640765848904"><ele>72.0</ele><time>2026-04-07T09:15:45.017Z</time></trkpt><trkpt lat="45.02148355040182" lon="9.649554643649713"><ele>72.66666666666667</ele><time>2026-04-07T09:15:47.017Z</time></trkpt><trkpt lat="45.021421337185124" lon="9.649463732238125"><ele>73.33333333333334</ele><time>2026-04-07T09:15:49.017Z</time></trkpt><trkpt lat="45.02135681112116" lon="9.64937186646105"><ele>74.0</ele><time>2026-04-07T09:15:51.017Z</time></trkpt><trkpt lat="45.02129421887113" lon="9.649285169535984"><ele>74.0</ele><time>2026-04-07T09:15:53.017Z</time></trkpt><trkpt lat="45.02123437866381" lon="9.649187118212867"><ele>74.0</ele><time>2026-04-07T09:15:55.017Z</time></trkpt><trkpt lat="45.02116595127308" lon="9.649098735676846"><ele>74.0</ele><time>2026-04-07T09:15:57.017Z</time></trkpt><trkpt lat="45.02110168218237" lon="9.649008177783669"><ele>74.0</ele><time>2026-04-07T09:15:59.017Z</time></trkpt><trkpt lat="45.02104911283248" lon="9.64892524200558"><ele>74.0</ele><time>2026-04-07T09:16:01.017Z</time></trkpt><trkpt lat="45.020972392273855" lon="9.648832268431324"><ele>74.0</ele><time>2026-04-07T09:16:03.017Z</time></trkpt><trkpt lat="45.020908636552406" lon="9.648743284312527"><ele>74.0</ele><time>2026-04-07T09:16:05.017Z</time></trkpt><trkpt lat="45.02084881309096" lon="9.648650567536817"><ele>74.0</ele><time>2026-04-07T09:16:07.017Z</time></trkpt><trkpt lat="45.020777674410866" lon="9.648542328469773"><ele>74.0</ele><time>2026-04-07T09:16:09.017Z</time></trkpt><trkpt lat="45.02071173127761" lon="9.648449314992854"><ele>74.0</ele><time>2026-04-07T09:16:11.017Z</time></trkpt><trkpt lat="45.02063873392209" lon="9.648348352182495"><ele>74.4</ele><time>2026-04-07T09:16:13.017Z</time></trkpt><trkpt lat="45.020576962096705" lon="9.648245824759096"><ele>74.80000000000001</ele><time>2026-04-07T09:16:15.017Z</time></trkpt><trkpt lat="45.02050661469565" lon="9.648165129896189"><ele>75.19999999999999</ele><time>2026-04-07T09:16:17.017Z</time></trkpt><trkpt lat="45.02043931868595" lon="9.648065403137199"><ele>75.6</ele><time>2026-04-07T09:16:19.017Z</time></trkpt><trkpt lat="45.02036838483426" lon="9.647972620853318"><ele>76.0</ele><time>2026-04-07T09:16:21.017Z</time></trkpt><trkpt lat="45.02030142289792" lon="9.647875702639844"><ele>76.2</ele><time>2026-04-07T09:16:23.017Z</time></trkpt><trkpt lat="45.02023730870853" lon="9.647784756780046"><ele>76.39999999999999</ele><time>2026-04-07T09:16:25.017Z</time></trkpt><trkpt lat="45.02016445774964" lon="9.64767292215831"><ele>76.6</ele><time>2026-04-07T09:16:27.017Z</time></trkpt><trkpt lat="45.02008714321868" lon="9.647563248630307"><ele>76.8</ele><time>2026-04-07T09:16:29.017Z</time></trkpt><trkpt lat="45.02001976992232" lon="9.64746775901151"><ele>77.0</ele><time>2026-04-07T09:16:31.017Z</time></trkpt><trkpt lat="45.01994163871532" lon="9.64735732163187"><ele>76.6</ele><time>2026-04-07T09:16:33.017Z</time></trkpt><trkpt lat="45.019872682443115" lon="9.647252703312935"><ele>76.2</ele><time>2026-04-07T09:16:35.017Z</time></trkpt><trkpt lat="45.01980290372698" lon="9.647144890447038"><ele>75.8</ele><time>2026-04-07T09:16:37.017Z</time></trkpt><trkpt lat="45.019738524362175" lon="9.647055205197777"><ele>75.4</ele><time>2026-04-07T09:16:39.017Z</time></trkpt><trkpt lat="45.01966831292046" lon="9.646951286109994"><ele>75.0</ele><time>2026-04-07T09:16:41.017Z</time></trkpt><trkpt lat="45.01959652339403" lon="9.646852101977625"><ele>74.8</ele><time>2026-04-07T09:16:43.016Z</time></trkpt><trkpt lat="45.01952777706799" lon="9.646758584457231"><ele>74.6</ele><time>2026-04-07T09:16:45.016Z</time></trkpt><trkpt lat="45.019457598742065" lon="9.646655847357836"><ele>74.4</ele><time>2026-04-07T09:16:47.016Z</time></trkpt><trkpt lat="45.01939106311506" lon="9.646556864563447"><ele>74.2</ele><time>2026-04-07T09:16:49.016Z</time></trkpt><trkpt lat="45.019322501729995" lon="9.64645675307394"><ele>74.0</ele><time>2026-04-07T09:16:51.016Z</time></trkpt><trkpt lat="45.01925116039102" lon="9.646361441700785"><ele>74.0</ele><time>2026-04-07T09:16:53.016Z</time></trkpt><trkpt lat="45.01918386890605" lon="9.646258037707087"><ele>74.0</ele><time>2026-04-07T09:16:55.015Z</time></trkpt><trkpt lat="45.01910596054425" lon="9.646152245577"><ele>74.0</ele><time>2026-04-07T09:16:57.015Z</time></trkpt><trkpt lat="45.019039567538876" lon="9.646046691494503"><ele>74.0</ele><time>2026-04-07T09:16:59.015Z</time></trkpt><trkpt lat="45.018963273610815" lon="9.645940565529425"><ele>74.0</ele><time>2026-04-07T09:17:01.015Z</time></trkpt><trkpt lat="45.0188978222408" lon="9.645857264519174"><ele>74.0</ele><time>2026-04-07T09:17:03.015Z</time></trkpt><trkpt lat="45.018823779712704" lon="9.64575270876708"><ele>74.0</ele><time>2026-04-07T09:17:05.015Z</time></trkpt><trkpt lat="45.01875956976467" lon="9.645648731903597"><ele>74.0</ele><time>2026-04-07T09:17:07.015Z</time></trkpt><trkpt lat="45.01867840673734" lon="9.645540115105268"><ele>74.0</ele><time>2026-04-07T09:17:09.015Z</time></trkpt><trkpt lat="45.01856824876695" lon="9.64558729260173"><ele>74.0</ele><time>2026-04-07T09:17:10.015Z</time></trkpt><trkpt lat="45.01849414548651" lon="9.64548347970996"><ele>74.0</ele><time>2026-04-07T09:17:12.015Z</time></trkpt><trkpt lat="45.01842093254492" lon="9.645380914122425"><ele>74.0</ele><time>2026-04-07T09:17:14.015Z</time></trkpt><trkpt lat="45.01834301538929" lon="9.64527226042214"><ele>74.0</ele><time>2026-04-07T09:17:16.015Z</time></trkpt><trkpt lat="45.018274239630095" lon="9.645176318195631"><ele>74.0</ele><time>2026-04-07T09:17:18.015Z</time></trkpt><trkpt lat="45.01820246906096" lon="9.645076198210809"><ele>74.0</ele><time>2026-04-07T09:17:20.015Z</time></trkpt><trkpt lat="45.01820159117646" lon="9.644867237029782"><ele>73.60000000000001</ele><time>2026-04-07T09:17:22.015Z</time></trkpt><trkpt lat="45.01813696094538" lon="9.64476260166625"><ele>73.2</ele><time>2026-04-07T09:17:24.015Z</time></trkpt><trkpt lat="45.01807290435316" lon="9.64464783802356"><ele>72.80000000000001</ele><time>2026-04-07T09:17:26.015Z</time></trkpt><trkpt lat="45.018032350560844" lon="9.644502705453489"><ele>72.4</ele><time>2026-04-07T09:17:28.015Z</time></trkpt><trkpt lat="45.01798065272853" lon="9.644390833711274"><ele>72.0</ele><time>2026-04-07T09:17:30.015Z</time></trkpt><trkpt lat="45.017924665543426" lon="9.644283097832114"><ele>72.0</ele><time>2026-04-07T09:17:32.015Z</time></trkpt><trkpt lat="45.017862971846895" lon="9.644190523325769"><ele>72.0</ele><time>2026-04-07T09:17:34.015Z</time></trkpt><trkpt lat="45.01780548887568" lon="9.644103055368861"><ele>72.0</ele><time>2026-04-07T09:17:36.015Z</time></trkpt><trkpt lat="45.0177494233481" lon="9.64402956047967"><ele>72.0</ele><time>2026-04-07T09:17:38.015Z</time></trkpt><trkpt lat="45.0177271629895" lon="9.643919966034739"><ele>72.0</ele><time>2026-04-07T09:17:40.015Z</time></trkpt><trkpt lat="45.01770140990051" lon="9.643806191461524"><ele>72.0</ele><time>2026-04-07T09:17:42.015Z</time></trkpt><trkpt lat="45.01768814766152" lon="9.643693536468136"><ele>72.6</ele><time>2026-04-07T09:17:44.015Z</time></trkpt><trkpt lat="45.01773063819669" lon="9.643586954443915"><ele>73.2</ele><time>2026-04-07T09:17:46.015Z</time></trkpt><trkpt lat="45.01777228057064" lon="9.643480746183"><ele>73.8</ele><time>2026-04-07T09:17:48.015Z</time></trkpt><trkpt lat="45.017815712397024" lon="9.643367060029313"><ele>74.4</ele><time>2026-04-07T09:17:50.015Z</time></trkpt><trkpt lat="45.017862720947306" lon="9.643251532336654"><ele>75.0</ele><time>2026-04-07T09:17:52.015Z</time></trkpt><trkpt lat="45.01791776541476" lon="9.64313507298913"><ele>75.0</ele><time>2026-04-07T09:17:54.015Z</time></trkpt><trkpt lat="45.01796572279138" lon="9.643013639949293"><ele>75.0</ele><time>2026-04-07T09:17:56.015Z</time></trkpt><trkpt lat="45.01801674194527" lon="9.642892850256866"><ele>75.0</ele><time>2026-04-07T09:17:58.015Z</time></trkpt><trkpt lat="45.01806847227138" lon="9.642767042796041"><ele>75.0</ele><time>2026-04-07T09:18:00.015Z</time></trkpt><trkpt lat="45.01812212883937" lon="9.642645422170377"><ele>75.0</ele><time>2026-04-07T09:18:02.015Z</time></trkpt><trkpt lat="45.018173029403975" lon="9.642519085146748"><ele>75.0</ele><time>2026-04-07T09:18:04.015Z</time></trkpt><trkpt lat="45.01822500080331" lon="9.642396829306946"><ele>75.0</ele><time>2026-04-07T09:18:06.015Z</time></trkpt><trkpt lat="45.01827889788151" lon="9.642285354504544"><ele>75.0</ele><time>2026-04-07T09:18:08.015Z</time></trkpt><trkpt lat="45.01833550938287" lon="9.642182924499567"><ele>75.0</ele><time>2026-04-07T09:18:10.015Z</time></trkpt><trkpt lat="45.0184019277575" lon="9.642078174398831"><ele>75.0</ele><time>2026-04-07T09:18:12.015Z</time></trkpt><trkpt lat="45.01846215958401" lon="9.641977842113205"><ele>74.8</ele><time>2026-04-07T09:18:14.015Z</time></trkpt><trkpt lat="45.01853119997755" lon="9.641880898459679"><ele>74.6</ele><time>2026-04-07T09:18:16.015Z</time></trkpt><trkpt lat="45.018600176061966" lon="9.64178301053394"><ele>74.4</ele><time>2026-04-07T09:18:18.015Z</time></trkpt><trkpt lat="45.01866923491319" lon="9.64169252417034"><ele>74.2</ele><time>2026-04-07T09:18:20.015Z</time></trkpt><trkpt lat="45.01873498905578" lon="9.641591298536065"><ele>74.0</ele><time>2026-04-07T09:18:22.015Z</time></trkpt><trkpt lat="45.01879885226302" lon="9.641495003403246"><ele>74.0</ele><time>2026-04-07T09:18:24.015Z</time></trkpt><trkpt lat="45.01886574008762" lon="9.64138722674582"><ele>74.0</ele><time>2026-04-07T09:18:26.015Z</time></trkpt><trkpt lat="45.018923900716146" lon="9.641284637665214"><ele>74.0</ele><time>2026-04-07T09:18:28.015Z</time></trkpt><trkpt lat="45.01896398869962" lon="9.641169159692739"><ele>74.0</ele><time>2026-04-07T09:18:30.015Z</time></trkpt><trkpt lat="45.01900114102111" lon="9.641053823830703"><ele>74.0</ele><time>2026-04-07T09:18:32.015Z</time></trkpt><trkpt lat="45.01904101171393" lon="9.64093806693361"><ele>74.4</ele><time>2026-04-07T09:18:34.015Z</time></trkpt><trkpt lat="45.01907629827164" lon="9.64081303004326"><ele>74.80000000000001</ele><time>2026-04-07T09:18:36.015Z</time></trkpt><trkpt lat="45.019110650764574" lon="9.64069300939939"><ele>75.19999999999999</ele><time>2026-04-07T09:18:38.015Z</time></trkpt><trkpt lat="45.0191402789436" lon="9.640558101190894"><ele>75.6</ele><time>2026-04-07T09:18:40.015Z</time></trkpt><trkpt lat="45.01917259217874" lon="9.640443722195352"><ele>76.0</ele><time>2026-04-07T09:18:42.015Z</time></trkpt><trkpt lat="45.019204907663315" lon="9.640320883739157"><ele>75.6</ele><time>2026-04-07T09:18:44.015Z</time></trkpt><trkpt lat="45.01923988197629" lon="9.640196653492426"><ele>75.19999999999999</ele><time>2026-04-07T09:18:46.015Z</time></trkpt><trkpt lat="45.019263813572735" lon="9.64007640602784"><ele>74.80000000000001</ele><time>2026-04-07T09:18:48.015Z</time></trkpt><trkpt lat="45.019301318802505" lon="9.639955762326554"><ele>74.4</ele><time>2026-04-07T09:18:50.015Z</time></trkpt><trkpt lat="45.01933704059445" lon="9.63982922789924"><ele>74.0</ele><time>2026-04-07T09:18:52.015Z</time></trkpt><trkpt lat="45.01937369941333" lon="9.639695608452255"><ele>74.0</ele><time>2026-04-07T09:18:54.015Z</time></trkpt><trkpt lat="45.019409707727604" lon="9.639564188481097"><ele>74.0</ele><time>2026-04-07T09:18:56.015Z</time></trkpt><trkpt lat="45.0194408673084" lon="9.639442442263858"><ele>74.0</ele><time>2026-04-07T09:18:58.015Z</time></trkpt><trkpt lat="45.01947519865282" lon="9.639310975731401"><ele>74.0</ele><time>2026-04-07T09:19:00.015Z</time></trkpt><trkpt lat="45.01950097745602" lon="9.639184174460643"><ele>74.0</ele><time>2026-04-07T09:19:02.015Z</time></trkpt><trkpt lat="45.0195413950132" lon="9.639057072886036"><ele>74.0</ele><time>2026-04-07T09:19:04.015Z</time></trkpt><trkpt lat="45.01956869094251" lon="9.638934196025525"><ele>74.0</ele><time>2026-04-07T09:19:06.015Z</time></trkpt><trkpt lat="45.01960365226583" lon="9.638803075267246"><ele>74.0</ele><time>2026-04-07T09:19:08.015Z</time></trkpt><trkpt lat="45.01963987975858" lon="9.638676760693823"><ele>74.0</ele><time>2026-04-07T09:19:10.015Z</time></trkpt><trkpt lat="45.01968433432658" lon="9.638550594896584"><ele>74.0</ele><time>2026-04-07T09:19:12.015Z</time></trkpt><trkpt lat="45.01971665143946" lon="9.638426414681083"><ele>74.4</ele><time>2026-04-07T09:19:14.015Z</time></trkpt><trkpt lat="45.01975319939177" lon="9.638298678197023"><ele>74.80000000000001</ele><time>2026-04-07T09:19:16.015Z</time></trkpt><trkpt lat="45.019792634999405" lon="9.638160782686645"><ele>75.19999999999999</ele><time>2026-04-07T09:19:18.015Z</time></trkpt><trkpt lat="45.01982934218688" lon="9.638027575990888"><ele>75.6</ele><time>2026-04-07T09:19:20.015Z</time></trkpt><trkpt lat="45.019861800753596" lon="9.637890559251229"><ele>76.0</ele><time>2026-04-07T09:19:22.016Z</time></trkpt><trkpt lat="45.019904092102166" lon="9.637766163611065"><ele>76.2</ele><time>2026-04-07T09:19:24.016Z</time></trkpt><trkpt lat="45.01994198824488" lon="9.637625002125995"><ele>76.39999999999999</ele><time>2026-04-07T09:19:26.015Z</time></trkpt><trkpt lat="45.01997534493934" lon="9.63749154030017"><ele>76.6</ele><time>2026-04-07T09:19:28.015Z</time></trkpt><trkpt lat="45.020004393385896" lon="9.63735542365367"><ele>76.8</ele><time>2026-04-07T09:19:30.016Z</time></trkpt><trkpt lat="45.02005241373898" lon="9.637220778637648"><ele>77.0</ele><time>2026-04-07T09:19:32.015Z</time></trkpt><trkpt lat="45.02008856205759" lon="9.637082646430303"><ele>77.2</ele><time>2026-04-07T09:19:34.015Z</time></trkpt><trkpt lat="45.020111592160006" lon="9.636942302859888"><ele>77.4</ele><time>2026-04-07T09:19:36.015Z</time></trkpt><trkpt lat="45.02014803321947" lon="9.636822776454723"><ele>77.6</ele><time>2026-04-07T09:19:38.015Z</time></trkpt><trkpt lat="45.020174637249745" lon="9.636706186989818"><ele>77.8</ele><time>2026-04-07T09:19:40.015Z</time></trkpt><trkpt lat="45.02020710214124" lon="9.636574209298656"><ele>78.0</ele><time>2026-04-07T09:19:42.015Z</time></trkpt><trkpt lat="45.02024434758171" lon="9.636442182750455"><ele>78.0</ele><time>2026-04-07T09:19:44.015Z</time></trkpt><trkpt lat="45.02028330739797" lon="9.636300665681423"><ele>78.0</ele><time>2026-04-07T09:19:46.015Z</time></trkpt><trkpt lat="45.02030689135435" lon="9.636167402615426"><ele>78.0</ele><time>2026-04-07T09:19:48.015Z</time></trkpt><trkpt lat="45.02033902801408" lon="9.636031875469985"><ele>78.0</ele><time>2026-04-07T09:19:50.015Z</time></trkpt><trkpt lat="45.020386094870865" lon="9.635902878566666"><ele>78.0</ele><time>2026-04-07T09:19:52.015Z</time></trkpt><trkpt lat="45.02041596465323" lon="9.635784708483282"><ele>78.0</ele><time>2026-04-07T09:19:54.015Z</time></trkpt><trkpt lat="45.0204434110697" lon="9.635669743767352"><ele>78.0</ele><time>2026-04-07T09:19:56.015Z</time></trkpt><trkpt lat="45.020487043614985" lon="9.635564233748655"><ele>78.0</ele><time>2026-04-07T09:19:58.015Z</time></trkpt><trkpt lat="45.02051054877504" lon="9.635434215003379"><ele>78.0</ele><time>2026-04-07T09:20:00.015Z</time></trkpt><trkpt lat="45.02047461461181" lon="9.635329709837922"><ele>78.0</ele><time>2026-04-07T09:20:02.015Z</time></trkpt><trkpt lat="45.02041611549632" lon="9.635246771462617"><ele>78.0</ele><time>2026-04-07T09:20:04.015Z</time></trkpt><trkpt lat="45.02036450986272" lon="9.635167544807503"><ele>78.0</ele><time>2026-04-07T09:20:06.015Z</time></trkpt><trkpt lat="45.02031047578054" lon="9.63508846968812"><ele>78.0</ele><time>2026-04-07T09:20:08.015Z</time></trkpt><trkpt lat="45.02032050301207" lon="9.634989196695718"><ele>78.0</ele><time>2026-04-07T09:20:10.015Z</time></trkpt><trkpt lat="45.020382257058635" lon="9.63489878745904"><ele>78.0</ele><time>2026-04-07T09:20:12.015Z</time></trkpt><trkpt lat="45.02042650277706" lon="9.634778567441893"><ele>78.0</ele><time>2026-04-07T09:20:14.015Z</time></trkpt><trkpt lat="45.02047401076119" lon="9.634655720263623"><ele>78.0</ele><time>2026-04-07T09:20:16.015Z</time></trkpt><trkpt lat="45.02052480081086" lon="9.63451500111885"><ele>78.2</ele><time>2026-04-07T09:20:18.015Z</time></trkpt><trkpt lat="45.02056856989923" lon="9.634386707192988"><ele>78.4</ele><time>2026-04-07T09:20:20.015Z</time></trkpt><trkpt lat="45.020601330458426" lon="9.634241785483754"><ele>78.60000000000001</ele><time>2026-04-07T09:20:22.015Z</time></trkpt><trkpt lat="45.02064385186239" lon="9.63409525309701"><ele>78.8</ele><time>2026-04-07T09:20:24.015Z</time></trkpt><trkpt lat="45.02067129501382" lon="9.6339464900917"><ele>79.0</ele><time>2026-04-07T09:20:26.015Z</time></trkpt><trkpt lat="45.0206907868355" lon="9.63380636614313"><ele>79.0</ele><time>2026-04-07T09:20:28.015Z</time></trkpt><trkpt lat="45.02072779930316" lon="9.633668943592914"><ele>79.0</ele><time>2026-04-07T09:20:30.015Z</time></trkpt><trkpt lat="45.020778079486355" lon="9.633538946467"><ele>79.0</ele><time>2026-04-07T09:20:32.015Z</time></trkpt><trkpt lat="45.02083511251167" lon="9.633416845769911"><ele>79.0</ele><time>2026-04-07T09:20:34.015Z</time></trkpt><trkpt lat="45.02090809690528" lon="9.633305113258071"><ele>79.0</ele><time>2026-04-07T09:20:36.015Z</time></trkpt><trkpt lat="45.020978259159094" lon="9.633194158726582"><ele>78.2</ele><time>2026-04-07T09:20:38.015Z</time></trkpt><trkpt lat="45.02105003122107" lon="9.633082923167171"><ele>77.4</ele><time>2026-04-07T09:20:40.015Z</time></trkpt><trkpt lat="45.02111487474607" lon="9.63296540101451"><ele>76.6</ele><time>2026-04-07T09:20:42.015Z</time></trkpt><trkpt lat="45.021185433215216" lon="9.632853782868224"><ele>75.8</ele><time>2026-04-07T09:20:44.015Z</time></trkpt><trkpt lat="45.021247553432" lon="9.632736571860333"><ele>75.0</ele><time>2026-04-07T09:20:46.015Z</time></trkpt><trkpt lat="45.0213193664059" lon="9.632612105192445"><ele>75.0</ele><time>2026-04-07T09:20:48.015Z</time></trkpt><trkpt lat="45.02141236128661" lon="9.63252213188619"><ele>75.0</ele><time>2026-04-07T09:20:50.015Z</time></trkpt><trkpt lat="45.02152453249384" lon="9.632527948037032"><ele>75.0</ele><time>2026-04-07T09:20:52.015Z</time></trkpt><trkpt lat="45.021630066781476" lon="9.632560521975694"><ele>75.0</ele><time>2026-04-07T09:20:54.015Z</time></trkpt><trkpt lat="45.02173989004608" lon="9.632583195929417"><ele>75.0</ele><time>2026-04-07T09:20:56.015Z</time></trkpt><trkpt lat="45.02185468628546" lon="9.63260748925757"><ele>74.5</ele><time>2026-04-07T09:20:58.015Z</time></trkpt><trkpt lat="45.02196763576217" lon="9.632614895452495"><ele>74.0</ele><time>2026-04-07T09:21:00.015Z</time></trkpt><trkpt lat="45.02208755391629" lon="9.632623398246976"><ele>73.5</ele><time>2026-04-07T09:21:02.015Z</time></trkpt><trkpt lat="45.02220392156856" lon="9.6326339113073"><ele>73.0</ele><time>2026-04-07T09:21:04.015Z</time></trkpt><trkpt lat="45.02232048159606" lon="9.63265453458899"><ele>73.0</ele><time>2026-04-07T09:21:06.015Z</time></trkpt><trkpt lat="45.022437797852284" lon="9.632685934798928"><ele>73.0</ele><time>2026-04-07T09:21:08.015Z</time></trkpt><trkpt lat="45.022549064346634" lon="9.632728991564075"><ele>73.0</ele><time>2026-04-07T09:21:10.015Z</time></trkpt><trkpt lat="45.02265898566356" lon="9.632780832147638"><ele>73.0</ele><time>2026-04-07T09:21:12.015Z</time></trkpt><trkpt lat="45.02275968459031" lon="9.632836177359513"><ele>73.4</ele><time>2026-04-07T09:21:14.015Z</time></trkpt><trkpt lat="45.022841261674074" lon="9.632892676224298"><ele>73.8</ele><time>2026-04-07T09:21:16.015Z</time></trkpt><trkpt lat="45.02293131956806" lon="9.632953992757022"><ele>74.2</ele><time>2026-04-07T09:21:18.015Z</time></trkpt><trkpt lat="45.023036278469434" lon="9.633011682041516"><ele>74.6</ele><time>2026-04-07T09:21:20.015Z</time></trkpt><trkpt lat="45.02314214666287" lon="9.633075150049777"><ele>75.0</ele><time>2026-04-07T09:21:22.015Z</time></trkpt><trkpt lat="45.02325327459455" lon="9.633141443432471"><ele>74.6</ele><time>2026-04-07T09:21:24.016Z</time></trkpt><trkpt lat="45.02336527747899" lon="9.633201251139734"><ele>74.2</ele><time>2026-04-07T09:21:26.015Z</time></trkpt><trkpt lat="45.02347688290238" lon="9.633264422886018"><ele>73.8</ele><time>2026-04-07T09:21:28.016Z</time></trkpt><trkpt lat="45.02358860783519" lon="9.633329489873725"><ele>73.4</ele><time>2026-04-07T09:21:30.016Z</time></trkpt><trkpt lat="45.023649123071955" lon="9.633360778493524"><ele>73.0</ele><time>2026-04-07T09:21:31.016Z</time></trkpt><trkpt lat="45.02376628211226" lon="9.633423635397932"><ele>73.0</ele><time>2026-04-07T09:21:33.016Z</time></trkpt><trkpt lat="45.023882692117624" lon="9.633494451581553"><ele>73.0</ele><time>2026-04-07T09:21:35.016Z</time></trkpt><trkpt lat="45.02394255341827" lon="9.633522681698118"><ele>73.0</ele><time>2026-04-07T09:21:36.016Z</time></trkpt><trkpt lat="45.0240041370054" lon="9.63355385672199"><ele>73.0</ele><time>2026-04-07T09:21:37.016Z</time></trkpt><trkpt lat="45.024062069835225" lon="9.633589898565681"><ele>73.0</ele><time>2026-04-07T09:21:38.016Z</time></trkpt><trkpt lat="45.024175322890635" lon="9.633652140769035"><ele>73.0</ele><time>2026-04-07T09:21:40.016Z</time></trkpt><trkpt lat="45.02423840595398" lon="9.633686797073418"><ele>73.0</ele><time>2026-04-07T09:21:41.016Z</time></trkpt><trkpt lat="45.02435496118291" lon="9.63375508039671"><ele>73.0</ele><time>2026-04-07T09:21:43.016Z</time></trkpt><trkpt lat="45.02441713826416" lon="9.633788004509054"><ele>73.0</ele><time>2026-04-07T09:21:44.016Z</time></trkpt><trkpt lat="45.024478043091904" lon="9.63381840607273"><ele>73.0</ele><time>2026-04-07T09:21:45.016Z</time></trkpt><trkpt lat="45.02459115271791" lon="9.633890524313033"><ele>73.0</ele><time>2026-04-07T09:21:47.016Z</time></trkpt><trkpt lat="45.024706008832354" lon="9.633916483780133"><ele>73.0</ele><time>2026-04-07T09:21:49.016Z</time></trkpt><trkpt lat="45.02475614488318" lon="9.6338531741646"><ele>73.0</ele><time>2026-04-07T09:21:50.016Z</time></trkpt><trkpt lat="45.02477867569382" lon="9.633762845578003"><ele>73.0</ele><time>2026-04-07T09:21:51.016Z</time></trkpt><trkpt lat="45.02479142678818" lon="9.633592277749793"><ele>73.0</ele><time>2026-04-07T09:21:53.016Z</time></trkpt><trkpt lat="45.024805791255574" lon="9.633505233590931"><ele>73.0</ele><time>2026-04-07T09:21:54.016Z</time></trkpt><trkpt lat="45.02481818061262" lon="9.633412723857777"><ele>73.0</ele><time>2026-04-07T09:21:55.016Z</time></trkpt><trkpt lat="45.024834857413765" lon="9.633325482098318"><ele>72.71428571428571</ele><time>2026-04-07T09:21:56.016Z</time></trkpt><trkpt lat="45.02485449790298" lon="9.63323793244903"><ele>72.42857142857143</ele><time>2026-04-07T09:21:57.016Z</time></trkpt><trkpt lat="45.02487175181925" lon="9.633149683801866"><ele>72.14285714285714</ele><time>2026-04-07T09:21:58.016Z</time></trkpt><trkpt lat="45.02488581744433" lon="9.633060385545274"><ele>71.85714285714286</ele><time>2026-04-07T09:21:59.016Z</time></trkpt><trkpt lat="45.024901048157375" lon="9.632971776960575"><ele>71.57142857142857</ele><time>2026-04-07T09:22:00.016Z</time></trkpt><trkpt lat="45.02493417610932" lon="9.632799695681511"><ele>71.28571428571428</ele><time>2026-04-07T09:22:02.016Z</time></trkpt><trkpt lat="45.024948858669006" lon="9.632711790814811"><ele>71.0</ele><time>2026-04-07T09:22:03.016Z</time></trkpt><trkpt lat="45.024963314141225" lon="9.632623312598573"><ele>71.0</ele><time>2026-04-07T09:22:04.016Z</time></trkpt><trkpt lat="45.02498012837375" lon="9.632533967253845"><ele>71.0</ele><time>2026-04-07T09:22:05.016Z</time></trkpt><trkpt lat="45.02499620358375" lon="9.632445252631536"><ele>71.0</ele><time>2026-04-07T09:22:06.016Z</time></trkpt><trkpt lat="45.02501109040211" lon="9.632354252845579"><ele>71.0</ele><time>2026-04-07T09:22:07.016Z</time></trkpt><trkpt lat="45.02502650310577" lon="9.632266646789441"><ele>71.0</ele><time>2026-04-07T09:22:08.016Z</time></trkpt><trkpt lat="45.02504384113608" lon="9.632178262962874"><ele>71.0</ele><time>2026-04-07T09:22:09.016Z</time></trkpt><trkpt lat="45.025076063731404" lon="9.63200705406112"><ele>71.0</ele><time>2026-04-07T09:22:11.016Z</time></trkpt><trkpt lat="45.02510680161426" lon="9.631836641784286"><ele>71.0</ele><time>2026-04-07T09:22:13.016Z</time></trkpt><trkpt lat="45.025134344136646" lon="9.631669627901296"><ele>71.0</ele><time>2026-04-07T09:22:15.016Z</time></trkpt><trkpt lat="45.02516733214904" lon="9.631502224943256"><ele>71.0</ele><time>2026-04-07T09:22:17.016Z</time></trkpt><trkpt lat="45.025195626936515" lon="9.631330509668139"><ele>71.0</ele><time>2026-04-07T09:22:19.016Z</time></trkpt><trkpt lat="45.025226522111865" lon="9.631160662073817"><ele>71.0</ele><time>2026-04-07T09:22:21.016Z</time></trkpt><trkpt lat="45.025255453746475" lon="9.630993879659707"><ele>71.0</ele><time>2026-04-07T09:22:23.016Z</time></trkpt><trkpt lat="45.02526647176544" lon="9.630905243773142"><ele>71.0</ele><time>2026-04-07T09:22:24.016Z</time></trkpt><trkpt lat="45.02526360031526" lon="9.63073168909011"><ele>71.0</ele><time>2026-04-07T09:22:26.016Z</time></trkpt><trkpt lat="45.02521872598801" lon="9.630566847138521"><ele>71.0</ele><time>2026-04-07T09:22:28.016Z</time></trkpt><trkpt lat="45.025213081618965" lon="9.63047100114107"><ele>71.0</ele><time>2026-04-07T09:22:29.016Z</time></trkpt><trkpt lat="45.025219120063085" lon="9.630379067737353"><ele>71.0</ele><time>2026-04-07T09:22:30.016Z</time></trkpt><trkpt lat="45.02524357219828" lon="9.630213904485222"><ele>71.0</ele><time>2026-04-07T09:22:32.016Z</time></trkpt><trkpt lat="45.025271724475616" lon="9.630048620606097"><ele>71.0</ele><time>2026-04-07T09:22:34.016Z</time></trkpt><trkpt lat="45.025294106747666" lon="9.629878365101007"><ele>71.0</ele><time>2026-04-07T09:22:36.016Z</time></trkpt><trkpt lat="45.02530948860839" lon="9.629791223810694"><ele>71.0</ele><time>2026-04-07T09:22:37.016Z</time></trkpt><trkpt lat="45.02533236447327" lon="9.629621984497684"><ele>71.0</ele><time>2026-04-07T09:22:39.016Z</time></trkpt><trkpt lat="45.025357309610996" lon="9.629451445609098"><ele>71.0</ele><time>2026-04-07T09:22:41.016Z</time></trkpt><trkpt lat="45.02537465554958" lon="9.62927828576994"><ele>71.0</ele><time>2026-04-07T09:22:43.016Z</time></trkpt><trkpt lat="45.025378647414044" lon="9.629102348666118"><ele>71.0</ele><time>2026-04-07T09:22:45.016Z</time></trkpt><trkpt lat="45.02536168784209" lon="9.62892910277168"><ele>71.0</ele><time>2026-04-07T09:22:47.016Z</time></trkpt><trkpt lat="45.02534247964286" lon="9.628753105008618"><ele>71.0</ele><time>2026-04-07T09:22:49.016Z</time></trkpt><trkpt lat="45.025331853876686" lon="9.628575037326884"><ele>71.0</ele><time>2026-04-07T09:22:51.016Z</time></trkpt><trkpt lat="45.02532283832662" lon="9.628481586766256"><ele>71.0</ele><time>2026-04-07T09:22:52.016Z</time></trkpt><trkpt lat="45.02531798263312" lon="9.628381898090089"><ele>71.0</ele><time>2026-04-07T09:22:53.016Z</time></trkpt><trkpt lat="45.02531469219918" lon="9.628292319679023"><ele>71.0</ele><time>2026-04-07T09:22:54.016Z</time></trkpt><trkpt lat="45.025307445827366" lon="9.628117285792047"><ele>71.0</ele><time>2026-04-07T09:22:56.016Z</time></trkpt><trkpt lat="45.02530332836608" lon="9.628026547623369"><ele>71.0</ele><time>2026-04-07T09:22:57.016Z</time></trkpt><trkpt lat="45.02529425049014" lon="9.627850057678865"><ele>71.0</ele><time>2026-04-07T09:22:59.016Z</time></trkpt><trkpt lat="45.02528742300652" lon="9.627667964538043"><ele>71.0</ele><time>2026-04-07T09:23:01.016Z</time></trkpt><trkpt lat="45.02527720905101" lon="9.627491994910358"><ele>71.0</ele><time>2026-04-07T09:23:03.016Z</time></trkpt><trkpt lat="45.02526691295957" lon="9.62731951942144"><ele>71.0</ele><time>2026-04-07T09:23:05.016Z</time></trkpt><trkpt lat="45.02526024210616" lon="9.627229616826233"><ele>71.0</ele><time>2026-04-07T09:23:06.016Z</time></trkpt><trkpt lat="45.02525037463556" lon="9.627059557232814"><ele>71.0</ele><time>2026-04-07T09:23:08.016Z</time></trkpt><trkpt lat="45.02524612550516" lon="9.626969904572396"><ele>71.0</ele><time>2026-04-07T09:23:09.016Z</time></trkpt><trkpt lat="45.025237129212066" lon="9.626796163147464"><ele>71.0</ele><time>2026-04-07T09:23:11.016Z</time></trkpt><trkpt lat="45.0252277340221" lon="9.626622234645232"><ele>71.0</ele><time>2026-04-07T09:23:13.016Z</time></trkpt><trkpt lat="45.0252125840093" lon="9.626451273348788"><ele>71.0</ele><time>2026-04-07T09:23:15.016Z</time></trkpt><trkpt lat="45.02520826942975" lon="9.626359743934012"><ele>71.0</ele><time>2026-04-07T09:23:16.016Z</time></trkpt><trkpt lat="45.025206542796276" lon="9.626183588596838"><ele>71.0</ele><time>2026-04-07T09:23:18.016Z</time></trkpt><trkpt lat="45.02520683499495" lon="9.626092881298462"><ele>71.0</ele><time>2026-04-07T09:23:19.016Z</time></trkpt><trkpt lat="45.025202451977016" lon="9.626003800282076"><ele>71.0</ele><time>2026-04-07T09:23:20.016Z</time></trkpt><trkpt lat="45.02519563056069" lon="9.625914975449279"><ele>71.0</ele><time>2026-04-07T09:23:21.016Z</time></trkpt><trkpt lat="45.02519513486867" lon="9.625820993405304"><ele>71.0</ele><time>2026-04-07T09:23:22.016Z</time></trkpt><trkpt lat="45.02519415531599" lon="9.625644954154167"><ele>71.0</ele><time>2026-04-07T09:23:24.016Z</time></trkpt><trkpt lat="45.025193613925744" lon="9.625552425643294"><ele>71.0</ele><time>2026-04-07T09:23:25.016Z</time></trkpt><trkpt lat="45.025199385934535" lon="9.62546264780809"><ele>71.0</ele><time>2026-04-07T09:23:26.016Z</time></trkpt><trkpt lat="45.025206000061466" lon="9.625370447439272"><ele>71.0</ele><time>2026-04-07T09:23:27.016Z</time></trkpt><trkpt lat="45.02526236291963" lon="9.62521218932203"><ele>71.0</ele><time>2026-04-07T09:23:29.016Z</time></trkpt><trkpt lat="45.02533203136128" lon="9.625188739000786"><ele>71.0</ele><time>2026-04-07T09:23:30.016Z</time></trkpt><trkpt lat="45.02544242124858" lon="9.625136885433394"><ele>71.0</ele><time>2026-04-07T09:23:32.016Z</time></trkpt><trkpt lat="45.025443105936475" lon="9.624954474084674"><ele>71.57142857142857</ele><time>2026-04-07T09:23:34.017Z</time></trkpt><trkpt lat="45.025433660982884" lon="9.624863785337014"><ele>72.14285714285714</ele><time>2026-04-07T09:23:35.017Z</time></trkpt><trkpt lat="45.02543036727871" lon="9.624774637271534"><ele>72.71428571428571</ele><time>2026-04-07T09:23:36.016Z</time></trkpt><trkpt lat="45.02543371888347" lon="9.62468390626756"><ele>73.28571428571428</ele><time>2026-04-07T09:23:37.017Z</time></trkpt><trkpt lat="45.025434811483116" lon="9.624594676975292"><ele>73.85714285714286</ele><time>2026-04-07T09:23:38.017Z</time></trkpt><trkpt lat="45.02543921865248" lon="9.624503163401988"><ele>74.42857142857142</ele><time>2026-04-07T09:23:39.017Z</time></trkpt><trkpt lat="45.025445006571836" lon="9.624322900275676"><ele>75.0</ele><time>2026-04-07T09:23:41.016Z</time></trkpt><trkpt lat="45.025446282485554" lon="9.624229046439204"><ele>74.99999999999999</ele><time>2026-04-07T09:23:42.017Z</time></trkpt><trkpt lat="45.02545206903236" lon="9.62413922872228"><ele>75.0</ele><time>2026-04-07T09:23:43.017Z</time></trkpt><trkpt lat="45.02545451871876" lon="9.624049497119977"><ele>75.0</ele><time>2026-04-07T09:23:44.017Z</time></trkpt><trkpt lat="45.02545707185349" lon="9.623959156175323"><ele>75.0</ele><time>2026-04-07T09:23:45.017Z</time></trkpt><trkpt lat="45.02545972454591" lon="9.623868666645222"><ele>75.0</ele><time>2026-04-07T09:23:46.017Z</time></trkpt><trkpt lat="45.025464259489475" lon="9.623775616776218"><ele>74.99999999999999</ele><time>2026-04-07T09:23:47.017Z</time></trkpt><trkpt lat="45.02546413390558" lon="9.623686202759862"><ele>75.0</ele><time>2026-04-07T09:23:48.017Z</time></trkpt><trkpt lat="45.0254829477318" lon="9.623513509628907"><ele>75.0</ele><time>2026-04-07T09:23:50.017Z</time></trkpt><trkpt lat="45.02548208391939" lon="9.623342262430112"><ele>75.0</ele><time>2026-04-07T09:23:52.017Z</time></trkpt><trkpt lat="45.025482659020774" lon="9.623252249959283"><ele>75.0</ele><time>2026-04-07T09:23:53.017Z</time></trkpt><trkpt lat="45.02549363636447" lon="9.623075934749266"><ele>75.0</ele><time>2026-04-07T09:23:55.017Z</time></trkpt><trkpt lat="45.02550270685593" lon="9.622986636520872"><ele>75.0</ele><time>2026-04-07T09:23:56.017Z</time></trkpt><trkpt lat="45.025506666209154" lon="9.622812085980918"><ele>75.0</ele><time>2026-04-07T09:23:58.017Z</time></trkpt><trkpt lat="45.02550777750102" lon="9.622722279737873"><ele>75.0</ele><time>2026-04-07T09:23:59.017Z</time></trkpt><trkpt lat="45.02552004651979" lon="9.6225404121393"><ele>75.0</ele><time>2026-04-07T09:24:01.017Z</time></trkpt><trkpt lat="45.02552401476345" lon="9.622369665849403"><ele>75.0</ele><time>2026-04-07T09:24:03.017Z</time></trkpt><trkpt lat="45.0255242063617" lon="9.622269740747594"><ele>75.0</ele><time>2026-04-07T09:24:04.017Z</time></trkpt><trkpt lat="45.02552565729834" lon="9.622102917722895"><ele>75.0</ele><time>2026-04-07T09:24:06.017Z</time></trkpt><trkpt lat="45.02553587306462" lon="9.622011033312745"><ele>75.0</ele><time>2026-04-07T09:24:07.017Z</time></trkpt><trkpt lat="45.02554067211824" lon="9.621918088874201"><ele>75.0</ele><time>2026-04-07T09:24:08.017Z</time></trkpt><trkpt lat="45.02553653017673" lon="9.621825414892612"><ele>75.0</ele><time>2026-04-07T09:24:09.017Z</time></trkpt><trkpt lat="45.025536761477035" lon="9.621733742183972"><ele>75.0</ele><time>2026-04-07T09:24:10.017Z</time></trkpt><trkpt lat="45.02554597501886" lon="9.621555884158681"><ele>75.0</ele><time>2026-04-07T09:24:12.017Z</time></trkpt><trkpt lat="45.02555299993243" lon="9.62138115321927"><ele>74.6</ele><time>2026-04-07T09:24:14.017Z</time></trkpt><trkpt lat="45.02555806493543" lon="9.621211774602795"><ele>74.2</ele><time>2026-04-07T09:24:16.017Z</time></trkpt><trkpt lat="45.02556233272471" lon="9.62104985443288"><ele>73.8</ele><time>2026-04-07T09:24:18.017Z</time></trkpt><trkpt lat="45.025572551022975" lon="9.620899662458633"><ele>73.4</ele><time>2026-04-07T09:24:20.017Z</time></trkpt><trkpt lat="45.025576883922476" lon="9.620763522034942"><ele>73.0</ele><time>2026-04-07T09:24:22.017Z</time></trkpt><trkpt lat="45.02557730079477" lon="9.620633646170356"><ele>72.66666666666666</ele><time>2026-04-07T09:24:24.017Z</time></trkpt><trkpt lat="45.02558309542722" lon="9.620514406421067"><ele>72.33333333333333</ele><time>2026-04-07T09:24:26.017Z</time></trkpt><trkpt lat="45.02560664740866" lon="9.620412701016349"><ele>72.0</ele><time>2026-04-07T09:24:28.017Z</time></trkpt><trkpt lat="45.025685927721504" lon="9.620368876831805"><ele>71.66666666666667</ele><time>2026-04-07T09:24:30.017Z</time></trkpt><trkpt lat="45.02578430136833" lon="9.620354334300638"><ele>71.33333333333334</ele><time>2026-04-07T09:24:32.017Z</time></trkpt><trkpt lat="45.02584736103198" lon="9.62034316948186"><ele>71.0</ele><time>2026-04-07T09:24:33.017Z</time></trkpt><trkpt lat="45.02591124044701" lon="9.620344819875033"><ele>70.8</ele><time>2026-04-07T09:24:34.017Z</time></trkpt><trkpt lat="45.02603522557313" lon="9.620337458426954"><ele>70.6</ele><time>2026-04-07T09:24:36.017Z</time></trkpt><trkpt lat="45.02615769233912" lon="9.6203409497068"><ele>70.4</ele><time>2026-04-07T09:24:38.017Z</time></trkpt><trkpt lat="45.02622464323489" lon="9.62033410399403"><ele>70.2</ele><time>2026-04-07T09:24:39.017Z</time></trkpt><trkpt lat="45.026349400202434" lon="9.620330154548942"><ele>70.0</ele><time>2026-04-07T09:24:41.017Z</time></trkpt><trkpt lat="45.02641605906363" lon="9.620328619747623"><ele>70.0</ele><time>2026-04-07T09:24:42.017Z</time></trkpt><trkpt lat="45.02654108713957" lon="9.620324513092486"><ele>70.0</ele><time>2026-04-07T09:24:44.017Z</time></trkpt><trkpt lat="45.02660633397685" lon="9.620318860293171"><ele>70.0</ele><time>2026-04-07T09:24:45.017Z</time></trkpt><trkpt lat="45.026738168985744" lon="9.620314006521605"><ele>70.0</ele><time>2026-04-07T09:24:47.017Z</time></trkpt><trkpt lat="45.026866191564864" lon="9.620309800793652"><ele>70.0</ele><time>2026-04-07T09:24:49.017Z</time></trkpt><trkpt lat="45.026930001790525" lon="9.620314250455717"><ele>70.0</ele><time>2026-04-07T09:24:50.017Z</time></trkpt><trkpt lat="45.026993581927734" lon="9.620315357293775"><ele>70.0</ele><time>2026-04-07T09:24:51.017Z</time></trkpt><trkpt lat="45.027059750335056" lon="9.620317338885622"><ele>70.0</ele><time>2026-04-07T09:24:52.017Z</time></trkpt><trkpt lat="45.02712504116468" lon="9.620323740206898"><ele>70.0</ele><time>2026-04-07T09:24:53.017Z</time></trkpt><trkpt lat="45.027191831570256" lon="9.620334630772453"><ele>70.0</ele><time>2026-04-07T09:24:54.017Z</time></trkpt><trkpt lat="45.02725675638328" lon="9.620343093490629"><ele>70.0</ele><time>2026-04-07T09:24:55.017Z</time></trkpt><trkpt lat="45.02732460542296" lon="9.620351839341273"><ele>70.0</ele><time>2026-04-07T09:24:56.017Z</time></trkpt><trkpt lat="45.02745184185828" lon="9.62038292873313"><ele>70.0</ele><time>2026-04-07T09:24:58.017Z</time></trkpt><trkpt lat="45.0275157460973" lon="9.620394934495687"><ele>70.0</ele><time>2026-04-07T09:24:59.017Z</time></trkpt><trkpt lat="45.02764341157372" lon="9.620415127884534"><ele>70.0</ele><time>2026-04-07T09:25:01.017Z</time></trkpt><trkpt lat="45.02770898987855" lon="9.620428733091812"><ele>70.0</ele><time>2026-04-07T09:25:02.017Z</time></trkpt><trkpt lat="45.02777234963637" lon="9.620428584820903"><ele>70.5</ele><time>2026-04-07T09:25:03.017Z</time></trkpt><trkpt lat="45.0278359257945" lon="9.620448673340773"><ele>71.0</ele><time>2026-04-07T09:25:04.017Z</time></trkpt><trkpt lat="45.027901170000426" lon="9.62046383215751"><ele>71.5</ele><time>2026-04-07T09:25:05.017Z</time></trkpt><trkpt lat="45.0280303692147" lon="9.62048708133622"><ele>72.0</ele><time>2026-04-07T09:25:07.017Z</time></trkpt><trkpt lat="45.02809414070067" lon="9.620494284281055"><ele>72.5</ele><time>2026-04-07T09:25:08.017Z</time></trkpt><trkpt lat="45.02815893204769" lon="9.620504390775189"><ele>73.0</ele><time>2026-04-07T09:25:09.017Z</time></trkpt><trkpt lat="45.02822192097868" lon="9.620520626965941"><ele>73.0</ele><time>2026-04-07T09:25:10.017Z</time></trkpt><trkpt lat="45.028289245651195" lon="9.620530443476778"><ele>73.0</ele><time>2026-04-07T09:25:11.017Z</time></trkpt><trkpt lat="45.02835644932133" lon="9.620542435145216"><ele>73.0</ele><time>2026-04-07T09:25:12.017Z</time></trkpt><trkpt lat="45.028483302272726" lon="9.620569811526721"><ele>73.0</ele><time>2026-04-07T09:25:14.017Z</time></trkpt><trkpt lat="45.028545565706615" lon="9.62058900918683"><ele>73.0</ele><time>2026-04-07T09:25:15.017Z</time></trkpt><trkpt lat="45.028615629488115" lon="9.620605401949286"><ele>73.0</ele><time>2026-04-07T09:25:16.017Z</time></trkpt><trkpt lat="45.028679290620225" lon="9.620626199290486"><ele>72.57142857142857</ele><time>2026-04-07T09:25:17.017Z</time></trkpt><trkpt lat="45.02874386160709" lon="9.62064904201778"><ele>72.14285714285714</ele><time>2026-04-07T09:25:18.017Z</time></trkpt><trkpt lat="45.02880650687945" lon="9.62067575022824"><ele>71.71428571428572</ele><time>2026-04-07T09:25:19.017Z</time></trkpt><trkpt lat="45.028869113119626" lon="9.620710637036435"><ele>71.28571428571428</ele><time>2026-04-07T09:25:20.017Z</time></trkpt><trkpt lat="45.02893235017408" lon="9.620744031172526"><ele>70.85714285714286</ele><time>2026-04-07T09:25:21.017Z</time></trkpt><trkpt lat="45.02899259463126" lon="9.620770646658414"><ele>70.42857142857143</ele><time>2026-04-07T09:25:22.017Z</time></trkpt><trkpt lat="45.02905442729166" lon="9.620799159020708"><ele>70.0</ele><time>2026-04-07T09:25:23.017Z</time></trkpt><trkpt lat="45.02911670388163" lon="9.620832764401028"><ele>70.0</ele><time>2026-04-07T09:25:24.017Z</time></trkpt><trkpt lat="45.02923487360413" lon="9.620892222004324"><ele>70.0</ele><time>2026-04-07T09:25:26.017Z</time></trkpt><trkpt lat="45.02929658086613" lon="9.620920413240551"><ele>70.0</ele><time>2026-04-07T09:25:27.017Z</time></trkpt><trkpt lat="45.02941066310786" lon="9.620999385276878"><ele>70.0</ele><time>2026-04-07T09:25:29.017Z</time></trkpt><trkpt lat="45.02951271411937" lon="9.621085933504864"><ele>70.0</ele><time>2026-04-07T09:25:31.017Z</time></trkpt><trkpt lat="45.029620832799914" lon="9.621169937955615"><ele>70.0</ele><time>2026-04-07T09:25:33.017Z</time></trkpt><trkpt lat="45.02971459467121" lon="9.62124793222316"><ele>70.0</ele><time>2026-04-07T09:25:35.017Z</time></trkpt><trkpt lat="45.02977435418136" lon="9.621369777500721"><ele>70.0</ele><time>2026-04-07T09:25:37.017Z</time></trkpt><trkpt lat="45.02980701509267" lon="9.62150752654028"><ele>70.0</ele><time>2026-04-07T09:25:39.017Z</time></trkpt><trkpt lat="45.02985668850791" lon="9.621635066200813"><ele>70.0</ele><time>2026-04-07T09:25:41.017Z</time></trkpt><trkpt lat="45.029901932682385" lon="9.621761850483477"><ele>70.0</ele><time>2026-04-07T09:25:43.017Z</time></trkpt><trkpt lat="45.02993726489169" lon="9.621886843180597"><ele>70.0</ele><time>2026-04-07T09:25:45.018Z</time></trkpt><trkpt lat="45.02997021917668" lon="9.622010696624477"><ele>70.0</ele><time>2026-04-07T09:25:47.017Z</time></trkpt><trkpt lat="45.02999211280343" lon="9.622127148702438"><ele>70.0</ele><time>2026-04-07T09:25:49.017Z</time></trkpt><trkpt lat="45.030021242168814" lon="9.622237610161115"><ele>70.0</ele><time>2026-04-07T09:25:51.017Z</time></trkpt><trkpt lat="45.03005294974659" lon="9.622352879843016"><ele>70.0</ele><time>2026-04-07T09:25:53.017Z</time></trkpt><trkpt lat="45.03007811325123" lon="9.622471961112048"><ele>70.0</ele><time>2026-04-07T09:25:55.017Z</time></trkpt><trkpt lat="45.03012602268327" lon="9.622591685924402"><ele>70.0</ele><time>2026-04-07T09:25:57.017Z</time></trkpt><trkpt lat="45.03016852492043" lon="9.622713097583821"><ele>70.0</ele><time>2026-04-07T09:25:59.017Z</time></trkpt><trkpt lat="45.03020611368983" lon="9.622828784394105"><ele>70.0</ele><time>2026-04-07T09:26:01.017Z</time></trkpt><trkpt lat="45.030252937183285" lon="9.622939284391615"><ele>70.0</ele><time>2026-04-07T09:26:03.017Z</time></trkpt><trkpt lat="45.03029413948234" lon="9.623043680851161"><ele>69.71428571428571</ele><time>2026-04-07T09:26:05.017Z</time></trkpt><trkpt lat="45.03032609328049" lon="9.623140539618127"><ele>69.42857142857143</ele><time>2026-04-07T09:26:07.017Z</time></trkpt><trkpt lat="45.03037722942583" lon="9.62322375808329"><ele>69.14285714285714</ele><time>2026-04-07T09:26:09.017Z</time></trkpt><trkpt lat="45.03043711206776" lon="9.623269464940723"><ele>68.85714285714286</ele><time>2026-04-07T09:26:11.017Z</time></trkpt><trkpt lat="45.030493895356116" lon="9.623316618195746"><ele>68.57142857142857</ele><time>2026-04-07T09:26:13.017Z</time></trkpt><trkpt lat="45.030536598376685" lon="9.623389613724193"><ele>68.28571428571428</ele><time>2026-04-07T09:26:15.017Z</time></trkpt><trkpt lat="45.0305698262756" lon="9.623506915307637"><ele>68.0</ele><time>2026-04-07T09:26:18.017Z</time></trkpt><trkpt lat="45.03061556230071" lon="9.62361862379061"><ele>68.0</ele><time>2026-04-07T09:26:21.017Z</time></trkpt><trkpt lat="45.030652796588996" lon="9.62372793845136"><ele>68.0</ele><time>2026-04-07T09:26:24.017Z</time></trkpt><trkpt lat="45.0306948982861" lon="9.623829154295256"><ele>68.0</ele><time>2026-04-07T09:26:27.017Z</time></trkpt><trkpt lat="45.03072931523941" lon="9.623932985413612"><ele>68.0</ele><time>2026-04-07T09:26:30.017Z</time></trkpt><trkpt lat="45.03075844067474" lon="9.624015311463513"><ele>68.0</ele><time>2026-04-07T09:26:32.017Z</time></trkpt><trkpt lat="45.03078979311546" lon="9.624095121966679"><ele>68.0</ele><time>2026-04-07T09:26:34.017Z</time></trkpt><trkpt lat="45.03081518079832" lon="9.62418760780818"><ele>68.0</ele><time>2026-04-07T09:26:36.017Z</time></trkpt><trkpt lat="45.03085294439181" lon="9.624282429389448"><ele>68.0</ele><time>2026-04-07T09:26:38.017Z</time></trkpt><trkpt lat="45.030879941973765" lon="9.624379269897625"><ele>68.0</ele><time>2026-04-07T09:26:40.017Z</time></trkpt><trkpt lat="45.030915780887796" lon="9.62446892759899"><ele>68.0</ele><time>2026-04-07T09:26:42.017Z</time></trkpt><trkpt lat="45.03095165510106" lon="9.624571737961192"><ele>68.0</ele><time>2026-04-07T09:26:44.017Z</time></trkpt><trkpt lat="45.03098962727039" lon="9.624683405059729"><ele>68.0</ele><time>2026-04-07T09:26:46.017Z</time></trkpt><trkpt lat="45.031034845600374" lon="9.624794321667466"><ele>68.0</ele><time>2026-04-07T09:26:48.017Z</time></trkpt><trkpt lat="45.03107097929445" lon="9.624902853707102"><ele>68.0</ele><time>2026-04-07T09:26:50.017Z</time></trkpt><trkpt lat="45.03111154283181" lon="9.625017921555669"><ele>68.0</ele><time>2026-04-07T09:26:52.017Z</time></trkpt><trkpt lat="45.03115344463595" lon="9.625140583920635"><ele>68.0</ele><time>2026-04-07T09:26:54.017Z</time></trkpt><trkpt lat="45.031201527477165" lon="9.625273085012383"><ele>68.0</ele><time>2026-04-07T09:26:56.017Z</time></trkpt><trkpt lat="45.031251344065076" lon="9.625428311844708"><ele>68.0</ele><time>2026-04-07T09:26:58.017Z</time></trkpt><trkpt lat="45.031308172663316" lon="9.625585660719477"><ele>68.0</ele><time>2026-04-07T09:27:00.017Z</time></trkpt><trkpt lat="45.031339382426495" lon="9.625672733759604"><ele>68.0</ele><time>2026-04-07T09:27:01.017Z</time></trkpt><trkpt lat="45.03137912549882" lon="9.625754027394999"><ele>68.0</ele><time>2026-04-07T09:27:02.017Z</time></trkpt><trkpt lat="45.03142410657515" lon="9.6258287230608"><ele>68.0</ele><time>2026-04-07T09:27:03.017Z</time></trkpt><trkpt lat="45.03148518686226" lon="9.625885838779405"><ele>68.0</ele><time>2026-04-07T09:27:04.017Z</time></trkpt><trkpt lat="45.03154903014151" lon="9.625941350289303"><ele>68.0</ele><time>2026-04-07T09:27:05.017Z</time></trkpt><trkpt lat="45.031604140442724" lon="9.625995841687748"><ele>68.0</ele><time>2026-04-07T09:27:06.017Z</time></trkpt><trkpt lat="45.03165869131312" lon="9.626055076232317"><ele>68.0</ele><time>2026-04-07T09:27:07.017Z</time></trkpt><trkpt lat="45.03171613364608" lon="9.626109398567014"><ele>68.0</ele><time>2026-04-07T09:27:08.017Z</time></trkpt><trkpt lat="45.031806477396174" lon="9.626209172822689"><ele>68.0</ele><time>2026-04-07T09:27:10.017Z</time></trkpt><trkpt lat="45.03184419113612" lon="9.62628315946299"><ele>68.0</ele><time>2026-04-07T09:27:11.017Z</time></trkpt><trkpt lat="45.03187063502875" lon="9.626433953481913"><ele>67.83333333333334</ele><time>2026-04-07T09:27:13.017Z</time></trkpt><trkpt lat="45.031876110393696" lon="9.626569617680342"><ele>67.66666666666667</ele><time>2026-04-07T09:27:15.017Z</time></trkpt><trkpt lat="45.03188519215257" lon="9.626694710617146"><ele>67.5</ele><time>2026-04-07T09:27:17.017Z</time></trkpt><trkpt lat="45.03189790952216" lon="9.626815755889151"><ele>67.33333333333333</ele><time>2026-04-07T09:27:19.017Z</time></trkpt><trkpt lat="45.03191098696637" lon="9.626932907329962"><ele>67.16666666666666</ele><time>2026-04-07T09:27:21.017Z</time></trkpt><trkpt lat="45.03191677651652" lon="9.627037039936065"><ele>67.0</ele><time>2026-04-07T09:27:23.017Z</time></trkpt><trkpt lat="45.031978106119986" lon="9.627089145364648"><ele>67.0</ele><time>2026-04-07T09:27:25.017Z</time></trkpt><trkpt lat="45.032021620260544" lon="9.626988125192364"><ele>67.0</ele><time>2026-04-07T09:27:27.017Z</time></trkpt><trkpt lat="45.032019978425275" lon="9.626859850091622"><ele>67.0</ele><time>2026-04-07T09:27:29.017Z</time></trkpt><trkpt lat="45.03201204856346" lon="9.626738387864837"><ele>67.0</ele><time>2026-04-07T09:27:31.017Z</time></trkpt><trkpt lat="45.032003410306274" lon="9.626613679097527"><ele>67.0</ele><time>2026-04-07T09:27:33.017Z</time></trkpt><trkpt lat="45.03199637897075" lon="9.626484185983"><ele>67.0</ele><time>2026-04-07T09:27:35.017Z</time></trkpt><trkpt lat="45.03198278298306" lon="9.62635732029148"><ele>66.83333333333333</ele><time>2026-04-07T09:27:37.017Z</time></trkpt><trkpt lat="45.03196347558449" lon="9.626229942851472"><ele>66.66666666666666</ele><time>2026-04-07T09:27:39.017Z</time></trkpt><trkpt lat="45.03192719284071" lon="9.626117361716636"><ele>66.5</ele><time>2026-04-07T09:27:41.017Z</time></trkpt><trkpt lat="45.031882232461165" lon="9.62600888183497"><ele>66.33333333333333</ele><time>2026-04-07T09:27:43.018Z</time></trkpt><trkpt lat="45.03183249932529" lon="9.625908409279763"><ele>66.16666666666667</ele><time>2026-04-07T09:27:45.018Z</time></trkpt><trkpt lat="45.03178606648369" lon="9.625795461772489"><ele>66.0</ele><time>2026-04-07T09:27:47.018Z</time></trkpt><trkpt lat="45.031749135448585" lon="9.625677834559186"><ele>65.8</ele><time>2026-04-07T09:27:49.018Z</time></trkpt><trkpt lat="45.03171886903026" lon="9.625556552773874"><ele>65.6</ele><time>2026-04-07T09:27:51.018Z</time></trkpt><trkpt lat="45.031700916998176" lon="9.625431498336638"><ele>65.4</ele><time>2026-04-07T09:27:53.018Z</time></trkpt><trkpt lat="45.03168675478854" lon="9.625300501495188"><ele>65.2</ele><time>2026-04-07T09:27:55.018Z</time></trkpt><trkpt lat="45.031668654682825" lon="9.625172377622022"><ele>65.0</ele><time>2026-04-07T09:27:57.018Z</time></trkpt><trkpt lat="45.03165627727546" lon="9.625042834059702"><ele>65.4</ele><time>2026-04-07T09:27:59.018Z</time></trkpt><trkpt lat="45.03164469695425" lon="9.624909227943911"><ele>65.8</ele><time>2026-04-07T09:28:01.018Z</time></trkpt><trkpt lat="45.03163447904287" lon="9.624779055093356"><ele>66.2</ele><time>2026-04-07T09:28:03.018Z</time></trkpt><trkpt lat="45.03162454354178" lon="9.624645163771484"><ele>66.6</ele><time>2026-04-07T09:28:05.018Z</time></trkpt><trkpt lat="45.03161280762896" lon="9.624513398658895"><ele>67.0</ele><time>2026-04-07T09:28:07.018Z</time></trkpt><trkpt lat="45.031607424883795" lon="9.624382945886222"><ele>67.2</ele><time>2026-04-07T09:28:09.018Z</time></trkpt><trkpt lat="45.03159760637826" lon="9.624245613740763"><ele>67.4</ele><time>2026-04-07T09:28:11.018Z</time></trkpt><trkpt lat="45.0315918145005" lon="9.624110746770508"><ele>67.6</ele><time>2026-04-07T09:28:13.018Z</time></trkpt><trkpt lat="45.03158438100484" lon="9.623975185264817"><ele>67.8</ele><time>2026-04-07T09:28:15.018Z</time></trkpt><trkpt lat="45.03157587490438" lon="9.623837595410171"><ele>68.0</ele><time>2026-04-07T09:28:17.018Z</time></trkpt><trkpt lat="45.03157310862242" lon="9.623697012082554"><ele>68.2</ele><time>2026-04-07T09:28:19.018Z</time></trkpt><trkpt lat="45.03156601924666" lon="9.623558079552774"><ele>68.4</ele><time>2026-04-07T09:28:21.018Z</time></trkpt><trkpt lat="45.03156186285298" lon="9.623419892575106"><ele>68.60000000000001</ele><time>2026-04-07T09:28:23.018Z</time></trkpt><trkpt lat="45.031560945483015" lon="9.623278860621184"><ele>68.8</ele><time>2026-04-07T09:28:25.018Z</time></trkpt><trkpt lat="45.03155895746237" lon="9.623136587672565"><ele>69.0</ele><time>2026-04-07T09:28:27.018Z</time></trkpt><trkpt lat="45.031559465794125" lon="9.622995720521352"><ele>69.0</ele><time>2026-04-07T09:28:29.018Z</time></trkpt><trkpt lat="45.03155469172761" lon="9.622854996762602"><ele>69.0</ele><time>2026-04-07T09:28:31.018Z</time></trkpt><trkpt lat="45.03155288096394" lon="9.622715685674521"><ele>69.0</ele><time>2026-04-07T09:28:33.018Z</time></trkpt><trkpt lat="45.03155362030207" lon="9.62257153280097"><ele>69.0</ele><time>2026-04-07T09:28:35.018Z</time></trkpt><trkpt lat="45.03155587516416" lon="9.622437920081376"><ele>69.0</ele><time>2026-04-07T09:28:37.018Z</time></trkpt><trkpt lat="45.031552202573" lon="9.62230027726295"><ele>69.0</ele><time>2026-04-07T09:28:39.018Z</time></trkpt><trkpt lat="45.03155185586341" lon="9.622167006249644"><ele>69.0</ele><time>2026-04-07T09:28:41.018Z</time></trkpt><trkpt lat="45.0315523986031" lon="9.622029361502044"><ele>69.0</ele><time>2026-04-07T09:28:43.018Z</time></trkpt><trkpt lat="45.03155331560405" lon="9.621891919019385"><ele>69.0</ele><time>2026-04-07T09:28:45.018Z</time></trkpt><trkpt lat="45.031551378251436" lon="9.621757401640204"><ele>69.0</ele><time>2026-04-07T09:28:47.018Z</time></trkpt><trkpt lat="45.03154821326533" lon="9.621616088527666"><ele>69.0</ele><time>2026-04-07T09:28:49.018Z</time></trkpt><trkpt lat="45.031549078175374" lon="9.62147538545421"><ele>69.0</ele><time>2026-04-07T09:28:51.018Z</time></trkpt><trkpt lat="45.03154613496971" lon="9.621330699084035"><ele>69.0</ele><time>2026-04-07T09:28:53.018Z</time></trkpt><trkpt lat="45.031544961622934" lon="9.621193860530681"><ele>69.0</ele><time>2026-04-07T09:28:55.018Z</time></trkpt><trkpt lat="45.03153995295917" lon="9.621058366397556"><ele>69.0</ele><time>2026-04-07T09:28:57.018Z</time></trkpt><trkpt lat="45.03154825758271" lon="9.620899403826941"><ele>69.0</ele><time>2026-04-07T09:28:59.018Z</time></trkpt><trkpt lat="45.03154519320717" lon="9.620761260522551"><ele>69.0</ele><time>2026-04-07T09:29:01.018Z</time></trkpt><trkpt lat="45.0315486504032" lon="9.620604160806135"><ele>69.0</ele><time>2026-04-07T09:29:03.018Z</time></trkpt><trkpt lat="45.0315488291316" lon="9.620455174432148"><ele>69.0</ele><time>2026-04-07T09:29:05.018Z</time></trkpt><trkpt lat="45.031549217301574" lon="9.620291028027621"><ele>69.0</ele><time>2026-04-07T09:29:07.018Z</time></trkpt><trkpt lat="45.031551019000325" lon="9.620140584794658"><ele>68.4</ele><time>2026-04-07T09:29:09.018Z</time></trkpt><trkpt lat="45.03155503511573" lon="9.619997228907279"><ele>67.80000000000001</ele><time>2026-04-07T09:29:11.018Z</time></trkpt><trkpt lat="45.03154769576982" lon="9.619844966054888"><ele>67.19999999999999</ele><time>2026-04-07T09:29:13.018Z</time></trkpt><trkpt lat="45.03155347729899" lon="9.619691141701626"><ele>66.6</ele><time>2026-04-07T09:29:15.018Z</time></trkpt><trkpt lat="45.03155188993336" lon="9.619538188034863"><ele>66.0</ele><time>2026-04-07T09:29:17.018Z</time></trkpt><trkpt lat="45.03155393785173" lon="9.619384198060693"><ele>66.0</ele><time>2026-04-07T09:29:19.018Z</time></trkpt><trkpt lat="45.03155684390813" lon="9.61922687248686"><ele>66.0</ele><time>2026-04-07T09:29:21.018Z</time></trkpt><trkpt lat="45.031553042441885" lon="9.619080444250043"><ele>66.0</ele><time>2026-04-07T09:29:23.018Z</time></trkpt><trkpt lat="45.03155445299411" lon="9.61892769181337"><ele>66.0</ele><time>2026-04-07T09:29:25.018Z</time></trkpt><trkpt lat="45.03155340984746" lon="9.61877575713278"><ele>66.0</ele><time>2026-04-07T09:29:27.018Z</time></trkpt><trkpt lat="45.03155176753371" lon="9.618623679688428"><ele>66.0</ele><time>2026-04-07T09:29:29.018Z</time></trkpt><trkpt lat="45.03154983542759" lon="9.618466068356868"><ele>66.0</ele><time>2026-04-07T09:29:31.018Z</time></trkpt><trkpt lat="45.03155365241676" lon="9.618317931767534"><ele>66.0</ele><time>2026-04-07T09:29:33.018Z</time></trkpt><trkpt lat="45.03155048499847" lon="9.61816613589101"><ele>66.0</ele><time>2026-04-07T09:29:35.018Z</time></trkpt><trkpt lat="45.03155165463169" lon="9.618019425410864"><ele>66.0</ele><time>2026-04-07T09:29:37.018Z</time></trkpt><trkpt lat="45.0315540663196" lon="9.617869107867826"><ele>66.0</ele><time>2026-04-07T09:29:39.018Z</time></trkpt><trkpt lat="45.031555571775414" lon="9.617725891776454"><ele>66.0</ele><time>2026-04-07T09:29:41.018Z</time></trkpt><trkpt lat="45.031552434010926" lon="9.617581135892603"><ele>66.0</ele><time>2026-04-07T09:29:43.018Z</time></trkpt><trkpt lat="45.03155410169156" lon="9.617432699358247"><ele>66.0</ele><time>2026-04-07T09:29:45.018Z</time></trkpt><trkpt lat="45.03155258535713" lon="9.617283442189597"><ele>66.0</ele><time>2026-04-07T09:29:47.018Z</time></trkpt><trkpt lat="45.0315543430674" lon="9.617137184469655"><ele>66.0</ele><time>2026-04-07T09:29:49.018Z</time></trkpt><trkpt lat="45.031551509210665" lon="9.616988358920214"><ele>66.0</ele><time>2026-04-07T09:29:51.018Z</time></trkpt><trkpt lat="45.031553543234466" lon="9.616843027376868"><ele>66.0</ele><time>2026-04-07T09:29:53.018Z</time></trkpt><trkpt lat="45.031555836123054" lon="9.616699717582009"><ele>66.0</ele><time>2026-04-07T09:29:55.018Z</time></trkpt><trkpt lat="45.03155063615516" lon="9.616546407278564"><ele>66.0</ele><time>2026-04-07T09:29:57.018Z</time></trkpt><trkpt lat="45.031555940542184" lon="9.616389478761953"><ele>66.0</ele><time>2026-04-07T09:29:59.018Z</time></trkpt><trkpt lat="45.03155350878685" lon="9.616228564411973"><ele>66.0</ele><time>2026-04-07T09:30:01.018Z</time></trkpt><trkpt lat="45.03155041087237" lon="9.61606822544502"><ele>66.0</ele><time>2026-04-07T09:30:03.018Z</time></trkpt><trkpt lat="45.03155427491473" lon="9.6159033266574"><ele>66.0</ele><time>2026-04-07T09:30:05.018Z</time></trkpt><trkpt lat="45.03154967043135" lon="9.615737584675992"><ele>66.0</ele><time>2026-04-07T09:30:07.018Z</time></trkpt><trkpt lat="45.03154474064005" lon="9.615577221574034"><ele>66.0</ele><time>2026-04-07T09:30:09.018Z</time></trkpt><trkpt lat="45.0315406401173" lon="9.615421408448489"><ele>66.0</ele><time>2026-04-07T09:30:11.018Z</time></trkpt><trkpt lat="45.03154724005391" lon="9.615264650252815"><ele>66.0</ele><time>2026-04-07T09:30:13.018Z</time></trkpt><trkpt lat="45.03154033934671" lon="9.61509963193869"><ele>66.0</ele><time>2026-04-07T09:30:15.018Z</time></trkpt><trkpt lat="45.03153957442548" lon="9.614937042809691"><ele>66.0</ele><time>2026-04-07T09:30:17.018Z</time></trkpt><trkpt lat="45.031535862932856" lon="9.614778490626437"><ele>66.0</ele><time>2026-04-07T09:30:19.018Z</time></trkpt><trkpt lat="45.03153786396301" lon="9.614613077412079"><ele>66.0</ele><time>2026-04-07T09:30:21.018Z</time></trkpt><trkpt lat="45.031531131300724" lon="9.61445186697583"><ele>66.25</ele><time>2026-04-07T09:30:23.018Z</time></trkpt><trkpt lat="45.0315309937853" lon="9.61428479195317"><ele>66.5</ele><time>2026-04-07T09:30:25.018Z</time></trkpt><trkpt lat="45.031532252561966" lon="9.614124858274742"><ele>66.75</ele><time>2026-04-07T09:30:27.018Z</time></trkpt><trkpt lat="45.03153109813436" lon="9.613965100018321"><ele>67.0</ele><time>2026-04-07T09:30:29.018Z</time></trkpt><trkpt lat="45.03152943490163" lon="9.613808297301864"><ele>67.0</ele><time>2026-04-07T09:30:31.018Z</time></trkpt><trkpt lat="45.03153087440442" lon="9.6136413070447"><ele>67.0</ele><time>2026-04-07T09:30:33.018Z</time></trkpt><trkpt lat="45.031532288194796" lon="9.613488632541774"><ele>67.0</ele><time>2026-04-07T09:30:35.018Z</time></trkpt><trkpt lat="45.03152468036387" lon="9.613323373377026"><ele>67.0</ele><time>2026-04-07T09:30:37.018Z</time></trkpt><trkpt lat="45.031525740754624" lon="9.613150487683003"><ele>67.0</ele><time>2026-04-07T09:30:39.018Z</time></trkpt><trkpt lat="45.03153452837326" lon="9.612987942640373"><ele>67.0</ele><time>2026-04-07T09:30:41.018Z</time></trkpt><trkpt lat="45.031530101665325" lon="9.612821774638915"><ele>67.0</ele><time>2026-04-07T09:30:43.018Z</time></trkpt><trkpt lat="45.03153229437704" lon="9.61265465264588"><ele>67.0</ele><time>2026-04-07T09:30:45.018Z</time></trkpt><trkpt lat="45.03152854094071" lon="9.612485405181854"><ele>67.0</ele><time>2026-04-07T09:30:47.018Z</time></trkpt><trkpt lat="45.031534007148764" lon="9.612322274156824"><ele>67.0</ele><time>2026-04-07T09:30:49.018Z</time></trkpt><trkpt lat="45.03153181721234" lon="9.612155567585315"><ele>67.0</ele><time>2026-04-07T09:30:51.018Z</time></trkpt><trkpt lat="45.03153649332317" lon="9.611990453452679"><ele>67.0</ele><time>2026-04-07T09:30:53.018Z</time></trkpt><trkpt lat="45.0315356959563" lon="9.61182809772902"><ele>66.75</ele><time>2026-04-07T09:30:55.018Z</time></trkpt><trkpt lat="45.031539803282556" lon="9.611655518979651"><ele>66.5</ele><time>2026-04-07T09:30:57.018Z</time></trkpt><trkpt lat="45.03153835675518" lon="9.61148919327925"><ele>66.25</ele><time>2026-04-07T09:30:59.018Z</time></trkpt><trkpt lat="45.03154248080001" lon="9.611319122597745"><ele>66.0</ele><time>2026-04-07T09:31:01.018Z</time></trkpt><trkpt lat="45.031538966155374" lon="9.611159115783906"><ele>65.75</ele><time>2026-04-07T09:31:03.018Z</time></trkpt><trkpt lat="45.03154203839859" lon="9.610997358679173"><ele>65.5</ele><time>2026-04-07T09:31:05.018Z</time></trkpt><trkpt lat="45.031545858804215" lon="9.610834676702785"><ele>65.25</ele><time>2026-04-07T09:31:07.018Z</time></trkpt><trkpt lat="45.03154726441525" lon="9.61067039182161"><ele>65.0</ele><time>2026-04-07T09:31:09.018Z</time></trkpt><trkpt lat="45.03154762809071" lon="9.610509252683624"><ele>65.0</ele><time>2026-04-07T09:31:11.018Z</time></trkpt><trkpt lat="45.03155001765266" lon="9.610347770247055"><ele>65.0</ele><time>2026-04-07T09:31:13.018Z</time></trkpt><trkpt lat="45.031552564894554" lon="9.610191011005755"><ele>65.0</ele><time>2026-04-07T09:31:15.018Z</time></trkpt><trkpt lat="45.03155358484724" lon="9.610028963353566"><ele>65.0</ele><time>2026-04-07T09:31:17.018Z</time></trkpt><trkpt lat="45.03155596886132" lon="9.609864334658853"><ele>65.25</ele><time>2026-04-07T09:31:19.018Z</time></trkpt><trkpt lat="45.031553717276346" lon="9.609711803623467"><ele>65.5</ele><time>2026-04-07T09:31:21.018Z</time></trkpt><trkpt lat="45.03155617179402" lon="9.609546808584069"><ele>65.75</ele><time>2026-04-07T09:31:23.018Z</time></trkpt><trkpt lat="45.031553642946015" lon="9.609385443588456"><ele>66.0</ele><time>2026-04-07T09:31:25.018Z</time></trkpt><trkpt lat="45.03154362663582" lon="9.609223201253325"><ele>66.2</ele><time>2026-04-07T09:31:27.018Z</time></trkpt><trkpt lat="45.031520321247775" lon="9.609069187271926"><ele>66.39999999999999</ele><time>2026-04-07T09:31:29.018Z</time></trkpt><trkpt lat="45.031506067302935" lon="9.6089090117428"><ele>66.6</ele><time>2026-04-07T09:31:31.018Z</time></trkpt><trkpt lat="45.03149009875539" lon="9.608755068333721"><ele>66.8</ele><time>2026-04-07T09:31:33.018Z</time></trkpt><trkpt lat="45.03148774683105" lon="9.608599089765745"><ele>67.0</ele><time>2026-04-07T09:31:35.018Z</time></trkpt><trkpt lat="45.031490560260835" lon="9.608440069354781"><ele>67.0</ele><time>2026-04-07T09:31:37.018Z</time></trkpt><trkpt lat="45.031492245043104" lon="9.608282703100063"><ele>67.0</ele><time>2026-04-07T09:31:39.018Z</time></trkpt><trkpt lat="45.03149084822839" lon="9.608126457350602"><ele>67.0</ele><time>2026-04-07T09:31:41.018Z</time></trkpt><trkpt lat="45.0314931848432" lon="9.607966687780785"><ele>67.0</ele><time>2026-04-07T09:31:43.018Z</time></trkpt><trkpt lat="45.031491966939996" lon="9.607805094550555"><ele>67.0</ele><time>2026-04-07T09:31:45.019Z</time></trkpt><trkpt lat="45.03149375686866" lon="9.607642847643833"><ele>67.0</ele><time>2026-04-07T09:31:47.019Z</time></trkpt><trkpt lat="45.031497510057" lon="9.607485366597112"><ele>67.0</ele><time>2026-04-07T09:31:49.019Z</time></trkpt><trkpt lat="45.03149658352774" lon="9.607331627185212"><ele>67.0</ele><time>2026-04-07T09:31:51.019Z</time></trkpt><trkpt lat="45.03149658848414" lon="9.60717473757921"><ele>67.0</ele><time>2026-04-07T09:31:53.019Z</time></trkpt><trkpt lat="45.031495840943236" lon="9.607024884035578"><ele>67.0</ele><time>2026-04-07T09:31:55.018Z</time></trkpt><trkpt lat="45.0314978589718" lon="9.60687500649232"><ele>66.8</ele><time>2026-04-07T09:31:57.019Z</time></trkpt><trkpt lat="45.0314946860732" lon="9.606729631095394"><ele>66.6</ele><time>2026-04-07T09:31:59.019Z</time></trkpt><trkpt lat="45.031495900268965" lon="9.606584701072613"><ele>66.39999999999999</ele><time>2026-04-07T09:32:01.019Z</time></trkpt><trkpt lat="45.03149494023817" lon="9.606442279098166"><ele>66.2</ele><time>2026-04-07T09:32:03.018Z</time></trkpt><trkpt lat="45.0314933851779" lon="9.606299056203865"><ele>66.0</ele><time>2026-04-07T09:32:05.018Z</time></trkpt><trkpt lat="45.03149322427664" lon="9.60615478597125"><ele>66.39999999999999</ele><time>2026-04-07T09:32:07.019Z</time></trkpt><trkpt lat="45.031488070698984" lon="9.606006712338182"><ele>66.8</ele><time>2026-04-07T09:32:09.019Z</time></trkpt><trkpt lat="45.03148842733254" lon="9.605863828676624"><ele>67.19999999999999</ele><time>2026-04-07T09:32:11.019Z</time></trkpt><trkpt lat="45.031487577049816" lon="9.605715189583613"><ele>67.6</ele><time>2026-04-07T09:32:13.019Z</time></trkpt><trkpt lat="45.03148735087797" lon="9.605568148478707"><ele>68.0</ele><time>2026-04-07T09:32:15.019Z</time></trkpt><trkpt lat="45.031483558003295" lon="9.605427098726446"><ele>67.8</ele><time>2026-04-07T09:32:17.019Z</time></trkpt><trkpt lat="45.03148080493313" lon="9.605287041286669"><ele>67.6</ele><time>2026-04-07T09:32:19.019Z</time></trkpt><trkpt lat="45.03147807747982" lon="9.60515183161361"><ele>67.4</ele><time>2026-04-07T09:32:21.019Z</time></trkpt><trkpt lat="45.03147220522621" lon="9.605025436543132"><ele>67.2</ele><time>2026-04-07T09:32:23.019Z</time></trkpt><trkpt lat="45.03145515394463" lon="9.60490467406851"><ele>67.0</ele><time>2026-04-07T09:32:25.019Z</time></trkpt><trkpt lat="45.03140261665849" lon="9.604809255926636"><ele>67.0</ele><time>2026-04-07T09:32:27.019Z</time></trkpt><trkpt lat="45.031390975303474" lon="9.604711590687302"><ele>67.0</ele><time>2026-04-07T09:32:29.019Z</time></trkpt><trkpt lat="45.03137499169589" lon="9.604606147799009"><ele>67.0</ele><time>2026-04-07T09:32:31.019Z</time></trkpt><trkpt lat="45.03136764015899" lon="9.604494302962912"><ele>67.0</ele><time>2026-04-07T09:32:33.019Z</time></trkpt><trkpt lat="45.03138646781011" lon="9.604352285492348"><ele>67.0</ele><time>2026-04-07T09:32:35.019Z</time></trkpt><trkpt lat="45.03140136489735" lon="9.604221465529617"><ele>67.0</ele><time>2026-04-07T09:32:37.019Z</time></trkpt><trkpt lat="45.03140364348325" lon="9.604087900531278"><ele>67.0</ele><time>2026-04-07T09:32:39.019Z</time></trkpt><trkpt lat="45.03139500762633" lon="9.6039286641489"><ele>67.0</ele><time>2026-04-07T09:32:41.019Z</time></trkpt><trkpt lat="45.03140205630583" lon="9.603776015754569"><ele>67.0</ele><time>2026-04-07T09:32:43.019Z</time></trkpt><trkpt lat="45.03139315261402" lon="9.603682588875339"><ele>67.0</ele><time>2026-04-07T09:32:44.019Z</time></trkpt><trkpt lat="45.03138565795358" lon="9.603498874412997"><ele>67.0</ele><time>2026-04-07T09:32:46.019Z</time></trkpt><trkpt lat="45.03137931081554" lon="9.60340668166661"><ele>66.83333333333333</ele><time>2026-04-07T09:32:47.019Z</time></trkpt><trkpt lat="45.03137118377049" lon="9.603310007344952"><ele>66.66666666666666</ele><time>2026-04-07T09:32:48.019Z</time></trkpt><trkpt lat="45.03136697267213" lon="9.603219882648782"><ele>66.5</ele><time>2026-04-07T09:32:49.019Z</time></trkpt><trkpt lat="45.0313654364176" lon="9.603030916526718"><ele>66.33333333333333</ele><time>2026-04-07T09:32:51.019Z</time></trkpt><trkpt lat="45.0313777355188" lon="9.602935106373454"><ele>66.16666666666667</ele><time>2026-04-07T09:32:52.019Z</time></trkpt><trkpt lat="45.03137778240194" lon="9.602841308373812"><ele>66.0</ele><time>2026-04-07T09:32:53.019Z</time></trkpt><trkpt lat="45.03136995334769" lon="9.602740512867818"><ele>66.0</ele><time>2026-04-07T09:32:54.019Z</time></trkpt><trkpt lat="45.03136518789556" lon="9.602636291219667"><ele>66.0</ele><time>2026-04-07T09:32:55.019Z</time></trkpt><trkpt lat="45.031359842756956" lon="9.602461213695713"><ele>66.0</ele><time>2026-04-07T09:32:57.019Z</time></trkpt><trkpt lat="45.03135998963951" lon="9.602356099866732"><ele>66.0</ele><time>2026-04-07T09:32:58.019Z</time></trkpt><trkpt lat="45.031356202416696" lon="9.602248407252048"><ele>66.0</ele><time>2026-04-07T09:32:59.019Z</time></trkpt><trkpt lat="45.031355234709324" lon="9.602158643163882"><ele>66.0</ele><time>2026-04-07T09:33:00.019Z</time></trkpt><trkpt lat="45.03135746493505" lon="9.602059582186277"><ele>65.83333333333333</ele><time>2026-04-07T09:33:01.019Z</time></trkpt><trkpt lat="45.031362305101794" lon="9.60196271649207"><ele>65.66666666666667</ele><time>2026-04-07T09:33:02.019Z</time></trkpt><trkpt lat="45.03136700642602" lon="9.601859235187991"><ele>65.5</ele><time>2026-04-07T09:33:03.019Z</time></trkpt><trkpt lat="45.03135729899295" lon="9.601759917017405"><ele>65.33333333333334</ele><time>2026-04-07T09:33:04.019Z</time></trkpt><trkpt lat="45.031366015006405" lon="9.601577381700716"><ele>65.16666666666667</ele><time>2026-04-07T09:33:06.019Z</time></trkpt><trkpt lat="45.03135028337798" lon="9.601474588364857"><ele>65.0</ele><time>2026-04-07T09:33:07.019Z</time></trkpt><trkpt lat="45.03135284235899" lon="9.601376057624616"><ele>65.00000000000001</ele><time>2026-04-07T09:33:08.019Z</time></trkpt><trkpt lat="45.03135672798929" lon="9.601276908923683"><ele>65.0</ele><time>2026-04-07T09:33:09.019Z</time></trkpt><trkpt lat="45.03135975560464" lon="9.601183661850847"><ele>65.0</ele><time>2026-04-07T09:33:10.019Z</time></trkpt><trkpt lat="45.03135819304473" lon="9.601089579269082"><ele>65.0</ele><time>2026-04-07T09:33:11.019Z</time></trkpt><trkpt lat="45.031353144505644" lon="9.60098538749162"><ele>65.0</ele><time>2026-04-07T09:33:12.019Z</time></trkpt><trkpt lat="45.03135365893555" lon="9.600885009105232"><ele>65.00000000000001</ele><time>2026-04-07T09:33:13.019Z</time></trkpt><trkpt lat="45.03135337828325" lon="9.600777876568777"><ele>65.0</ele><time>2026-04-07T09:33:14.019Z</time></trkpt><trkpt lat="45.03135137975696" lon="9.600676805712457"><ele>65.00000000000001</ele><time>2026-04-07T09:33:15.019Z</time></trkpt><trkpt lat="45.03136106506293" lon="9.600582805601983"><ele>65.0</ele><time>2026-04-07T09:33:16.019Z</time></trkpt><trkpt lat="45.03136430200507" lon="9.600483425373259"><ele>65.0</ele><time>2026-04-07T09:33:17.019Z</time></trkpt><trkpt lat="45.031359152038334" lon="9.600380193278497"><ele>65.0</ele><time>2026-04-07T09:33:18.019Z</time></trkpt><trkpt lat="45.03135677594798" lon="9.600271913935828"><ele>65.0</ele><time>2026-04-07T09:33:19.019Z</time></trkpt><trkpt lat="45.03135611479017" lon="9.600172352287212"><ele>65.00000000000001</ele><time>2026-04-07T09:33:20.019Z</time></trkpt><trkpt lat="45.03135941928126" lon="9.600077296225491"><ele>65.0</ele><time>2026-04-07T09:33:21.019Z</time></trkpt><trkpt lat="45.03135296289313" lon="9.599973939497941"><ele>64.85714285714286</ele><time>2026-04-07T09:33:22.019Z</time></trkpt><trkpt lat="45.03134747534984" lon="9.599875857023807"><ele>64.71428571428572</ele><time>2026-04-07T09:33:23.019Z</time></trkpt><trkpt lat="45.031345196214005" lon="9.599771157418001"><ele>64.57142857142857</ele><time>2026-04-07T09:33:24.019Z</time></trkpt><trkpt lat="45.031346206179215" lon="9.599669709465378"><ele>64.42857142857143</ele><time>2026-04-07T09:33:25.019Z</time></trkpt><trkpt lat="45.031350066991344" lon="9.599571863455969"><ele>64.28571428571428</ele><time>2026-04-07T09:33:26.019Z</time></trkpt><trkpt lat="45.03136317492453" lon="9.599473011985362"><ele>64.14285714285714</ele><time>2026-04-07T09:33:27.019Z</time></trkpt><trkpt lat="45.03136818852037" lon="9.599377787630214"><ele>64.0</ele><time>2026-04-07T09:33:28.019Z</time></trkpt><trkpt lat="45.03136381170608" lon="9.599270060435035"><ele>63.857142857142854</ele><time>2026-04-07T09:33:29.019Z</time></trkpt><trkpt lat="45.031366530311686" lon="9.59916456487921"><ele>63.71428571428571</ele><time>2026-04-07T09:33:30.019Z</time></trkpt><trkpt lat="45.03135935858552" lon="9.599068394883144"><ele>63.57142857142857</ele><time>2026-04-07T09:33:31.019Z</time></trkpt><trkpt lat="45.031352027395144" lon="9.598963803147528"><ele>63.42857142857143</ele><time>2026-04-07T09:33:32.019Z</time></trkpt><trkpt lat="45.031361521953954" lon="9.598875354867168"><ele>63.285714285714285</ele><time>2026-04-07T09:33:33.019Z</time></trkpt><trkpt lat="45.03135852121919" lon="9.598767172861114"><ele>63.14285714285714</ele><time>2026-04-07T09:33:34.019Z</time></trkpt><trkpt lat="45.03134737499773" lon="9.59865863997423"><ele>63.0</ele><time>2026-04-07T09:33:35.019Z</time></trkpt><trkpt lat="45.03135727872765" lon="9.598475668168339"><ele>62.85714285714286</ele><time>2026-04-07T09:33:37.019Z</time></trkpt><trkpt lat="45.03135999795844" lon="9.598375473608725"><ele>62.714285714285715</ele><time>2026-04-07T09:33:38.019Z</time></trkpt><trkpt lat="45.031360961092965" lon="9.598266800478097"><ele>62.57142857142857</ele><time>2026-04-07T09:33:39.019Z</time></trkpt><trkpt lat="45.031345238813415" lon="9.598166466471582"><ele>62.42857142857143</ele><time>2026-04-07T09:33:40.019Z</time></trkpt><trkpt lat="45.031341700545894" lon="9.598067785881295"><ele>62.28571428571429</ele><time>2026-04-07T09:33:41.019Z</time></trkpt><trkpt lat="45.03133660693713" lon="9.597964588103439"><ele>62.142857142857146</ele><time>2026-04-07T09:33:42.019Z</time></trkpt><trkpt lat="45.03133846891439" lon="9.597869190252908"><ele>62.0</ele><time>2026-04-07T09:33:43.019Z</time></trkpt><trkpt lat="45.03134481057494" lon="9.597773801037555"><ele>62.00000000000001</ele><time>2026-04-07T09:33:44.019Z</time></trkpt><trkpt lat="45.031346548157224" lon="9.597671922980958"><ele>62.0</ele><time>2026-04-07T09:33:45.019Z</time></trkpt><trkpt lat="45.03134359610208" lon="9.597568833499365"><ele>62.0</ele><time>2026-04-07T09:33:46.019Z</time></trkpt><trkpt lat="45.03136048355771" lon="9.597471479975667"><ele>62.0</ele><time>2026-04-07T09:33:47.019Z</time></trkpt><trkpt lat="45.03137040107422" lon="9.597379712422489"><ele>62.00000000000001</ele><time>2026-04-07T09:33:48.019Z</time></trkpt><trkpt lat="45.03137380999453" lon="9.597288540478695"><ele>62.0</ele><time>2026-04-07T09:33:49.019Z</time></trkpt><trkpt lat="45.03138305631495" lon="9.597106855232857"><ele>62.0</ele><time>2026-04-07T09:33:51.019Z</time></trkpt><trkpt lat="45.031389730631076" lon="9.5970174860499"><ele>62.0</ele><time>2026-04-07T09:33:52.019Z</time></trkpt><trkpt lat="45.03138825324607" lon="9.596862133282297"><ele>62.0</ele><time>2026-04-07T09:33:54.019Z</time></trkpt><trkpt lat="45.031380841117574" lon="9.596713069527537"><ele>62.0</ele><time>2026-04-07T09:33:56.019Z</time></trkpt><trkpt lat="45.0313879134848" lon="9.596563786246945"><ele>62.0</ele><time>2026-04-07T09:33:58.019Z</time></trkpt><trkpt lat="45.03141687427799" lon="9.596435849370708"><ele>62.6</ele><time>2026-04-07T09:34:00.019Z</time></trkpt><trkpt lat="45.031476438920464" lon="9.596333600351079"><ele>63.2</ele><time>2026-04-07T09:34:02.019Z</time></trkpt><trkpt lat="45.031447331972565" lon="9.596182754183754"><ele>63.8</ele><time>2026-04-07T09:34:04.019Z</time></trkpt><trkpt lat="45.03144141099496" lon="9.596055229406145"><ele>64.4</ele><time>2026-04-07T09:34:06.019Z</time></trkpt><trkpt lat="45.03149092250931" lon="9.595958985209796"><ele>65.0</ele><time>2026-04-07T09:34:08.019Z</time></trkpt><trkpt lat="45.03156434810117" lon="9.596007779218446"><ele>65.0</ele><time>2026-04-07T09:34:10.018Z</time></trkpt><trkpt lat="45.03157871507035" lon="9.596126280321823"><ele>65.0</ele><time>2026-04-07T09:34:12.019Z</time></trkpt><trkpt lat="45.03160624689311" lon="9.596249000113339"><ele>65.0</ele><time>2026-04-07T09:34:14.02Z</time></trkpt><trkpt lat="45.0316367486476" lon="9.596389686138696"><ele>65.0</ele><time>2026-04-07T09:34:16.02Z</time></trkpt><trkpt lat="45.03166585817472" lon="9.59653849212005"><ele>65.0</ele><time>2026-04-07T09:34:18.02Z</time></trkpt><trkpt lat="45.03168204272982" lon="9.596624800022024"><ele>65.14285714285715</ele><time>2026-04-07T09:34:19.02Z</time></trkpt><trkpt lat="45.0316967295316" lon="9.596717355852867"><ele>65.28571428571429</ele><time>2026-04-07T09:34:20.02Z</time></trkpt><trkpt lat="45.03171811121118" lon="9.596809043850275"><ele>65.42857142857143</ele><time>2026-04-07T09:34:21.02Z</time></trkpt><trkpt lat="45.03173974914988" lon="9.596905122988343"><ele>65.57142857142858</ele><time>2026-04-07T09:34:22.02Z</time></trkpt><trkpt lat="45.031764171401335" lon="9.59699797301397"><ele>65.71428571428572</ele><time>2026-04-07T09:34:23.02Z</time></trkpt><trkpt lat="45.03178145557553" lon="9.597095776880801"><ele>65.85714285714286</ele><time>2026-04-07T09:34:24.02Z</time></trkpt><trkpt lat="45.03179819961533" lon="9.597183946793638"><ele>66.0</ele><time>2026-04-07T09:34:25.02Z</time></trkpt><trkpt lat="45.03183002242381" lon="9.597333048160449"><ele>65.6</ele><time>2026-04-07T09:34:27.02Z</time></trkpt><trkpt lat="45.03189556227095" lon="9.597473312393737"><ele>65.19999999999999</ele><time>2026-04-07T09:34:29.02Z</time></trkpt><trkpt lat="45.03199343520036" lon="9.597546386398035"><ele>64.80000000000001</ele><time>2026-04-07T09:34:31.02Z</time></trkpt><trkpt lat="45.032080764339504" lon="9.59759743589213"><ele>64.4</ele><time>2026-04-07T09:34:33.02Z</time></trkpt><trkpt lat="45.03215799120278" lon="9.597652016006803"><ele>64.0</ele><time>2026-04-07T09:34:35.02Z</time></trkpt><trkpt lat="45.03222871325509" lon="9.597714512608839"><ele>64.0</ele><time>2026-04-07T09:34:37.02Z</time></trkpt><trkpt lat="45.03231487411215" lon="9.597769872940132"><ele>64.0</ele><time>2026-04-07T09:34:39.02Z</time></trkpt><trkpt lat="45.03240316805105" lon="9.597821233943558"><ele>64.0</ele><time>2026-04-07T09:34:41.02Z</time></trkpt><trkpt lat="45.0324835273264" lon="9.597882167951408"><ele>64.0</ele><time>2026-04-07T09:34:43.02Z</time></trkpt><trkpt lat="45.03257756300479" lon="9.597942304511506"><ele>64.0</ele><time>2026-04-07T09:34:45.02Z</time></trkpt><trkpt lat="45.032658996002404" lon="9.59799771660564"><ele>64.2</ele><time>2026-04-07T09:34:47.02Z</time></trkpt><trkpt lat="45.03273972806441" lon="9.598040131852612"><ele>64.4</ele><time>2026-04-07T09:34:49.02Z</time></trkpt><trkpt lat="45.03281244424256" lon="9.598075794571262"><ele>64.6</ele><time>2026-04-07T09:34:51.02Z</time></trkpt><trkpt lat="45.03289124626872" lon="9.598126486516403"><ele>64.8</ele><time>2026-04-07T09:34:53.02Z</time></trkpt><trkpt lat="45.032985580497666" lon="9.598180353703398"><ele>65.0</ele><time>2026-04-07T09:34:55.02Z</time></trkpt><trkpt lat="45.03308002895061" lon="9.598237189806158"><ele>65.0</ele><time>2026-04-07T09:34:57.02Z</time></trkpt><trkpt lat="45.03316874355489" lon="9.59829769864231"><ele>65.0</ele><time>2026-04-07T09:34:59.02Z</time></trkpt><trkpt lat="45.03325442452894" lon="9.598347392757761"><ele>65.0</ele><time>2026-04-07T09:35:01.02Z</time></trkpt><trkpt lat="45.03334380019705" lon="9.598405641890952"><ele>65.0</ele><time>2026-04-07T09:35:03.02Z</time></trkpt><trkpt lat="45.0334226148776" lon="9.598440656065172"><ele>65.0</ele><time>2026-04-07T09:35:05.02Z</time></trkpt><trkpt lat="45.03349491644526" lon="9.598451803548416"><ele>65.0</ele><time>2026-04-07T09:35:07.02Z</time></trkpt><trkpt lat="45.033516893373815" lon="9.598334659477871"><ele>65.33333333333334</ele><time>2026-04-07T09:35:09.02Z</time></trkpt><trkpt lat="45.03352130314266" lon="9.598224001139666"><ele>65.66666666666667</ele><time>2026-04-07T09:35:11.02Z</time></trkpt><trkpt lat="45.03354272382194" lon="9.598090222387867"><ele>66.0</ele><time>2026-04-07T09:35:14.02Z</time></trkpt><trkpt lat="45.0335548363668" lon="9.597998911284032"><ele>66.33333333333333</ele><time>2026-04-07T09:35:16.02Z</time></trkpt><trkpt lat="45.03357217784783" lon="9.597905847196504"><ele>66.66666666666666</ele><time>2026-04-07T09:35:18.02Z</time></trkpt><trkpt lat="45.033588688157934" lon="9.597797380588137"><ele>67.0</ele><time>2026-04-07T09:35:20.02Z</time></trkpt><trkpt lat="45.03360491022741" lon="9.597676492152312"><ele>67.0</ele><time>2026-04-07T09:35:22.02Z</time></trkpt><trkpt lat="45.03361795615648" lon="9.597542617826367"><ele>67.0</ele><time>2026-04-07T09:35:24.02Z</time></trkpt><trkpt lat="45.03363177421288" lon="9.597416423125154"><ele>67.0</ele><time>2026-04-07T09:35:26.02Z</time></trkpt><trkpt lat="45.033643498551896" lon="9.59728963651488"><ele>67.0</ele><time>2026-04-07T09:35:28.02Z</time></trkpt><trkpt lat="45.0336533219289" lon="9.597169725894387"><ele>67.0</ele><time>2026-04-07T09:35:30.02Z</time></trkpt><trkpt lat="45.03365495930546" lon="9.597041129886762"><ele>67.2</ele><time>2026-04-07T09:35:32.02Z</time></trkpt><trkpt lat="45.0336780253494" lon="9.59690408660044"><ele>67.4</ele><time>2026-04-07T09:35:34.02Z</time></trkpt><trkpt lat="45.03369017073937" lon="9.596755884591573"><ele>67.6</ele><time>2026-04-07T09:35:36.02Z</time></trkpt><trkpt lat="45.033700005284636" lon="9.596613640586424"><ele>67.8</ele><time>2026-04-07T09:35:38.02Z</time></trkpt><trkpt lat="45.033716322937174" lon="9.596472633484508"><ele>68.0</ele><time>2026-04-07T09:35:40.02Z</time></trkpt><trkpt lat="45.03373569644004" lon="9.596344615151857"><ele>68.0</ele><time>2026-04-07T09:35:42.02Z</time></trkpt><trkpt lat="45.033745073630804" lon="9.596210291129854"><ele>68.0</ele><time>2026-04-07T09:35:44.02Z</time></trkpt><trkpt lat="45.03375904035153" lon="9.596079359196697"><ele>68.0</ele><time>2026-04-07T09:35:46.02Z</time></trkpt><trkpt lat="45.03381744442488" lon="9.59598495752889"><ele>68.0</ele><time>2026-04-07T09:35:48.02Z</time></trkpt><trkpt lat="45.033931619709485" lon="9.59598090912744"><ele>68.0</ele><time>2026-04-07T09:35:50.02Z</time></trkpt><trkpt lat="45.034033673268894" lon="9.59600487434733"><ele>68.2</ele><time>2026-04-07T09:35:52.02Z</time></trkpt><trkpt lat="45.03413619527574" lon="9.596020139574655"><ele>68.4</ele><time>2026-04-07T09:35:54.02Z</time></trkpt><trkpt lat="45.03423168225165" lon="9.59604296299077"><ele>68.60000000000001</ele><time>2026-04-07T09:35:56.02Z</time></trkpt><trkpt lat="45.034332746659075" lon="9.596067382623634"><ele>68.8</ele><time>2026-04-07T09:35:58.02Z</time></trkpt><trkpt lat="45.034427362435785" lon="9.596086171437813"><ele>69.0</ele><time>2026-04-07T09:36:00.02Z</time></trkpt><trkpt lat="45.03452851825232" lon="9.596111605277239"><ele>68.60000000000001</ele><time>2026-04-07T09:36:02.02Z</time></trkpt><trkpt lat="45.034622124948044" lon="9.596131327020379"><ele>68.2</ele><time>2026-04-07T09:36:04.02Z</time></trkpt><trkpt lat="45.034718695894" lon="9.59615949178773"><ele>67.80000000000001</ele><time>2026-04-07T09:36:06.019Z</time></trkpt><trkpt lat="45.03481699979777" lon="9.596173706936307"><ele>67.4</ele><time>2026-04-07T09:36:08.019Z</time></trkpt><trkpt lat="45.03491393825528" lon="9.596200954178348"><ele>67.0</ele><time>2026-04-07T09:36:10.018Z</time></trkpt><trkpt lat="45.035008507957116" lon="9.596219577192066"><ele>67.0</ele><time>2026-04-07T09:36:12.018Z</time></trkpt><trkpt lat="45.035108412473576" lon="9.596239635497918"><ele>67.0</ele><time>2026-04-07T09:36:14.017Z</time></trkpt><trkpt lat="45.03520022714615" lon="9.596261957950079"><ele>67.0</ele><time>2026-04-07T09:36:16.018Z</time></trkpt><trkpt lat="45.035294920151365" lon="9.596279544467846"><ele>67.0</ele><time>2026-04-07T09:36:18.017Z</time></trkpt><trkpt lat="45.035388451262385" lon="9.596304815410688"><ele>67.0</ele><time>2026-04-07T09:36:20.017Z</time></trkpt><trkpt lat="45.03548607438579" lon="9.59632270420141"><ele>67.0</ele><time>2026-04-07T09:36:22.017Z</time></trkpt><trkpt lat="45.035580328931445" lon="9.596341662391914"><ele>67.0</ele><time>2026-04-07T09:36:24.017Z</time></trkpt><trkpt lat="45.03567020053963" lon="9.596360357539547"><ele>67.0</ele><time>2026-04-07T09:36:26.016Z</time></trkpt><trkpt lat="45.03576710588859" lon="9.596393636582405"><ele>67.0</ele><time>2026-04-07T09:36:28.016Z</time></trkpt><trkpt lat="45.035858105923744" lon="9.596428576299411"><ele>67.0</ele><time>2026-04-07T09:36:30.016Z</time></trkpt><trkpt lat="45.03594732419953" lon="9.596500092545416"><ele>67.2</ele><time>2026-04-07T09:36:32.016Z</time></trkpt><trkpt lat="45.0360279501203" lon="9.59657821513889"><ele>67.4</ele><time>2026-04-07T09:36:34.016Z</time></trkpt><trkpt lat="45.03611836003247" lon="9.596633543275676"><ele>67.6</ele><time>2026-04-07T09:36:36.016Z</time></trkpt><trkpt lat="45.03620146995897" lon="9.596712337207812"><ele>67.8</ele><time>2026-04-07T09:36:38.016Z</time></trkpt><trkpt lat="45.03628402165797" lon="9.596787353602465"><ele>68.0</ele><time>2026-04-07T09:36:40.016Z</time></trkpt><trkpt lat="45.03636740620175" lon="9.596852007418274"><ele>68.0</ele><time>2026-04-07T09:36:42.016Z</time></trkpt><trkpt lat="45.03644498637344" lon="9.596924637811412"><ele>68.0</ele><time>2026-04-07T09:36:44.016Z</time></trkpt><trkpt lat="45.0365314709951" lon="9.597007560982659"><ele>68.0</ele><time>2026-04-07T09:36:46.016Z</time></trkpt><trkpt lat="45.036624090737476" lon="9.597062401056593"><ele>68.0</ele><time>2026-04-07T09:36:48.016Z</time></trkpt><trkpt lat="45.0367225509319" lon="9.597104910046776"><ele>68.0</ele><time>2026-04-07T09:36:50.016Z</time></trkpt><trkpt lat="45.03682497330048" lon="9.597092815330038"><ele>67.6</ele><time>2026-04-07T09:36:52.016Z</time></trkpt><trkpt lat="45.03691691225883" lon="9.59708448986601"><ele>67.19999999999999</ele><time>2026-04-07T09:36:54.016Z</time></trkpt><trkpt lat="45.037016642454525" lon="9.59706536349967"><ele>66.8</ele><time>2026-04-07T09:36:56.016Z</time></trkpt><trkpt lat="45.0371140211746" lon="9.597054412385429"><ele>66.39999999999999</ele><time>2026-04-07T09:36:58.016Z</time></trkpt><trkpt lat="45.03721487737908" lon="9.597053022231988"><ele>66.0</ele><time>2026-04-07T09:37:00.016Z</time></trkpt><trkpt lat="45.037316108212174" lon="9.59705613505065"><ele>66.0</ele><time>2026-04-07T09:37:02.016Z</time></trkpt><trkpt lat="45.03741899765049" lon="9.597048511176927"><ele>66.0</ele><time>2026-04-07T09:37:04.016Z</time></trkpt><trkpt lat="45.037518823439775" lon="9.597042193316584"><ele>66.0</ele><time>2026-04-07T09:37:06.015Z</time></trkpt><trkpt lat="45.03762287861662" lon="9.597034999160792"><ele>66.0</ele><time>2026-04-07T09:37:08.015Z</time></trkpt><trkpt lat="45.03772317133962" lon="9.59704022427614"><ele>66.0</ele><time>2026-04-07T09:37:10.015Z</time></trkpt><trkpt lat="45.037824122640295" lon="9.597033016423152"><ele>66.0</ele><time>2026-04-07T09:37:12.015Z</time></trkpt><trkpt lat="45.03792505947142" lon="9.59702542740748"><ele>66.0</ele><time>2026-04-07T09:37:14.015Z</time></trkpt><trkpt lat="45.03802437973654" lon="9.597015577352064"><ele>66.0</ele><time>2026-04-07T09:37:16.015Z</time></trkpt><trkpt lat="45.0381236294236" lon="9.597013599210166"><ele>66.0</ele><time>2026-04-07T09:37:18.015Z</time></trkpt><trkpt lat="45.038223963194405" lon="9.597006625423228"><ele>66.0</ele><time>2026-04-07T09:37:20.015Z</time></trkpt><trkpt lat="45.038319653345276" lon="9.596997012227325"><ele>66.0</ele><time>2026-04-07T09:37:22.015Z</time></trkpt><trkpt lat="45.03842283938303" lon="9.596982903073656"><ele>66.0</ele><time>2026-04-07T09:37:24.015Z</time></trkpt><trkpt lat="45.038503738829796" lon="9.59702566748024"><ele>66.0</ele><time>2026-04-07T09:37:26.015Z</time></trkpt><trkpt lat="45.038567034544116" lon="9.597124169466625"><ele>66.0</ele><time>2026-04-07T09:37:28.015Z</time></trkpt><trkpt lat="45.038590145050584" lon="9.597250243495305"><ele>66.0</ele><time>2026-04-07T09:37:30.015Z</time></trkpt><trkpt lat="45.03862454924022" lon="9.59738263935888"><ele>66.0</ele><time>2026-04-07T09:37:32.015Z</time></trkpt><trkpt lat="45.03865854637932" lon="9.597519720683668"><ele>66.0</ele><time>2026-04-07T09:37:34.015Z</time></trkpt><trkpt lat="45.03868096068279" lon="9.597649843380276"><ele>66.0</ele><time>2026-04-07T09:37:36.015Z</time></trkpt><trkpt lat="45.03871263220529" lon="9.597780637540229"><ele>66.0</ele><time>2026-04-07T09:37:38.015Z</time></trkpt><trkpt lat="45.03874362840843" lon="9.597915799127916"><ele>66.0</ele><time>2026-04-07T09:37:40.015Z</time></trkpt><trkpt lat="45.03877769278629" lon="9.598048716283358"><ele>66.0</ele><time>2026-04-07T09:37:42.015Z</time></trkpt><trkpt lat="45.038814587382184" lon="9.598184985259438"><ele>66.0</ele><time>2026-04-07T09:37:44.015Z</time></trkpt><trkpt lat="45.03885446979976" lon="9.5983217731586"><ele>66.0</ele><time>2026-04-07T09:37:46.015Z</time></trkpt><trkpt lat="45.03890016802386" lon="9.598457730298284"><ele>66.0</ele><time>2026-04-07T09:37:48.015Z</time></trkpt><trkpt lat="45.038941106716024" lon="9.598594976866451"><ele>66.0</ele><time>2026-04-07T09:37:50.015Z</time></trkpt><trkpt lat="45.03899123833709" lon="9.598720091941205"><ele>66.0</ele><time>2026-04-07T09:37:52.015Z</time></trkpt><trkpt lat="45.03903832626492" lon="9.598847206144097"><ele>66.0</ele><time>2026-04-07T09:37:54.015Z</time></trkpt><trkpt lat="45.03908401029413" lon="9.598980503157334"><ele>66.0</ele><time>2026-04-07T09:37:56.015Z</time></trkpt><trkpt lat="45.039137704337556" lon="9.59910295751868"><ele>66.0</ele><time>2026-04-07T09:37:58.015Z</time></trkpt><trkpt lat="45.039194922760686" lon="9.599229297125078"><ele>66.0</ele><time>2026-04-07T09:38:00.015Z</time></trkpt><trkpt lat="45.039253454941544" lon="9.599362569377016"><ele>66.0</ele><time>2026-04-07T09:38:02.015Z</time></trkpt><trkpt lat="45.03932103585464" lon="9.599491725209155"><ele>66.0</ele><time>2026-04-07T09:38:04.015Z</time></trkpt><trkpt lat="45.0393888588663" lon="9.59963261501326"><ele>66.0</ele><time>2026-04-07T09:38:06.015Z</time></trkpt><trkpt lat="45.03945338359922" lon="9.599762237583054"><ele>66.0</ele><time>2026-04-07T09:38:08.015Z</time></trkpt><trkpt lat="45.0395224393821" lon="9.599901263907196"><ele>66.0</ele><time>2026-04-07T09:38:10.015Z</time></trkpt><trkpt lat="45.03959674940937" lon="9.600033441567968"><ele>66.0</ele><time>2026-04-07T09:38:12.016Z</time></trkpt><trkpt lat="45.03967028205324" lon="9.600166818954504"><ele>66.0</ele><time>2026-04-07T09:38:14.015Z</time></trkpt><trkpt lat="45.03975194223361" lon="9.600295329144657"><ele>66.0</ele><time>2026-04-07T09:38:16.016Z</time></trkpt><trkpt lat="45.03983193537322" lon="9.600422080447604"><ele>66.0</ele><time>2026-04-07T09:38:18.016Z</time></trkpt><trkpt lat="45.03991885375963" lon="9.600552975339477"><ele>66.0</ele><time>2026-04-07T09:38:20.016Z</time></trkpt><trkpt lat="45.03999942934513" lon="9.6006930064268"><ele>66.0</ele><time>2026-04-07T09:38:22.015Z</time></trkpt><trkpt lat="45.04004003527591" lon="9.600762687045346"><ele>66.0</ele><time>2026-04-07T09:38:23.015Z</time></trkpt><trkpt lat="45.04008125712917" lon="9.600834390731274"><ele>66.0</ele><time>2026-04-07T09:38:24.016Z</time></trkpt><trkpt lat="45.04016177697123" lon="9.600972574035746"><ele>66.0</ele><time>2026-04-07T09:38:26.015Z</time></trkpt><trkpt lat="45.04020757482737" lon="9.601042125602097"><ele>66.0</ele><time>2026-04-07T09:38:27.015Z</time></trkpt><trkpt lat="45.04025549679485" lon="9.601115104834467"><ele>66.0</ele><time>2026-04-07T09:38:28.015Z</time></trkpt><trkpt lat="45.04034235195754" lon="9.601243278545574"><ele>66.0</ele><time>2026-04-07T09:38:30.015Z</time></trkpt><trkpt lat="45.040428398028304" lon="9.601380049835422"><ele>66.0</ele><time>2026-04-07T09:38:32.015Z</time></trkpt><trkpt lat="45.04046858640251" lon="9.601458949659298"><ele>66.0</ele><time>2026-04-07T09:38:33.015Z</time></trkpt><trkpt lat="45.04055359997489" lon="9.60159724219964"><ele>66.0</ele><time>2026-04-07T09:38:35.015Z</time></trkpt><trkpt lat="45.04060053045665" lon="9.601657921595827"><ele>66.0</ele><time>2026-04-07T09:38:36.015Z</time></trkpt><trkpt lat="45.04064920371407" lon="9.601722198475072"><ele>66.0</ele><time>2026-04-07T09:38:37.015Z</time></trkpt><trkpt lat="45.04073707014577" lon="9.601858160183234"><ele>66.0</ele><time>2026-04-07T09:38:39.015Z</time></trkpt><trkpt lat="45.04078263311447" lon="9.601930490394965"><ele>66.14285714285714</ele><time>2026-04-07T09:38:40.015Z</time></trkpt><trkpt lat="45.04082846285655" lon="9.602001713002323"><ele>66.28571428571429</ele><time>2026-04-07T09:38:41.015Z</time></trkpt><trkpt lat="45.04087233191858" lon="9.602077028709676"><ele>66.42857142857143</ele><time>2026-04-07T09:38:42.015Z</time></trkpt><trkpt lat="45.0409163757423" lon="9.602150073742937"><ele>66.57142857142857</ele><time>2026-04-07T09:38:43.015Z</time></trkpt><trkpt lat="45.040966431966034" lon="9.602218353630471"><ele>66.71428571428571</ele><time>2026-04-07T09:38:44.015Z</time></trkpt><trkpt lat="45.041009808273714" lon="9.60229422396839"><ele>66.85714285714286</ele><time>2026-04-07T09:38:45.015Z</time></trkpt><trkpt lat="45.04105987456632" lon="9.602371768013082"><ele>67.0</ele><time>2026-04-07T09:38:46.015Z</time></trkpt><trkpt lat="45.04111118213967" lon="9.602445147265625"><ele>67.0</ele><time>2026-04-07T09:38:47.015Z</time></trkpt><trkpt lat="45.04115721641489" lon="9.602513995923951"><ele>67.0</ele><time>2026-04-07T09:38:48.015Z</time></trkpt><trkpt lat="45.0412106090131" lon="9.602576945085406"><ele>67.0</ele><time>2026-04-07T09:38:49.015Z</time></trkpt><trkpt lat="45.04125869085902" lon="9.602647337586577"><ele>67.0</ele><time>2026-04-07T09:38:50.015Z</time></trkpt><trkpt lat="45.041300619497335" lon="9.60272105108098"><ele>67.0</ele><time>2026-04-07T09:38:51.015Z</time></trkpt><trkpt lat="45.04134673441471" lon="9.602801014674258"><ele>67.0</ele><time>2026-04-07T09:38:52.015Z</time></trkpt><trkpt lat="45.04139481126856" lon="9.602873809158618"><ele>67.0</ele><time>2026-04-07T09:38:53.015Z</time></trkpt><trkpt lat="45.04144309570865" lon="9.602950968338655"><ele>67.0</ele><time>2026-04-07T09:38:54.015Z</time></trkpt><trkpt lat="45.04148655010327" lon="9.603027687246747"><ele>67.0</ele><time>2026-04-07T09:38:55.015Z</time></trkpt><trkpt lat="45.0415352246457" lon="9.603092451163377"><ele>67.0</ele><time>2026-04-07T09:38:56.015Z</time></trkpt><trkpt lat="45.04158451386246" lon="9.603158013058422"><ele>67.0</ele><time>2026-04-07T09:38:57.015Z</time></trkpt><trkpt lat="45.04163625293289" lon="9.603232359302844"><ele>67.0</ele><time>2026-04-07T09:38:58.015Z</time></trkpt><trkpt lat="45.041685312920464" lon="9.60330186277838"><ele>67.0</ele><time>2026-04-07T09:38:59.015Z</time></trkpt><trkpt lat="45.04173379832881" lon="9.603368812280237"><ele>67.0</ele><time>2026-04-07T09:39:00.015Z</time></trkpt><trkpt lat="45.041777939219656" lon="9.603448048984951"><ele>66.85714285714286</ele><time>2026-04-07T09:39:01.015Z</time></trkpt><trkpt lat="45.041826268635766" lon="9.603519427789534"><ele>66.71428571428571</ele><time>2026-04-07T09:39:02.015Z</time></trkpt><trkpt lat="45.041878114607634" lon="9.603586375844932"><ele>66.57142857142857</ele><time>2026-04-07T09:39:03.015Z</time></trkpt><trkpt lat="45.04192220631737" lon="9.603660437999109"><ele>66.42857142857143</ele><time>2026-04-07T09:39:04.015Z</time></trkpt><trkpt lat="45.041971668931765" lon="9.603728980123602"><ele>66.28571428571429</ele><time>2026-04-07T09:39:05.015Z</time></trkpt><trkpt lat="45.042014018787995" lon="9.603801141669992"><ele>66.14285714285714</ele><time>2026-04-07T09:39:06.015Z</time></trkpt><trkpt lat="45.0420586348658" lon="9.603875589141424"><ele>66.0</ele><time>2026-04-07T09:39:07.015Z</time></trkpt><trkpt lat="45.042102068240645" lon="9.603940666857044"><ele>65.83333333333333</ele><time>2026-04-07T09:39:08.015Z</time></trkpt><trkpt lat="45.04214520595564" lon="9.60401166412235"><ele>65.66666666666667</ele><time>2026-04-07T09:39:09.015Z</time></trkpt><trkpt lat="45.04218792869288" lon="9.60408024521631"><ele>65.5</ele><time>2026-04-07T09:39:10.015Z</time></trkpt><trkpt lat="45.04223450357732" lon="9.604143158964108"><ele>65.33333333333334</ele><time>2026-04-07T09:39:11.015Z</time></trkpt><trkpt lat="45.04231690239996" lon="9.604262055573187"><ele>65.16666666666667</ele><time>2026-04-07T09:39:13.015Z</time></trkpt><trkpt lat="45.042400080324846" lon="9.604361045462557"><ele>65.0</ele><time>2026-04-07T09:39:15.015Z</time></trkpt><trkpt lat="45.04248296287787" lon="9.604470439070552"><ele>65.0</ele><time>2026-04-07T09:39:17.015Z</time></trkpt><trkpt lat="45.04256768427244" lon="9.604574218575795"><ele>65.0</ele><time>2026-04-07T09:39:19.015Z</time></trkpt><trkpt lat="45.04265383936426" lon="9.6046794508185"><ele>65.0</ele><time>2026-04-07T09:39:21.015Z</time></trkpt><trkpt lat="45.04274672262801" lon="9.604774969969462"><ele>65.0</ele><time>2026-04-07T09:39:23.015Z</time></trkpt><trkpt lat="45.04283647682054" lon="9.604885825046273"><ele>65.0</ele><time>2026-04-07T09:39:25.015Z</time></trkpt><trkpt lat="45.04296329690378" lon="9.60496991292118"><ele>65.0</ele><time>2026-04-07T09:39:27.015Z</time></trkpt><trkpt lat="45.043020521020665" lon="9.605020174912788"><ele>65.0</ele><time>2026-04-07T09:39:28.015Z</time></trkpt><trkpt lat="45.04308120031689" lon="9.605077053780885"><ele>65.0</ele><time>2026-04-07T09:39:29.015Z</time></trkpt><trkpt lat="45.043140189576924" lon="9.605127196507066"><ele>65.0</ele><time>2026-04-07T09:39:30.015Z</time></trkpt><trkpt lat="45.04319264146636" lon="9.605181123743742"><ele>65.0</ele><time>2026-04-07T09:39:31.015Z</time></trkpt><trkpt lat="45.04324905334037" lon="9.605232564957802"><ele>65.0</ele><time>2026-04-07T09:39:32.015Z</time></trkpt><trkpt lat="45.043308452758765" lon="9.60527220673195"><ele>65.0</ele><time>2026-04-07T09:39:33.015Z</time></trkpt><trkpt lat="45.04337654688578" lon="9.605294580115116"><ele>65.0</ele><time>2026-04-07T09:39:34.015Z</time></trkpt><trkpt lat="45.043441728834686" lon="9.605283883503262"><ele>65.0</ele><time>2026-04-07T09:39:35.015Z</time></trkpt><trkpt lat="45.043555222547475" lon="9.605214729775614"><ele>65.0</ele><time>2026-04-07T09:39:37.015Z</time></trkpt><trkpt lat="45.04367810224575" lon="9.605195221574117"><ele>65.0</ele><time>2026-04-07T09:39:39.015Z</time></trkpt><trkpt lat="45.04379406039617" lon="9.605212235916316"><ele>65.0</ele><time>2026-04-07T09:39:41.015Z</time></trkpt><trkpt lat="45.0439053803402" lon="9.60526568687896"><ele>65.0</ele><time>2026-04-07T09:39:43.015Z</time></trkpt><trkpt lat="45.043965737693334" lon="9.60529748820643"><ele>65.0</ele><time>2026-04-07T09:39:44.015Z</time></trkpt><trkpt lat="45.04402463787429" lon="9.605338901997321"><ele>65.0</ele><time>2026-04-07T09:39:45.015Z</time></trkpt><trkpt lat="45.04408815357655" lon="9.605376945522094"><ele>65.0</ele><time>2026-04-07T09:39:46.015Z</time></trkpt><trkpt lat="45.044194541251905" lon="9.605466214815479"><ele>65.0</ele><time>2026-04-07T09:39:48.015Z</time></trkpt><trkpt lat="45.044252650012645" lon="9.605519870517961"><ele>64.83333333333334</ele><time>2026-04-07T09:39:49.015Z</time></trkpt><trkpt lat="45.04431279612935" lon="9.605567488610578"><ele>64.66666666666667</ele><time>2026-04-07T09:39:50.015Z</time></trkpt><trkpt lat="45.04437544238477" lon="9.605606655944081"><ele>64.5</ele><time>2026-04-07T09:39:51.015Z</time></trkpt><trkpt lat="45.04444246562694" lon="9.605633914471133"><ele>64.33333333333333</ele><time>2026-04-07T09:39:52.015Z</time></trkpt><trkpt lat="45.04450670935272" lon="9.605651385845276"><ele>64.16666666666666</ele><time>2026-04-07T09:39:53.015Z</time></trkpt><trkpt lat="45.044631761813704" lon="9.605687279113223"><ele>64.0</ele><time>2026-04-07T09:39:55.015Z</time></trkpt><trkpt lat="45.04470049220114" lon="9.60569249361998"><ele>63.99999999999999</ele><time>2026-04-07T09:39:56.015Z</time></trkpt><trkpt lat="45.044763756391056" lon="9.605701217737796"><ele>64.0</ele><time>2026-04-07T09:39:57.015Z</time></trkpt><trkpt lat="45.04488562291014" lon="9.605701006317053"><ele>64.0</ele><time>2026-04-07T09:39:59.015Z</time></trkpt><trkpt lat="45.04495036148002" lon="9.60569587664021"><ele>64.0</ele><time>2026-04-07T09:40:00.015Z</time></trkpt><trkpt lat="45.045017773365245" lon="9.605677074716374"><ele>63.99999999999999</ele><time>2026-04-07T09:40:01.015Z</time></trkpt><trkpt lat="45.04508470832925" lon="9.60566117013845"><ele>64.0</ele><time>2026-04-07T09:40:02.015Z</time></trkpt><trkpt lat="45.045208741440966" lon="9.605641378539316"><ele>64.0</ele><time>2026-04-07T09:40:04.015Z</time></trkpt><trkpt lat="45.04527629211953" lon="9.605630755372825"><ele>64.0</ele><time>2026-04-07T09:40:05.015Z</time></trkpt><trkpt lat="45.04539979015436" lon="9.605612869594044"><ele>64.0</ele><time>2026-04-07T09:40:07.015Z</time></trkpt><trkpt lat="45.04546697046784" lon="9.605607129214393"><ele>64.0</ele><time>2026-04-07T09:40:08.015Z</time></trkpt><trkpt lat="45.04558652333706" lon="9.605624955135466"><ele>64.0</ele><time>2026-04-07T09:40:10.015Z</time></trkpt><trkpt lat="45.04570952147419" lon="9.605633758394283"><ele>64.4</ele><time>2026-04-07T09:40:12.015Z</time></trkpt><trkpt lat="45.045840125610255" lon="9.605645932511493"><ele>64.80000000000001</ele><time>2026-04-07T09:40:14.015Z</time></trkpt><trkpt lat="45.04595515155217" lon="9.605655142556882"><ele>65.19999999999999</ele><time>2026-04-07T09:40:16.015Z</time></trkpt><trkpt lat="45.04601910173822" lon="9.605652840727776"><ele>65.6</ele><time>2026-04-07T09:40:17.015Z</time></trkpt><trkpt lat="45.04614063711797" lon="9.60564651758558"><ele>66.0</ele><time>2026-04-07T09:40:19.016Z</time></trkpt><trkpt lat="45.04625427084197" lon="9.605674362051783"><ele>66.0</ele><time>2026-04-07T09:40:21.016Z</time></trkpt><trkpt lat="45.04636366141174" lon="9.605648516175789"><ele>66.0</ele><time>2026-04-07T09:40:23.016Z</time></trkpt><trkpt lat="45.046434413290065" lon="9.605645316192001"><ele>66.0</ele><time>2026-04-07T09:40:24.016Z</time></trkpt><trkpt lat="45.046507471255545" lon="9.605645873108594"><ele>66.0</ele><time>2026-04-07T09:40:25.016Z</time></trkpt><trkpt lat="45.046572499156674" lon="9.605652285916696"><ele>66.0</ele><time>2026-04-07T09:40:26.016Z</time></trkpt><trkpt lat="45.04664516691274" lon="9.60565215346159"><ele>66.0</ele><time>2026-04-07T09:40:27.017Z</time></trkpt><trkpt lat="45.04671198708138" lon="9.605648623550561"><ele>65.85714285714286</ele><time>2026-04-07T09:40:28.016Z</time></trkpt><trkpt lat="45.04678310568239" lon="9.60565465037103"><ele>65.71428571428572</ele><time>2026-04-07T09:40:29.016Z</time></trkpt><trkpt lat="45.046848793935105" lon="9.605649037090435"><ele>65.57142857142858</ele><time>2026-04-07T09:40:30.016Z</time></trkpt><trkpt lat="45.04692122815177" lon="9.605643275827708"><ele>65.42857142857143</ele><time>2026-04-07T09:40:31.017Z</time></trkpt><trkpt lat="45.04699311158272" lon="9.605641689342125"><ele>65.28571428571429</ele><time>2026-04-07T09:40:32.017Z</time></trkpt><trkpt lat="45.0470595734208" lon="9.605630262255119"><ele>65.14285714285715</ele><time>2026-04-07T09:40:33.017Z</time></trkpt><trkpt lat="45.04712759207334" lon="9.605621828283342"><ele>65.0</ele><time>2026-04-07T09:40:34.017Z</time></trkpt><trkpt lat="45.047200395178535" lon="9.605618299994491"><ele>65.00000000000001</ele><time>2026-04-07T09:40:35.017Z</time></trkpt><trkpt lat="45.047270957079945" lon="9.605617665602793"><ele>65.0</ele><time>2026-04-07T09:40:36.017Z</time></trkpt><trkpt lat="45.04733986067475" lon="9.60562486241467"><ele>65.0</ele><time>2026-04-07T09:40:37.017Z</time></trkpt><trkpt lat="45.04741223541123" lon="9.605622582535307"><ele>65.0</ele><time>2026-04-07T09:40:38.017Z</time></trkpt><trkpt lat="45.047482870028254" lon="9.60561933104897"><ele>65.0</ele><time>2026-04-07T09:40:39.017Z</time></trkpt><trkpt lat="45.04755039242043" lon="9.605614768508179"><ele>65.00000000000001</ele><time>2026-04-07T09:40:40.017Z</time></trkpt><trkpt lat="45.04762782086941" lon="9.605608807789572"><ele>65.0</ele><time>2026-04-07T09:40:41.017Z</time></trkpt><trkpt lat="45.04769356535322" lon="9.605605887209535"><ele>64.83333333333334</ele><time>2026-04-07T09:40:42.017Z</time></trkpt><trkpt lat="45.047767487995145" lon="9.60560351992847"><ele>64.66666666666667</ele><time>2026-04-07T09:40:43.017Z</time></trkpt><trkpt lat="45.047835410144" lon="9.605608151468202"><ele>64.5</ele><time>2026-04-07T09:40:44.017Z</time></trkpt><trkpt lat="45.0479625616413" lon="9.605617463551413"><ele>64.33333333333333</ele><time>2026-04-07T09:40:46.017Z</time></trkpt><trkpt lat="45.04803257687375" lon="9.605612925034276"><ele>64.16666666666666</ele><time>2026-04-07T09:40:47.017Z</time></trkpt><trkpt lat="45.0481084572548" lon="9.605600796098129"><ele>64.0</ele><time>2026-04-07T09:40:48.017Z</time></trkpt><trkpt lat="45.04817493250159" lon="9.605595203695362"><ele>63.99999999999999</ele><time>2026-04-07T09:40:49.017Z</time></trkpt><trkpt lat="45.04823770591222" lon="9.605582988747846"><ele>64.0</ele><time>2026-04-07T09:40:50.017Z</time></trkpt><trkpt lat="45.048302229140305" lon="9.605594322944516"><ele>64.0</ele><time>2026-04-07T09:40:51.017Z</time></trkpt><trkpt lat="45.0484080433398" lon="9.605611710826109"><ele>64.0</ele><time>2026-04-07T09:40:53.017Z</time></trkpt><trkpt lat="45.04849255411842" lon="9.605583148932737"><ele>63.99999999999999</ele><time>2026-04-07T09:40:55.017Z</time></trkpt><trkpt lat="45.04859361339034" lon="9.605585826747683"><ele>64.0</ele><time>2026-04-07T09:40:57.017Z</time></trkpt><trkpt lat="45.048655847783" lon="9.60556838890079"><ele>64.0</ele><time>2026-04-07T09:40:58.017Z</time></trkpt><trkpt lat="45.048772450540724" lon="9.605582193444548"><ele>64.0</ele><time>2026-04-07T09:41:00.017Z</time></trkpt><trkpt lat="45.048864190744396" lon="9.605525926287696"><ele>64.0</ele><time>2026-04-07T09:41:02.017Z</time></trkpt><trkpt lat="45.04896062730483" lon="9.605465854469715"><ele>64.0</ele><time>2026-04-07T09:41:04.017Z</time></trkpt><trkpt lat="45.049079102882295" lon="9.605458245201552"><ele>64.0</ele><time>2026-04-07T09:41:06.017Z</time></trkpt><trkpt lat="45.04915231510101" lon="9.605471676806827"><ele>63.99999999999999</ele><time>2026-04-07T09:41:07.017Z</time></trkpt><trkpt lat="45.0492226591174" lon="9.605492836933449"><ele>64.0</ele><time>2026-04-07T09:41:08.017Z</time></trkpt><trkpt lat="45.049299239204444" lon="9.605503864807575"><ele>64.0</ele><time>2026-04-07T09:41:09.017Z</time></trkpt><trkpt lat="45.04942261674915" lon="9.605494641378918"><ele>64.0</ele><time>2026-04-07T09:41:11.017Z</time></trkpt><trkpt lat="45.04948689062633" lon="9.605483266376083"><ele>63.99999999999999</ele><time>2026-04-07T09:41:12.017Z</time></trkpt><trkpt lat="45.04955221358602" lon="9.605475068016828"><ele>64.0</ele><time>2026-04-07T09:41:13.017Z</time></trkpt><trkpt lat="45.04962685543407" lon="9.605482477308149"><ele>63.99999999999999</ele><time>2026-04-07T09:41:14.017Z</time></trkpt><trkpt lat="45.04970155868204" lon="9.605472307536587"><ele>64.0</ele><time>2026-04-07T09:41:15.017Z</time></trkpt><trkpt lat="45.049767445659846" lon="9.605469291993018"><ele>64.0</ele><time>2026-04-07T09:41:16.017Z</time></trkpt><trkpt lat="45.0498979579433" lon="9.605479896740759"><ele>64.0</ele><time>2026-04-07T09:41:18.017Z</time></trkpt><trkpt lat="45.049964546076" lon="9.605485419032698"><ele>63.99999999999999</ele><time>2026-04-07T09:41:19.017Z</time></trkpt><trkpt lat="45.05002813848939" lon="9.60548595314987"><ele>64.0</ele><time>2026-04-07T09:41:20.017Z</time></trkpt><trkpt lat="45.050143242972" lon="9.6054943284534"><ele>63.25</ele><time>2026-04-07T09:41:22.017Z</time></trkpt><trkpt lat="45.0502572394788" lon="9.605504693964578"><ele>62.5</ele><time>2026-04-07T09:41:24.017Z</time></trkpt><trkpt lat="45.05036309506254" lon="9.605495820617481"><ele>61.75</ele><time>2026-04-07T09:41:26.017Z</time></trkpt><trkpt lat="45.05048039478826" lon="9.605497613516757"><ele>61.0</ele><time>2026-04-07T09:41:28.017Z</time></trkpt><trkpt lat="45.050592937776734" lon="9.605523464428206"><ele>60.99999999999999</ele><time>2026-04-07T09:41:30.017Z</time></trkpt><trkpt lat="45.05065827709804" lon="9.605519613869879"><ele>61.0</ele><time>2026-04-07T09:41:31.017Z</time></trkpt><trkpt lat="45.050736370299674" lon="9.605514963776434"><ele>61.0</ele><time>2026-04-07T09:41:33.017Z</time></trkpt><trkpt lat="45.050819060985106" lon="9.60551748438299"><ele>61.0</ele><time>2026-04-07T09:41:36.017Z</time></trkpt><trkpt lat="45.050896359763755" lon="9.605524291759151"><ele>60.99999999999999</ele><time>2026-04-07T09:41:38.017Z</time></trkpt><trkpt lat="45.050980692981426" lon="9.605520535317696"><ele>61.0</ele><time>2026-04-07T09:41:40.017Z</time></trkpt><trkpt lat="45.05106659758552" lon="9.605512483576506"><ele>61.4</ele><time>2026-04-07T09:41:42.017Z</time></trkpt><trkpt lat="45.05116186838369" lon="9.605517612422986"><ele>61.8</ele><time>2026-04-07T09:41:44.017Z</time></trkpt><trkpt lat="45.05125418687655" lon="9.605511594580989"><ele>62.199999999999996</ele><time>2026-04-07T09:41:46.017Z</time></trkpt><trkpt lat="45.05135364873807" lon="9.605506121365336"><ele>62.599999999999994</ele><time>2026-04-07T09:41:48.017Z</time></trkpt><trkpt lat="45.05145225568695" lon="9.60550498166695"><ele>63.0</ele><time>2026-04-07T09:41:50.017Z</time></trkpt><trkpt lat="45.051563781688536" lon="9.605508314712532"><ele>62.8</ele><time>2026-04-07T09:41:52.017Z</time></trkpt><trkpt lat="45.05166334797599" lon="9.605495532342331"><ele>62.599999999999994</ele><time>2026-04-07T09:41:54.017Z</time></trkpt><trkpt lat="45.051762325843285" lon="9.605490586321178"><ele>62.400000000000006</ele><time>2026-04-07T09:41:56.017Z</time></trkpt><trkpt lat="45.05186104246473" lon="9.60550017080791"><ele>62.2</ele><time>2026-04-07T09:41:58.017Z</time></trkpt><trkpt lat="45.051944333765185" lon="9.605526343820443"><ele>62.0</ele><time>2026-04-07T09:42:00.017Z</time></trkpt><trkpt lat="45.0520284240345" lon="9.605513527717621"><ele>62.00000000000001</ele><time>2026-04-07T09:42:02.017Z</time></trkpt><trkpt lat="45.05211747018755" lon="9.605522177982449"><ele>62.0</ele><time>2026-04-07T09:42:04.017Z</time></trkpt><trkpt lat="45.05219117097043" lon="9.605584600344782"><ele>62.0</ele><time>2026-04-07T09:42:07.017Z</time></trkpt><trkpt lat="45.052266391754" lon="9.605565433922523"><ele>62.0</ele><time>2026-04-07T09:42:10.017Z</time></trkpt><trkpt lat="45.05228803181553" lon="9.605473770309922"><ele>62.00000000000001</ele><time>2026-04-07T09:42:12.017Z</time></trkpt><trkpt lat="45.052308040720916" lon="9.605340913471899"><ele>62.0</ele><time>2026-04-07T09:42:14.017Z</time></trkpt><trkpt lat="45.05232244327463" lon="9.605202090081875"><ele>61.6</ele><time>2026-04-07T09:42:16.017Z</time></trkpt><trkpt lat="45.05233185037379" lon="9.605067829600623"><ele>61.2</ele><time>2026-04-07T09:42:18.017Z</time></trkpt><trkpt lat="45.05234620272771" lon="9.604942206869566"><ele>60.8</ele><time>2026-04-07T09:42:20.017Z</time></trkpt><trkpt lat="45.052360989010765" lon="9.604822806046622"><ele>60.4</ele><time>2026-04-07T09:42:22.017Z</time></trkpt><trkpt lat="45.052369394538864" lon="9.604694781638843"><ele>60.0</ele><time>2026-04-07T09:42:24.017Z</time></trkpt><trkpt lat="45.052372860123484" lon="9.604547100765068"><ele>60.0</ele><time>2026-04-07T09:42:26.016Z</time></trkpt><trkpt lat="45.05239303609088" lon="9.604409702922181"><ele>60.0</ele><time>2026-04-07T09:42:28.016Z</time></trkpt><trkpt lat="45.052418933111916" lon="9.60426685675763"><ele>60.0</ele><time>2026-04-07T09:42:30.017Z</time></trkpt><trkpt lat="45.05243556547988" lon="9.604124679743839"><ele>60.0</ele><time>2026-04-07T09:42:32.016Z</time></trkpt><trkpt lat="45.05245064262783" lon="9.603974452405014"><ele>60.0</ele><time>2026-04-07T09:42:34.016Z</time></trkpt><trkpt lat="45.052465868504456" lon="9.603816326407662"><ele>59.75</ele><time>2026-04-07T09:42:36.016Z</time></trkpt><trkpt lat="45.05248948718427" lon="9.603647565278566"><ele>59.5</ele><time>2026-04-07T09:42:38.017Z</time></trkpt><trkpt lat="45.05250683078461" lon="9.603480840926423"><ele>59.25</ele><time>2026-04-07T09:42:40.017Z</time></trkpt><trkpt lat="45.052522487593386" lon="9.603322267556925"><ele>59.0</ele><time>2026-04-07T09:42:42.017Z</time></trkpt><trkpt lat="45.052541974191" lon="9.603157382012522"><ele>59.0</ele><time>2026-04-07T09:42:44.017Z</time></trkpt><trkpt lat="45.052578761463835" lon="9.602999827202325"><ele>59.0</ele><time>2026-04-07T09:42:46.017Z</time></trkpt><trkpt lat="45.05259015627135" lon="9.602839777570713"><ele>59.0</ele><time>2026-04-07T09:42:48.017Z</time></trkpt><trkpt lat="45.05259957505242" lon="9.602662494003095"><ele>59.0</ele><time>2026-04-07T09:42:50.017Z</time></trkpt><trkpt lat="45.052613012046415" lon="9.602494634146645"><ele>59.0</ele><time>2026-04-07T09:42:52.017Z</time></trkpt><trkpt lat="45.05262680013025" lon="9.602405162024525"><ele>59.0</ele><time>2026-04-07T09:42:53.017Z</time></trkpt><trkpt lat="45.05264294090726" lon="9.602231283153655"><ele>59.0</ele><time>2026-04-07T09:42:55.017Z</time></trkpt><trkpt lat="45.05264960196387" lon="9.602142450383083"><ele>59.0</ele><time>2026-04-07T09:42:56.017Z</time></trkpt><trkpt lat="45.05265519572208" lon="9.602052941437263"><ele>59.0</ele><time>2026-04-07T09:42:57.017Z</time></trkpt><trkpt lat="45.052662939720975" lon="9.601963602801508"><ele>59.0</ele><time>2026-04-07T09:42:58.017Z</time></trkpt><trkpt lat="45.05266968635727" lon="9.601874538382633"><ele>59.0</ele><time>2026-04-07T09:42:59.017Z</time></trkpt><trkpt lat="45.052678152558286" lon="9.601784008292709"><ele>59.0</ele><time>2026-04-07T09:43:00.017Z</time></trkpt><trkpt lat="45.05268469580418" lon="9.601689858365035"><ele>59.00000000000001</ele><time>2026-04-07T09:43:01.017Z</time></trkpt><trkpt lat="45.05269375703828" lon="9.601510218727993"><ele>59.00000000000001</ele><time>2026-04-07T09:43:03.017Z</time></trkpt><trkpt lat="45.05269696384035" lon="9.60141631567393"><ele>59.0</ele><time>2026-04-07T09:43:04.017Z</time></trkpt><trkpt lat="45.05270210768594" lon="9.601236153055245"><ele>59.0</ele><time>2026-04-07T09:43:06.017Z</time></trkpt><trkpt lat="45.052704795774595" lon="9.601145851759691"><ele>59.16666666666667</ele><time>2026-04-07T09:43:07.017Z</time></trkpt><trkpt lat="45.05270711970256" lon="9.601055036610905"><ele>59.333333333333336</ele><time>2026-04-07T09:43:08.017Z</time></trkpt><trkpt lat="45.05271158628253" lon="9.600879362764779"><ele>59.5</ele><time>2026-04-07T09:43:10.017Z</time></trkpt><trkpt lat="45.0527154535983" lon="9.600788927531259"><ele>59.66666666666667</ele><time>2026-04-07T09:43:11.017Z</time></trkpt><trkpt lat="45.05272090834759" lon="9.600699859357091"><ele>59.833333333333336</ele><time>2026-04-07T09:43:12.017Z</time></trkpt><trkpt lat="45.052726169033136" lon="9.600611012173758"><ele>60.0</ele><time>2026-04-07T09:43:13.017Z</time></trkpt><trkpt lat="45.05272445791865" lon="9.600436850274537"><ele>60.75</ele><time>2026-04-07T09:43:15.017Z</time></trkpt><trkpt lat="45.0527355767438" lon="9.600263730920672"><ele>61.5</ele><time>2026-04-07T09:43:17.017Z</time></trkpt><trkpt lat="45.05274094622486" lon="9.600089769210845"><ele>62.25</ele><time>2026-04-07T09:43:19.017Z</time></trkpt><trkpt lat="45.05274757035017" lon="9.599915875850712"><ele>63.0</ele><time>2026-04-07T09:43:21.017Z</time></trkpt><trkpt lat="45.05275214271904" lon="9.599751895431234"><ele>63.0</ele><time>2026-04-07T09:43:23.017Z</time></trkpt><trkpt lat="45.05275095231193" lon="9.599596791859396"><ele>63.0</ele><time>2026-04-07T09:43:25.017Z</time></trkpt><trkpt lat="45.052745854604275" lon="9.599437271619477"><ele>63.0</ele><time>2026-04-07T09:43:27.017Z</time></trkpt><trkpt lat="45.052726195120684" lon="9.599274421789213"><ele>63.0</ele><time>2026-04-07T09:43:29.017Z</time></trkpt><trkpt lat="45.05269110228448" lon="9.599119586816094"><ele>64.0</ele><time>2026-04-07T09:43:31.017Z</time></trkpt><trkpt lat="45.05266395133808" lon="9.598972677280914"><ele>64.0</ele><time>2026-04-07T09:43:33.017Z</time></trkpt></trkseg></trk></gpx>